<?xml version="1.0" encoding="UTF-8" standalone="no" ?>
<gpx xmlns="http://www.topografix.com/GPX/1/1" xmlns:xsi="http://www.w3.org/2001/XMLSchema-instance" xsi:schemaLocation="http://www.topografix.com/GPX/1/1 http://www.topografix.com/GPX/1/1/gpx.xsd" version="1.1" creator="VisuGPX - https://www.visugpx.com">
  <metadata>
    <name>st didier 25 km</name>
    <desc><![CDATA[circuit vtt de 25 km  au départ de saint didier, en ille et vilaine à l'est de rennes]]></desc>
  </metadata>
  <trk>
    <name><![CDATA[st didier 25km]]></name>
    <trkseg>
      <trkpt lat="48.09698" lon="-1.371">
        <ele>64</ele>
        <time>2010-07-29T08:11:12Z</time>
      </trkpt>
      <trkpt lat="48.09697" lon="-1.37103">
        <ele>64</ele>
        <time>2010-07-29T08:11:13Z</time>
      </trkpt>
      <trkpt lat="48.097" lon="-1.37105">
        <ele>64</ele>
        <time>2010-07-29T08:11:15Z</time>
      </trkpt>
      <trkpt lat="48.09702" lon="-1.37105">
        <ele>64</ele>
        <time>2010-07-29T08:11:16Z</time>
      </trkpt>
      <trkpt lat="48.09705" lon="-1.37106">
        <ele>63</ele>
        <time>2010-07-29T08:11:17Z</time>
      </trkpt>
      <trkpt lat="48.0971" lon="-1.37107">
        <ele>63</ele>
        <time>2010-07-29T08:11:19Z</time>
      </trkpt>
      <trkpt lat="48.09714" lon="-1.37107">
        <ele>63</ele>
        <time>2010-07-29T08:11:21Z</time>
      </trkpt>
      <trkpt lat="48.09715" lon="-1.37106">
        <ele>63</ele>
        <time>2010-07-29T08:11:22Z</time>
      </trkpt>
      <trkpt lat="48.09722" lon="-1.37101">
        <ele>63</ele>
        <time>2010-07-29T08:11:25Z</time>
      </trkpt>
      <trkpt lat="48.09726" lon="-1.37097">
        <ele>64</ele>
        <time>2010-07-29T08:11:27Z</time>
      </trkpt>
      <trkpt lat="48.09737" lon="-1.37093">
        <ele>64</ele>
        <time>2010-07-29T08:11:31Z</time>
      </trkpt>
      <trkpt lat="48.09751" lon="-1.37089">
        <ele>65</ele>
        <time>2010-07-29T08:11:38Z</time>
      </trkpt>
      <trkpt lat="48.09755" lon="-1.37087">
        <ele>65</ele>
        <time>2010-07-29T08:11:40Z</time>
      </trkpt>
      <trkpt lat="48.0976" lon="-1.37084">
        <ele>66</ele>
        <time>2010-07-29T08:11:42Z</time>
      </trkpt>
      <trkpt lat="48.09765" lon="-1.37082">
        <ele>66</ele>
        <time>2010-07-29T08:11:44Z</time>
      </trkpt>
      <trkpt lat="48.09768" lon="-1.37082">
        <ele>66</ele>
        <time>2010-07-29T08:11:45Z</time>
      </trkpt>
      <trkpt lat="48.09777" lon="-1.37079">
        <ele>66</ele>
        <time>2010-07-29T08:11:48Z</time>
      </trkpt>
      <trkpt lat="48.09792" lon="-1.37075">
        <ele>67</ele>
        <time>2010-07-29T08:11:53Z</time>
      </trkpt>
      <trkpt lat="48.09801" lon="-1.37075">
        <ele>67</ele>
        <time>2010-07-29T08:11:56Z</time>
      </trkpt>
      <trkpt lat="48.09812" lon="-1.37079">
        <ele>67</ele>
        <time>2010-07-29T08:12:00Z</time>
      </trkpt>
      <trkpt lat="48.09838" lon="-1.37093">
        <ele>64</ele>
        <time>2010-07-29T08:12:05Z</time>
      </trkpt>
      <trkpt lat="48.09843" lon="-1.37095">
        <ele>64</ele>
        <time>2010-07-29T08:12:07Z</time>
      </trkpt>
      <trkpt lat="48.0986" lon="-1.37097">
        <ele>63</ele>
        <time>2010-07-29T08:12:10Z</time>
      </trkpt>
      <trkpt lat="48.09864" lon="-1.37097">
        <ele>63</ele>
        <time>2010-07-29T08:12:11Z</time>
      </trkpt>
      <trkpt lat="48.09873" lon="-1.37097">
        <ele>63</ele>
        <time>2010-07-29T08:12:13Z</time>
      </trkpt>
      <trkpt lat="48.09885" lon="-1.37093">
        <ele>63</ele>
        <time>2010-07-29T08:12:16Z</time>
      </trkpt>
      <trkpt lat="48.09892" lon="-1.37091">
        <ele>63</ele>
        <time>2010-07-29T08:12:18Z</time>
      </trkpt>
      <trkpt lat="48.099" lon="-1.3709">
        <ele>63</ele>
        <time>2010-07-29T08:12:20Z</time>
      </trkpt>
      <trkpt lat="48.09909" lon="-1.3709">
        <ele>63</ele>
        <time>2010-07-29T08:12:22Z</time>
      </trkpt>
      <trkpt lat="48.09914" lon="-1.37091">
        <ele>62</ele>
        <time>2010-07-29T08:12:23Z</time>
      </trkpt>
      <trkpt lat="48.09923" lon="-1.37089">
        <ele>62</ele>
        <time>2010-07-29T08:12:25Z</time>
      </trkpt>
      <trkpt lat="48.0993" lon="-1.3709">
        <ele>62</ele>
        <time>2010-07-29T08:12:27Z</time>
      </trkpt>
      <trkpt lat="48.09933" lon="-1.3709">
        <ele>62</ele>
        <time>2010-07-29T08:12:28Z</time>
      </trkpt>
      <trkpt lat="48.09944" lon="-1.37091">
        <ele>61</ele>
        <time>2010-07-29T08:12:31Z</time>
      </trkpt>
      <trkpt lat="48.09947" lon="-1.3709">
        <ele>61</ele>
        <time>2010-07-29T08:12:32Z</time>
      </trkpt>
      <trkpt lat="48.09949" lon="-1.37089">
        <ele>61</ele>
        <time>2010-07-29T08:12:33Z</time>
      </trkpt>
      <trkpt lat="48.09952" lon="-1.3709">
        <ele>61</ele>
        <time>2010-07-29T08:12:35Z</time>
      </trkpt>
      <trkpt lat="48.09958" lon="-1.37091">
        <ele>60</ele>
        <time>2010-07-29T08:12:38Z</time>
      </trkpt>
      <trkpt lat="48.0996" lon="-1.37091">
        <ele>60</ele>
        <time>2010-07-29T08:12:40Z</time>
      </trkpt>
      <trkpt lat="48.09962" lon="-1.37093">
        <ele>60</ele>
        <time>2010-07-29T08:12:42Z</time>
      </trkpt>
      <trkpt lat="48.09962" lon="-1.37094">
        <ele>60</ele>
        <time>2010-07-29T08:12:43Z</time>
      </trkpt>
      <trkpt lat="48.09964" lon="-1.37097">
        <ele>59</ele>
        <time>2010-07-29T08:12:44Z</time>
      </trkpt>
      <trkpt lat="48.09966" lon="-1.37103">
        <ele>58</ele>
        <time>2010-07-29T08:12:45Z</time>
      </trkpt>
      <trkpt lat="48.09976" lon="-1.37123">
        <ele>55</ele>
        <time>2010-07-29T08:12:47Z</time>
      </trkpt>
      <trkpt lat="48.0998" lon="-1.37133">
        <ele>55</ele>
        <time>2010-07-29T08:12:48Z</time>
      </trkpt>
      <trkpt lat="48.09983" lon="-1.37139">
        <ele>55</ele>
        <time>2010-07-29T08:12:49Z</time>
      </trkpt>
      <trkpt lat="48.09984" lon="-1.37144">
        <ele>56</ele>
        <time>2010-07-29T08:12:51Z</time>
      </trkpt>
      <trkpt lat="48.09985" lon="-1.37145">
        <ele>56</ele>
        <time>2010-07-29T08:12:52Z</time>
      </trkpt>
      <trkpt lat="48.09985" lon="-1.37147">
        <ele>56</ele>
        <time>2010-07-29T08:12:53Z</time>
      </trkpt>
      <trkpt lat="48.09983" lon="-1.3715">
        <ele>57</ele>
        <time>2010-07-29T08:12:56Z</time>
      </trkpt>
      <trkpt lat="48.09978" lon="-1.37151">
        <ele>57</ele>
        <time>2010-07-29T08:12:58Z</time>
      </trkpt>
      <trkpt lat="48.09973" lon="-1.37153">
        <ele>57</ele>
        <time>2010-07-29T08:13:00Z</time>
      </trkpt>
      <trkpt lat="48.09969" lon="-1.37155">
        <ele>58</ele>
        <time>2010-07-29T08:13:02Z</time>
      </trkpt>
      <trkpt lat="48.09963" lon="-1.37159">
        <ele>58</ele>
        <time>2010-07-29T08:13:12Z</time>
      </trkpt>
      <trkpt lat="48.09958" lon="-1.37159">
        <ele>58</ele>
        <time>2010-07-29T08:13:16Z</time>
      </trkpt>
      <trkpt lat="48.09956" lon="-1.3716">
        <ele>58</ele>
        <time>2010-07-29T08:13:17Z</time>
      </trkpt>
      <trkpt lat="48.09955" lon="-1.37166">
        <ele>59</ele>
        <time>2010-07-29T08:13:20Z</time>
      </trkpt>
      <trkpt lat="48.09959" lon="-1.37169">
        <ele>59</ele>
        <time>2010-07-29T08:13:22Z</time>
      </trkpt>
      <trkpt lat="48.09961" lon="-1.37169">
        <ele>59</ele>
        <time>2010-07-29T08:13:23Z</time>
      </trkpt>
      <trkpt lat="48.09963" lon="-1.37169">
        <ele>59</ele>
        <time>2010-07-29T08:13:24Z</time>
      </trkpt>
      <trkpt lat="48.09965" lon="-1.37169">
        <ele>59</ele>
        <time>2010-07-29T08:13:25Z</time>
      </trkpt>
      <trkpt lat="48.09967" lon="-1.37173">
        <ele>59</ele>
        <time>2010-07-29T08:13:27Z</time>
      </trkpt>
      <trkpt lat="48.09968" lon="-1.37174">
        <ele>60</ele>
        <time>2010-07-29T08:13:28Z</time>
      </trkpt>
      <trkpt lat="48.0997" lon="-1.37175">
        <ele>60</ele>
        <time>2010-07-29T08:13:29Z</time>
      </trkpt>
      <trkpt lat="48.09972" lon="-1.37175">
        <ele>60</ele>
        <time>2010-07-29T08:13:31Z</time>
      </trkpt>
      <trkpt lat="48.09983" lon="-1.3718">
        <ele>60</ele>
        <time>2010-07-29T08:13:37Z</time>
      </trkpt>
      <trkpt lat="48.09988" lon="-1.37182">
        <ele>60</ele>
        <time>2010-07-29T08:13:39Z</time>
      </trkpt>
      <trkpt lat="48.09992" lon="-1.37184">
        <ele>60</ele>
        <time>2010-07-29T08:13:41Z</time>
      </trkpt>
      <trkpt lat="48.09997" lon="-1.37187">
        <ele>61</ele>
        <time>2010-07-29T08:13:43Z</time>
      </trkpt>
      <trkpt lat="48.1" lon="-1.37189">
        <ele>61</ele>
        <time>2010-07-29T08:13:44Z</time>
      </trkpt>
      <trkpt lat="48.10005" lon="-1.37199">
        <ele>62</ele>
        <time>2010-07-29T08:13:47Z</time>
      </trkpt>
      <trkpt lat="48.10004" lon="-1.37205">
        <ele>62</ele>
        <time>2010-07-29T08:13:50Z</time>
      </trkpt>
      <trkpt lat="48.10002" lon="-1.37206">
        <ele>62</ele>
        <time>2010-07-29T08:13:51Z</time>
      </trkpt>
      <trkpt lat="48.09998" lon="-1.37209">
        <ele>63</ele>
        <time>2010-07-29T08:13:53Z</time>
      </trkpt>
      <trkpt lat="48.09996" lon="-1.3721">
        <ele>63</ele>
        <time>2010-07-29T08:13:54Z</time>
      </trkpt>
      <trkpt lat="48.09991" lon="-1.37211">
        <ele>63</ele>
        <time>2010-07-29T08:13:56Z</time>
      </trkpt>
      <trkpt lat="48.09983" lon="-1.37209">
        <ele>63</ele>
        <time>2010-07-29T08:14:00Z</time>
      </trkpt>
      <trkpt lat="48.0998" lon="-1.37209">
        <ele>63</ele>
        <time>2010-07-29T08:14:01Z</time>
      </trkpt>
      <trkpt lat="48.09974" lon="-1.37209">
        <ele>63</ele>
        <time>2010-07-29T08:14:03Z</time>
      </trkpt>
      <trkpt lat="48.0997" lon="-1.37208">
        <ele>63</ele>
        <time>2010-07-29T08:14:04Z</time>
      </trkpt>
      <trkpt lat="48.09967" lon="-1.37208">
        <ele>63</ele>
        <time>2010-07-29T08:14:05Z</time>
      </trkpt>
      <trkpt lat="48.0996" lon="-1.37207">
        <ele>63</ele>
        <time>2010-07-29T08:14:07Z</time>
      </trkpt>
      <trkpt lat="48.09954" lon="-1.37209">
        <ele>63</ele>
        <time>2010-07-29T08:14:09Z</time>
      </trkpt>
      <trkpt lat="48.09952" lon="-1.37211">
        <ele>63</ele>
        <time>2010-07-29T08:14:10Z</time>
      </trkpt>
      <trkpt lat="48.0995" lon="-1.3722">
        <ele>64</ele>
        <time>2010-07-29T08:14:13Z</time>
      </trkpt>
      <trkpt lat="48.0995" lon="-1.3723">
        <ele>65</ele>
        <time>2010-07-29T08:14:16Z</time>
      </trkpt>
      <trkpt lat="48.09951" lon="-1.37238">
        <ele>66</ele>
        <time>2010-07-29T08:14:17Z</time>
      </trkpt>
      <trkpt lat="48.0995" lon="-1.37247">
        <ele>67</ele>
        <time>2010-07-29T08:14:19Z</time>
      </trkpt>
      <trkpt lat="48.09948" lon="-1.37255">
        <ele>67</ele>
        <time>2010-07-29T08:14:21Z</time>
      </trkpt>
      <trkpt lat="48.09947" lon="-1.37264">
        <ele>68</ele>
        <time>2010-07-29T08:14:23Z</time>
      </trkpt>
      <trkpt lat="48.09943" lon="-1.37291">
        <ele>69</ele>
        <time>2010-07-29T08:14:29Z</time>
      </trkpt>
      <trkpt lat="48.09942" lon="-1.373">
        <ele>69</ele>
        <time>2010-07-29T08:14:31Z</time>
      </trkpt>
      <trkpt lat="48.0994" lon="-1.37309">
        <ele>69</ele>
        <time>2010-07-29T08:14:33Z</time>
      </trkpt>
      <trkpt lat="48.09939" lon="-1.37319">
        <ele>69</ele>
        <time>2010-07-29T08:14:35Z</time>
      </trkpt>
      <trkpt lat="48.09938" lon="-1.37328">
        <ele>69</ele>
        <time>2010-07-29T08:14:37Z</time>
      </trkpt>
      <trkpt lat="48.09932" lon="-1.3737">
        <ele>69</ele>
        <time>2010-07-29T08:14:46Z</time>
      </trkpt>
      <trkpt lat="48.09931" lon="-1.37378">
        <ele>69</ele>
        <time>2010-07-29T08:14:48Z</time>
      </trkpt>
      <trkpt lat="48.0993" lon="-1.37386">
        <ele>69</ele>
        <time>2010-07-29T08:14:50Z</time>
      </trkpt>
      <trkpt lat="48.09929" lon="-1.37394">
        <ele>69</ele>
        <time>2010-07-29T08:14:52Z</time>
      </trkpt>
      <trkpt lat="48.09928" lon="-1.37401">
        <ele>69</ele>
        <time>2010-07-29T08:14:54Z</time>
      </trkpt>
      <trkpt lat="48.09928" lon="-1.37405">
        <ele>69</ele>
        <time>2010-07-29T08:14:55Z</time>
      </trkpt>
      <trkpt lat="48.09937" lon="-1.37414">
        <ele>69</ele>
        <time>2010-07-29T08:14:59Z</time>
      </trkpt>
      <trkpt lat="48.0996" lon="-1.37416">
        <ele>67</ele>
        <time>2010-07-29T08:15:04Z</time>
      </trkpt>
      <trkpt lat="48.09971" lon="-1.37419">
        <ele>66</ele>
        <time>2010-07-29T08:15:06Z</time>
      </trkpt>
      <trkpt lat="48.09984" lon="-1.37422">
        <ele>65</ele>
        <time>2010-07-29T08:15:08Z</time>
      </trkpt>
      <trkpt lat="48.10001" lon="-1.37425">
        <ele>64</ele>
        <time>2010-07-29T08:15:10Z</time>
      </trkpt>
      <trkpt lat="48.10019" lon="-1.37429">
        <ele>62</ele>
        <time>2010-07-29T08:15:12Z</time>
      </trkpt>
      <trkpt lat="48.10038" lon="-1.37433">
        <ele>60</ele>
        <time>2010-07-29T08:15:14Z</time>
      </trkpt>
      <trkpt lat="48.10057" lon="-1.37438">
        <ele>58</ele>
        <time>2010-07-29T08:15:16Z</time>
      </trkpt>
      <trkpt lat="48.10066" lon="-1.3744">
        <ele>58</ele>
        <time>2010-07-29T08:15:17Z</time>
      </trkpt>
      <trkpt lat="48.10085" lon="-1.37445">
        <ele>56</ele>
        <time>2010-07-29T08:15:19Z</time>
      </trkpt>
      <trkpt lat="48.10104" lon="-1.37451">
        <ele>54</ele>
        <time>2010-07-29T08:15:21Z</time>
      </trkpt>
      <trkpt lat="48.10122" lon="-1.37455">
        <ele>53</ele>
        <time>2010-07-29T08:15:23Z</time>
      </trkpt>
      <trkpt lat="48.10132" lon="-1.37456">
        <ele>52</ele>
        <time>2010-07-29T08:15:24Z</time>
      </trkpt>
      <trkpt lat="48.1014" lon="-1.37458">
        <ele>50</ele>
        <time>2010-07-29T08:15:25Z</time>
      </trkpt>
      <trkpt lat="48.10152" lon="-1.37468">
        <ele>49</ele>
        <time>2010-07-29T08:15:27Z</time>
      </trkpt>
      <trkpt lat="48.10155" lon="-1.37481">
        <ele>48</ele>
        <time>2010-07-29T08:15:29Z</time>
      </trkpt>
      <trkpt lat="48.10154" lon="-1.37485">
        <ele>48</ele>
        <time>2010-07-29T08:15:30Z</time>
      </trkpt>
      <trkpt lat="48.10149" lon="-1.3749">
        <ele>48</ele>
        <time>2010-07-29T08:15:32Z</time>
      </trkpt>
      <trkpt lat="48.10145" lon="-1.37491">
        <ele>48</ele>
        <time>2010-07-29T08:15:34Z</time>
      </trkpt>
      <trkpt lat="48.10143" lon="-1.37495">
        <ele>48</ele>
        <time>2010-07-29T08:15:36Z</time>
      </trkpt>
      <trkpt lat="48.10141" lon="-1.37498">
        <ele>48</ele>
        <time>2010-07-29T08:15:37Z</time>
      </trkpt>
      <trkpt lat="48.10136" lon="-1.37513">
        <ele>48</ele>
        <time>2010-07-29T08:15:42Z</time>
      </trkpt>
      <trkpt lat="48.10129" lon="-1.37534">
        <ele>48</ele>
        <time>2010-07-29T08:15:49Z</time>
      </trkpt>
      <trkpt lat="48.10124" lon="-1.37545">
        <ele>48</ele>
        <time>2010-07-29T08:15:52Z</time>
      </trkpt>
      <trkpt lat="48.10119" lon="-1.37558">
        <ele>48</ele>
        <time>2010-07-29T08:15:56Z</time>
      </trkpt>
      <trkpt lat="48.10117" lon="-1.37566">
        <ele>48</ele>
        <time>2010-07-29T08:15:58Z</time>
      </trkpt>
      <trkpt lat="48.10114" lon="-1.37574">
        <ele>48</ele>
        <time>2010-07-29T08:16:00Z</time>
      </trkpt>
      <trkpt lat="48.10114" lon="-1.37579">
        <ele>48</ele>
        <time>2010-07-29T08:16:02Z</time>
      </trkpt>
      <trkpt lat="48.10114" lon="-1.37581">
        <ele>48</ele>
        <time>2010-07-29T08:16:03Z</time>
      </trkpt>
      <trkpt lat="48.10113" lon="-1.37586">
        <ele>48</ele>
        <time>2010-07-29T08:16:05Z</time>
      </trkpt>
      <trkpt lat="48.10112" lon="-1.37594">
        <ele>47</ele>
        <time>2010-07-29T08:16:07Z</time>
      </trkpt>
      <trkpt lat="48.10109" lon="-1.37601">
        <ele>48</ele>
        <time>2010-07-29T08:16:09Z</time>
      </trkpt>
      <trkpt lat="48.10106" lon="-1.37608">
        <ele>48</ele>
        <time>2010-07-29T08:16:11Z</time>
      </trkpt>
      <trkpt lat="48.10104" lon="-1.37612">
        <ele>48</ele>
        <time>2010-07-29T08:16:12Z</time>
      </trkpt>
      <trkpt lat="48.10101" lon="-1.37617">
        <ele>49</ele>
        <time>2010-07-29T08:16:14Z</time>
      </trkpt>
      <trkpt lat="48.10099" lon="-1.37621">
        <ele>49</ele>
        <time>2010-07-29T08:16:16Z</time>
      </trkpt>
      <trkpt lat="48.10096" lon="-1.37624">
        <ele>50</ele>
        <time>2010-07-29T08:16:18Z</time>
      </trkpt>
      <trkpt lat="48.10092" lon="-1.37629">
        <ele>50</ele>
        <time>2010-07-29T08:16:20Z</time>
      </trkpt>
      <trkpt lat="48.10089" lon="-1.37635">
        <ele>51</ele>
        <time>2010-07-29T08:16:23Z</time>
      </trkpt>
      <trkpt lat="48.1008" lon="-1.37649">
        <ele>51</ele>
        <time>2010-07-29T08:16:27Z</time>
      </trkpt>
      <trkpt lat="48.10074" lon="-1.37662">
        <ele>52</ele>
        <time>2010-07-29T08:16:30Z</time>
      </trkpt>
      <trkpt lat="48.10073" lon="-1.37666">
        <ele>52</ele>
        <time>2010-07-29T08:16:31Z</time>
      </trkpt>
      <trkpt lat="48.10071" lon="-1.3767">
        <ele>52</ele>
        <time>2010-07-29T08:16:32Z</time>
      </trkpt>
      <trkpt lat="48.10067" lon="-1.37679">
        <ele>52</ele>
        <time>2010-07-29T08:16:34Z</time>
      </trkpt>
      <trkpt lat="48.10064" lon="-1.37687">
        <ele>52</ele>
        <time>2010-07-29T08:16:36Z</time>
      </trkpt>
      <trkpt lat="48.10061" lon="-1.37692">
        <ele>53</ele>
        <time>2010-07-29T08:16:38Z</time>
      </trkpt>
      <trkpt lat="48.10057" lon="-1.37701">
        <ele>54</ele>
        <time>2010-07-29T08:16:40Z</time>
      </trkpt>
      <trkpt lat="48.10051" lon="-1.37719">
        <ele>55</ele>
        <time>2010-07-29T08:16:42Z</time>
      </trkpt>
      <trkpt lat="48.10048" lon="-1.37735">
        <ele>55</ele>
        <time>2010-07-29T08:16:44Z</time>
      </trkpt>
      <trkpt lat="48.10048" lon="-1.37749">
        <ele>55</ele>
        <time>2010-07-29T08:16:46Z</time>
      </trkpt>
      <trkpt lat="48.1005" lon="-1.37767">
        <ele>54</ele>
        <time>2010-07-29T08:16:49Z</time>
      </trkpt>
      <trkpt lat="48.10055" lon="-1.37789">
        <ele>53</ele>
        <time>2010-07-29T08:16:53Z</time>
      </trkpt>
      <trkpt lat="48.10064" lon="-1.37801">
        <ele>50</ele>
        <time>2010-07-29T08:16:57Z</time>
      </trkpt>
      <trkpt lat="48.10069" lon="-1.37811">
        <ele>49</ele>
        <time>2010-07-29T08:16:59Z</time>
      </trkpt>
      <trkpt lat="48.10079" lon="-1.37826">
        <ele>48</ele>
        <time>2010-07-29T08:17:02Z</time>
      </trkpt>
      <trkpt lat="48.10086" lon="-1.37835">
        <ele>47</ele>
        <time>2010-07-29T08:17:04Z</time>
      </trkpt>
      <trkpt lat="48.10089" lon="-1.37842">
        <ele>46</ele>
        <time>2010-07-29T08:17:05Z</time>
      </trkpt>
      <trkpt lat="48.10095" lon="-1.37857">
        <ele>45</ele>
        <time>2010-07-29T08:17:07Z</time>
      </trkpt>
      <trkpt lat="48.10098" lon="-1.37866">
        <ele>45</ele>
        <time>2010-07-29T08:17:08Z</time>
      </trkpt>
      <trkpt lat="48.101" lon="-1.37875">
        <ele>45</ele>
        <time>2010-07-29T08:17:09Z</time>
      </trkpt>
      <trkpt lat="48.10104" lon="-1.37891">
        <ele>44</ele>
        <time>2010-07-29T08:17:11Z</time>
      </trkpt>
      <trkpt lat="48.10106" lon="-1.37899">
        <ele>44</ele>
        <time>2010-07-29T08:17:12Z</time>
      </trkpt>
      <trkpt lat="48.10109" lon="-1.37916">
        <ele>43</ele>
        <time>2010-07-29T08:17:14Z</time>
      </trkpt>
      <trkpt lat="48.10109" lon="-1.37926">
        <ele>43</ele>
        <time>2010-07-29T08:17:15Z</time>
      </trkpt>
      <trkpt lat="48.1011" lon="-1.37935">
        <ele>43</ele>
        <time>2010-07-29T08:17:16Z</time>
      </trkpt>
      <trkpt lat="48.10109" lon="-1.37944">
        <ele>43</ele>
        <time>2010-07-29T08:17:17Z</time>
      </trkpt>
      <trkpt lat="48.10107" lon="-1.37972">
        <ele>44</ele>
        <time>2010-07-29T08:17:20Z</time>
      </trkpt>
      <trkpt lat="48.10105" lon="-1.37991">
        <ele>45</ele>
        <time>2010-07-29T08:17:22Z</time>
      </trkpt>
      <trkpt lat="48.10106" lon="-1.3801">
        <ele>45</ele>
        <time>2010-07-29T08:17:24Z</time>
      </trkpt>
      <trkpt lat="48.10108" lon="-1.38026">
        <ele>45</ele>
        <time>2010-07-29T08:17:26Z</time>
      </trkpt>
      <trkpt lat="48.10108" lon="-1.38033">
        <ele>45</ele>
        <time>2010-07-29T08:17:27Z</time>
      </trkpt>
      <trkpt lat="48.10108" lon="-1.38057">
        <ele>45</ele>
        <time>2010-07-29T08:17:31Z</time>
      </trkpt>
      <trkpt lat="48.10104" lon="-1.38078">
        <ele>45</ele>
        <time>2010-07-29T08:17:35Z</time>
      </trkpt>
      <trkpt lat="48.10102" lon="-1.38084">
        <ele>45</ele>
        <time>2010-07-29T08:17:36Z</time>
      </trkpt>
      <trkpt lat="48.10099" lon="-1.38099">
        <ele>45</ele>
        <time>2010-07-29T08:17:39Z</time>
      </trkpt>
      <trkpt lat="48.10104" lon="-1.38136">
        <ele>44</ele>
        <time>2010-07-29T08:17:46Z</time>
      </trkpt>
      <trkpt lat="48.10104" lon="-1.38142">
        <ele>44</ele>
        <time>2010-07-29T08:17:47Z</time>
      </trkpt>
      <trkpt lat="48.10105" lon="-1.38153">
        <ele>44</ele>
        <time>2010-07-29T08:17:49Z</time>
      </trkpt>
      <trkpt lat="48.10107" lon="-1.38163">
        <ele>44</ele>
        <time>2010-07-29T08:17:51Z</time>
      </trkpt>
      <trkpt lat="48.1011" lon="-1.38172">
        <ele>44</ele>
        <time>2010-07-29T08:17:53Z</time>
      </trkpt>
      <trkpt lat="48.10111" lon="-1.38182">
        <ele>44</ele>
        <time>2010-07-29T08:17:55Z</time>
      </trkpt>
      <trkpt lat="48.10106" lon="-1.38206">
        <ele>45</ele>
        <time>2010-07-29T08:17:59Z</time>
      </trkpt>
      <trkpt lat="48.10105" lon="-1.38213">
        <ele>45</ele>
        <time>2010-07-29T08:18:00Z</time>
      </trkpt>
      <trkpt lat="48.10106" lon="-1.3825">
        <ele>45</ele>
        <time>2010-07-29T08:18:06Z</time>
      </trkpt>
      <trkpt lat="48.10106" lon="-1.3826">
        <ele>45</ele>
        <time>2010-07-29T08:18:08Z</time>
      </trkpt>
      <trkpt lat="48.10107" lon="-1.38275">
        <ele>45</ele>
        <time>2010-07-29T08:18:12Z</time>
      </trkpt>
      <trkpt lat="48.10109" lon="-1.38291">
        <ele>45</ele>
        <time>2010-07-29T08:18:16Z</time>
      </trkpt>
      <trkpt lat="48.10108" lon="-1.38295">
        <ele>45</ele>
        <time>2010-07-29T08:18:17Z</time>
      </trkpt>
      <trkpt lat="48.10106" lon="-1.38312">
        <ele>45</ele>
        <time>2010-07-29T08:18:21Z</time>
      </trkpt>
      <trkpt lat="48.10104" lon="-1.38334">
        <ele>45</ele>
        <time>2010-07-29T08:18:25Z</time>
      </trkpt>
      <trkpt lat="48.10102" lon="-1.38359">
        <ele>45</ele>
        <time>2010-07-29T08:18:30Z</time>
      </trkpt>
      <trkpt lat="48.10099" lon="-1.38391">
        <ele>45</ele>
        <time>2010-07-29T08:18:34Z</time>
      </trkpt>
      <trkpt lat="48.10103" lon="-1.38408">
        <ele>44</ele>
        <time>2010-07-29T08:18:37Z</time>
      </trkpt>
      <trkpt lat="48.10103" lon="-1.38414">
        <ele>44</ele>
        <time>2010-07-29T08:18:38Z</time>
      </trkpt>
      <trkpt lat="48.10101" lon="-1.38438">
        <ele>45</ele>
        <time>2010-07-29T08:18:42Z</time>
      </trkpt>
      <trkpt lat="48.10101" lon="-1.38465">
        <ele>45</ele>
        <time>2010-07-29T08:18:46Z</time>
      </trkpt>
      <trkpt lat="48.101" lon="-1.38494">
        <ele>45</ele>
        <time>2010-07-29T08:18:51Z</time>
      </trkpt>
      <trkpt lat="48.10099" lon="-1.38511">
        <ele>46</ele>
        <time>2010-07-29T08:18:54Z</time>
      </trkpt>
      <trkpt lat="48.10105" lon="-1.38533">
        <ele>46</ele>
        <time>2010-07-29T08:18:58Z</time>
      </trkpt>
      <trkpt lat="48.10105" lon="-1.38542">
        <ele>46</ele>
        <time>2010-07-29T08:19:00Z</time>
      </trkpt>
      <trkpt lat="48.10109" lon="-1.38581">
        <ele>47</ele>
        <time>2010-07-29T08:19:06Z</time>
      </trkpt>
      <trkpt lat="48.10111" lon="-1.38606">
        <ele>46</ele>
        <time>2010-07-29T08:19:10Z</time>
      </trkpt>
      <trkpt lat="48.10118" lon="-1.38632">
        <ele>45</ele>
        <time>2010-07-29T08:19:15Z</time>
      </trkpt>
      <trkpt lat="48.10119" lon="-1.3865">
        <ele>45</ele>
        <time>2010-07-29T08:19:18Z</time>
      </trkpt>
      <trkpt lat="48.1012" lon="-1.38668">
        <ele>45</ele>
        <time>2010-07-29T08:19:21Z</time>
      </trkpt>
      <trkpt lat="48.10123" lon="-1.38686">
        <ele>44</ele>
        <time>2010-07-29T08:19:24Z</time>
      </trkpt>
      <trkpt lat="48.10129" lon="-1.38702">
        <ele>42</ele>
        <time>2010-07-29T08:19:27Z</time>
      </trkpt>
      <trkpt lat="48.1013" lon="-1.38708">
        <ele>42</ele>
        <time>2010-07-29T08:19:28Z</time>
      </trkpt>
      <trkpt lat="48.10132" lon="-1.38727">
        <ele>42</ele>
        <time>2010-07-29T08:19:31Z</time>
      </trkpt>
      <trkpt lat="48.10132" lon="-1.38739">
        <ele>43</ele>
        <time>2010-07-29T08:19:33Z</time>
      </trkpt>
      <trkpt lat="48.10132" lon="-1.38749">
        <ele>43</ele>
        <time>2010-07-29T08:19:35Z</time>
      </trkpt>
      <trkpt lat="48.10127" lon="-1.38762">
        <ele>43</ele>
        <time>2010-07-29T08:19:38Z</time>
      </trkpt>
      <trkpt lat="48.10131" lon="-1.38799">
        <ele>44</ele>
        <time>2010-07-29T08:19:44Z</time>
      </trkpt>
      <trkpt lat="48.1013" lon="-1.38828">
        <ele>45</ele>
        <time>2010-07-29T08:19:49Z</time>
      </trkpt>
      <trkpt lat="48.10133" lon="-1.38846">
        <ele>45</ele>
        <time>2010-07-29T08:19:52Z</time>
      </trkpt>
      <trkpt lat="48.1013" lon="-1.3888">
        <ele>45</ele>
        <time>2010-07-29T08:19:57Z</time>
      </trkpt>
      <trkpt lat="48.10122" lon="-1.38923">
        <ele>46</ele>
        <time>2010-07-29T08:20:04Z</time>
      </trkpt>
      <trkpt lat="48.10117" lon="-1.38968">
        <ele>47</ele>
        <time>2010-07-29T08:20:12Z</time>
      </trkpt>
      <trkpt lat="48.10111" lon="-1.38993">
        <ele>49</ele>
        <time>2010-07-29T08:20:17Z</time>
      </trkpt>
      <trkpt lat="48.1011" lon="-1.39003">
        <ele>49</ele>
        <time>2010-07-29T08:20:19Z</time>
      </trkpt>
      <trkpt lat="48.10109" lon="-1.39014">
        <ele>49</ele>
        <time>2010-07-29T08:20:21Z</time>
      </trkpt>
      <trkpt lat="48.10109" lon="-1.39025">
        <ele>49</ele>
        <time>2010-07-29T08:20:23Z</time>
      </trkpt>
      <trkpt lat="48.10109" lon="-1.39036">
        <ele>49</ele>
        <time>2010-07-29T08:20:25Z</time>
      </trkpt>
      <trkpt lat="48.10107" lon="-1.39059">
        <ele>49</ele>
        <time>2010-07-29T08:20:29Z</time>
      </trkpt>
      <trkpt lat="48.10103" lon="-1.39087">
        <ele>51</ele>
        <time>2010-07-29T08:20:35Z</time>
      </trkpt>
      <trkpt lat="48.10105" lon="-1.39098">
        <ele>50</ele>
        <time>2010-07-29T08:20:38Z</time>
      </trkpt>
      <trkpt lat="48.10107" lon="-1.39108">
        <ele>50</ele>
        <time>2010-07-29T08:20:39Z</time>
      </trkpt>
      <trkpt lat="48.10112" lon="-1.3912">
        <ele>49</ele>
        <time>2010-07-29T08:20:41Z</time>
      </trkpt>
      <trkpt lat="48.10116" lon="-1.39134">
        <ele>48</ele>
        <time>2010-07-29T08:20:44Z</time>
      </trkpt>
      <trkpt lat="48.10119" lon="-1.39147">
        <ele>48</ele>
        <time>2010-07-29T08:20:45Z</time>
      </trkpt>
      <trkpt lat="48.10124" lon="-1.39168">
        <ele>48</ele>
        <time>2010-07-29T08:20:48Z</time>
      </trkpt>
      <trkpt lat="48.10126" lon="-1.39176">
        <ele>48</ele>
        <time>2010-07-29T08:20:49Z</time>
      </trkpt>
      <trkpt lat="48.10127" lon="-1.39185">
        <ele>48</ele>
        <time>2010-07-29T08:20:50Z</time>
      </trkpt>
      <trkpt lat="48.10127" lon="-1.39199">
        <ele>48</ele>
        <time>2010-07-29T08:20:52Z</time>
      </trkpt>
      <trkpt lat="48.10127" lon="-1.39206">
        <ele>48</ele>
        <time>2010-07-29T08:20:53Z</time>
      </trkpt>
      <trkpt lat="48.10128" lon="-1.39213">
        <ele>48</ele>
        <time>2010-07-29T08:20:54Z</time>
      </trkpt>
      <trkpt lat="48.10131" lon="-1.39226">
        <ele>48</ele>
        <time>2010-07-29T08:20:56Z</time>
      </trkpt>
      <trkpt lat="48.10132" lon="-1.39232">
        <ele>48</ele>
        <time>2010-07-29T08:20:57Z</time>
      </trkpt>
      <trkpt lat="48.10133" lon="-1.39247">
        <ele>48</ele>
        <time>2010-07-29T08:20:59Z</time>
      </trkpt>
      <trkpt lat="48.10136" lon="-1.39291">
        <ele>49</ele>
        <time>2010-07-29T08:21:05Z</time>
      </trkpt>
      <trkpt lat="48.1014" lon="-1.39315">
        <ele>48</ele>
        <time>2010-07-29T08:21:08Z</time>
      </trkpt>
      <trkpt lat="48.10141" lon="-1.39323">
        <ele>47</ele>
        <time>2010-07-29T08:21:09Z</time>
      </trkpt>
      <trkpt lat="48.10143" lon="-1.39331">
        <ele>47</ele>
        <time>2010-07-29T08:21:10Z</time>
      </trkpt>
      <trkpt lat="48.10147" lon="-1.39345">
        <ele>46</ele>
        <time>2010-07-29T08:21:12Z</time>
      </trkpt>
      <trkpt lat="48.10148" lon="-1.39351">
        <ele>45</ele>
        <time>2010-07-29T08:21:13Z</time>
      </trkpt>
      <trkpt lat="48.1015" lon="-1.39359">
        <ele>45</ele>
        <time>2010-07-29T08:21:14Z</time>
      </trkpt>
      <trkpt lat="48.10153" lon="-1.39376">
        <ele>44</ele>
        <time>2010-07-29T08:21:16Z</time>
      </trkpt>
      <trkpt lat="48.10155" lon="-1.39389">
        <ele>44</ele>
        <time>2010-07-29T08:21:18Z</time>
      </trkpt>
      <trkpt lat="48.10151" lon="-1.39417">
        <ele>45</ele>
        <time>2010-07-29T08:21:22Z</time>
      </trkpt>
      <trkpt lat="48.10155" lon="-1.39428">
        <ele>45</ele>
        <time>2010-07-29T08:21:25Z</time>
      </trkpt>
      <trkpt lat="48.1016" lon="-1.39441">
        <ele>46</ele>
        <time>2010-07-29T08:21:30Z</time>
      </trkpt>
      <trkpt lat="48.10161" lon="-1.39446">
        <ele>46</ele>
        <time>2010-07-29T08:21:31Z</time>
      </trkpt>
      <trkpt lat="48.10167" lon="-1.39467">
        <ele>47</ele>
        <time>2010-07-29T08:21:35Z</time>
      </trkpt>
      <trkpt lat="48.1017" lon="-1.39487">
        <ele>48</ele>
        <time>2010-07-29T08:21:40Z</time>
      </trkpt>
      <trkpt lat="48.1017" lon="-1.39491">
        <ele>49</ele>
        <time>2010-07-29T08:21:41Z</time>
      </trkpt>
      <trkpt lat="48.10171" lon="-1.39498">
        <ele>49</ele>
        <time>2010-07-29T08:21:43Z</time>
      </trkpt>
      <trkpt lat="48.10172" lon="-1.39508">
        <ele>50</ele>
        <time>2010-07-29T08:21:45Z</time>
      </trkpt>
      <trkpt lat="48.10174" lon="-1.39513">
        <ele>50</ele>
        <time>2010-07-29T08:21:46Z</time>
      </trkpt>
      <trkpt lat="48.10175" lon="-1.39516">
        <ele>51</ele>
        <time>2010-07-29T08:21:47Z</time>
      </trkpt>
      <trkpt lat="48.10177" lon="-1.39519">
        <ele>51</ele>
        <time>2010-07-29T08:21:48Z</time>
      </trkpt>
      <trkpt lat="48.10179" lon="-1.39522">
        <ele>51</ele>
        <time>2010-07-29T08:21:50Z</time>
      </trkpt>
      <trkpt lat="48.10178" lon="-1.39525">
        <ele>51</ele>
        <time>2010-07-29T08:21:52Z</time>
      </trkpt>
      <trkpt lat="48.10177" lon="-1.39525">
        <ele>51</ele>
        <time>2010-07-29T08:21:57Z</time>
      </trkpt>
      <trkpt lat="48.10178" lon="-1.39524">
        <ele>51</ele>
        <time>2010-07-29T08:21:58Z</time>
      </trkpt>
      <trkpt lat="48.10183" lon="-1.39524">
        <ele>51</ele>
        <time>2010-07-29T08:22:01Z</time>
      </trkpt>
      <trkpt lat="48.10188" lon="-1.39526">
        <ele>52</ele>
        <time>2010-07-29T08:22:03Z</time>
      </trkpt>
      <trkpt lat="48.1021" lon="-1.39517">
        <ele>51</ele>
        <time>2010-07-29T08:22:10Z</time>
      </trkpt>
      <trkpt lat="48.10228" lon="-1.3951">
        <ele>51</ele>
        <time>2010-07-29T08:22:15Z</time>
      </trkpt>
      <trkpt lat="48.10235" lon="-1.39509">
        <ele>51</ele>
        <time>2010-07-29T08:22:17Z</time>
      </trkpt>
      <trkpt lat="48.10251" lon="-1.39519">
        <ele>51</ele>
        <time>2010-07-29T08:22:21Z</time>
      </trkpt>
      <trkpt lat="48.10253" lon="-1.39524">
        <ele>51</ele>
        <time>2010-07-29T08:22:22Z</time>
      </trkpt>
      <trkpt lat="48.10259" lon="-1.39555">
        <ele>53</ele>
        <time>2010-07-29T08:22:29Z</time>
      </trkpt>
      <trkpt lat="48.10262" lon="-1.39565">
        <ele>54</ele>
        <time>2010-07-29T08:22:32Z</time>
      </trkpt>
      <trkpt lat="48.10264" lon="-1.39572">
        <ele>54</ele>
        <time>2010-07-29T08:22:34Z</time>
      </trkpt>
      <trkpt lat="48.10266" lon="-1.39579">
        <ele>54</ele>
        <time>2010-07-29T08:22:36Z</time>
      </trkpt>
      <trkpt lat="48.10266" lon="-1.39583">
        <ele>54</ele>
        <time>2010-07-29T08:22:37Z</time>
      </trkpt>
      <trkpt lat="48.10266" lon="-1.39587">
        <ele>55</ele>
        <time>2010-07-29T08:22:38Z</time>
      </trkpt>
      <trkpt lat="48.10264" lon="-1.39598">
        <ele>55</ele>
        <time>2010-07-29T08:22:40Z</time>
      </trkpt>
      <trkpt lat="48.10263" lon="-1.3961">
        <ele>55</ele>
        <time>2010-07-29T08:22:42Z</time>
      </trkpt>
      <trkpt lat="48.10263" lon="-1.39621">
        <ele>56</ele>
        <time>2010-07-29T08:22:44Z</time>
      </trkpt>
      <trkpt lat="48.10263" lon="-1.39633">
        <ele>56</ele>
        <time>2010-07-29T08:22:46Z</time>
      </trkpt>
      <trkpt lat="48.10264" lon="-1.39645">
        <ele>56</ele>
        <time>2010-07-29T08:22:48Z</time>
      </trkpt>
      <trkpt lat="48.10268" lon="-1.3967">
        <ele>56</ele>
        <time>2010-07-29T08:22:53Z</time>
      </trkpt>
      <trkpt lat="48.1027" lon="-1.3968">
        <ele>57</ele>
        <time>2010-07-29T08:22:55Z</time>
      </trkpt>
      <trkpt lat="48.10272" lon="-1.39691">
        <ele>57</ele>
        <time>2010-07-29T08:22:57Z</time>
      </trkpt>
      <trkpt lat="48.10274" lon="-1.39701">
        <ele>57</ele>
        <time>2010-07-29T08:22:59Z</time>
      </trkpt>
      <trkpt lat="48.10276" lon="-1.39711">
        <ele>57</ele>
        <time>2010-07-29T08:23:01Z</time>
      </trkpt>
      <trkpt lat="48.10281" lon="-1.39732">
        <ele>57</ele>
        <time>2010-07-29T08:23:05Z</time>
      </trkpt>
      <trkpt lat="48.10287" lon="-1.39759">
        <ele>57</ele>
        <time>2010-07-29T08:23:09Z</time>
      </trkpt>
      <trkpt lat="48.10291" lon="-1.39774">
        <ele>57</ele>
        <time>2010-07-29T08:23:11Z</time>
      </trkpt>
      <trkpt lat="48.10293" lon="-1.39782">
        <ele>57</ele>
        <time>2010-07-29T08:23:12Z</time>
      </trkpt>
      <trkpt lat="48.10297" lon="-1.39804">
        <ele>57</ele>
        <time>2010-07-29T08:23:15Z</time>
      </trkpt>
      <trkpt lat="48.10299" lon="-1.39819">
        <ele>58</ele>
        <time>2010-07-29T08:23:17Z</time>
      </trkpt>
      <trkpt lat="48.10305" lon="-1.39874">
        <ele>58</ele>
        <time>2010-07-29T08:23:24Z</time>
      </trkpt>
      <trkpt lat="48.10313" lon="-1.39894">
        <ele>59</ele>
        <time>2010-07-29T08:23:28Z</time>
      </trkpt>
      <trkpt lat="48.1032" lon="-1.39896">
        <ele>59</ele>
        <time>2010-07-29T08:23:30Z</time>
      </trkpt>
      <trkpt lat="48.10353" lon="-1.39899">
        <ele>59</ele>
        <time>2010-07-29T08:23:38Z</time>
      </trkpt>
      <trkpt lat="48.10392" lon="-1.39901">
        <ele>58</ele>
        <time>2010-07-29T08:23:47Z</time>
      </trkpt>
      <trkpt lat="48.10405" lon="-1.399">
        <ele>58</ele>
        <time>2010-07-29T08:23:50Z</time>
      </trkpt>
      <trkpt lat="48.10418" lon="-1.39896">
        <ele>57</ele>
        <time>2010-07-29T08:23:54Z</time>
      </trkpt>
      <trkpt lat="48.10419" lon="-1.39896">
        <ele>57</ele>
        <time>2010-07-29T08:23:55Z</time>
      </trkpt>
      <trkpt lat="48.10416" lon="-1.39896">
        <ele>57</ele>
        <time>2010-07-29T08:24:46Z</time>
      </trkpt>
      <trkpt lat="48.10418" lon="-1.39897">
        <ele>57</ele>
        <time>2010-07-29T08:24:47Z</time>
      </trkpt>
      <trkpt lat="48.10429" lon="-1.39899">
        <ele>57</ele>
        <time>2010-07-29T08:24:51Z</time>
      </trkpt>
      <trkpt lat="48.10433" lon="-1.399">
        <ele>57</ele>
        <time>2010-07-29T08:24:52Z</time>
      </trkpt>
      <trkpt lat="48.10454" lon="-1.39904">
        <ele>57</ele>
        <time>2010-07-29T08:24:56Z</time>
      </trkpt>
      <trkpt lat="48.10467" lon="-1.39903">
        <ele>56</ele>
        <time>2010-07-29T08:24:59Z</time>
      </trkpt>
      <trkpt lat="48.10478" lon="-1.39902">
        <ele>56</ele>
        <time>2010-07-29T08:25:00Z</time>
      </trkpt>
      <trkpt lat="48.10489" lon="-1.39902">
        <ele>56</ele>
        <time>2010-07-29T08:25:02Z</time>
      </trkpt>
      <trkpt lat="48.10499" lon="-1.39902">
        <ele>56</ele>
        <time>2010-07-29T08:25:04Z</time>
      </trkpt>
      <trkpt lat="48.10504" lon="-1.39901">
        <ele>56</ele>
        <time>2010-07-29T08:25:05Z</time>
      </trkpt>
      <trkpt lat="48.10509" lon="-1.39901">
        <ele>55</ele>
        <time>2010-07-29T08:25:06Z</time>
      </trkpt>
      <trkpt lat="48.1052" lon="-1.39902">
        <ele>55</ele>
        <time>2010-07-29T08:25:08Z</time>
      </trkpt>
      <trkpt lat="48.10532" lon="-1.39903">
        <ele>55</ele>
        <time>2010-07-29T08:25:10Z</time>
      </trkpt>
      <trkpt lat="48.10546" lon="-1.39904">
        <ele>54</ele>
        <time>2010-07-29T08:25:12Z</time>
      </trkpt>
      <trkpt lat="48.1056" lon="-1.39907">
        <ele>54</ele>
        <time>2010-07-29T08:25:14Z</time>
      </trkpt>
      <trkpt lat="48.10566" lon="-1.39908">
        <ele>53</ele>
        <time>2010-07-29T08:25:15Z</time>
      </trkpt>
      <trkpt lat="48.10584" lon="-1.39918">
        <ele>53</ele>
        <time>2010-07-29T08:25:18Z</time>
      </trkpt>
      <trkpt lat="48.10594" lon="-1.3993">
        <ele>52</ele>
        <time>2010-07-29T08:25:20Z</time>
      </trkpt>
      <trkpt lat="48.106" lon="-1.39938">
        <ele>51</ele>
        <time>2010-07-29T08:25:21Z</time>
      </trkpt>
      <trkpt lat="48.10614" lon="-1.39963">
        <ele>50</ele>
        <time>2010-07-29T08:25:24Z</time>
      </trkpt>
      <trkpt lat="48.10616" lon="-1.39972">
        <ele>50</ele>
        <time>2010-07-29T08:25:25Z</time>
      </trkpt>
      <trkpt lat="48.10618" lon="-1.40001">
        <ele>51</ele>
        <time>2010-07-29T08:25:28Z</time>
      </trkpt>
      <trkpt lat="48.10614" lon="-1.40079">
        <ele>51</ele>
        <time>2010-07-29T08:25:36Z</time>
      </trkpt>
      <trkpt lat="48.10612" lon="-1.40158">
        <ele>50</ele>
        <time>2010-07-29T08:25:45Z</time>
      </trkpt>
      <trkpt lat="48.10608" lon="-1.40202">
        <ele>51</ele>
        <time>2010-07-29T08:25:51Z</time>
      </trkpt>
      <trkpt lat="48.10608" lon="-1.4021">
        <ele>50</ele>
        <time>2010-07-29T08:25:54Z</time>
      </trkpt>
      <trkpt lat="48.10608" lon="-1.4021">
        <ele>50</ele>
        <time>2010-07-29T08:25:56Z</time>
      </trkpt>
      <trkpt lat="48.10608" lon="-1.40212">
        <ele>50</ele>
        <time>2010-07-29T08:25:58Z</time>
      </trkpt>
      <trkpt lat="48.10615" lon="-1.40232">
        <ele>50</ele>
        <time>2010-07-29T08:26:01Z</time>
      </trkpt>
      <trkpt lat="48.10617" lon="-1.40239">
        <ele>50</ele>
        <time>2010-07-29T08:26:02Z</time>
      </trkpt>
      <trkpt lat="48.10619" lon="-1.40248">
        <ele>49</ele>
        <time>2010-07-29T08:26:03Z</time>
      </trkpt>
      <trkpt lat="48.1062" lon="-1.40266">
        <ele>49</ele>
        <time>2010-07-29T08:26:05Z</time>
      </trkpt>
      <trkpt lat="48.10621" lon="-1.40275">
        <ele>49</ele>
        <time>2010-07-29T08:26:06Z</time>
      </trkpt>
      <trkpt lat="48.10619" lon="-1.403">
        <ele>48</ele>
        <time>2010-07-29T08:26:09Z</time>
      </trkpt>
      <trkpt lat="48.10617" lon="-1.40308">
        <ele>48</ele>
        <time>2010-07-29T08:26:10Z</time>
      </trkpt>
      <trkpt lat="48.10621" lon="-1.40326">
        <ele>47</ele>
        <time>2010-07-29T08:26:13Z</time>
      </trkpt>
      <trkpt lat="48.10633" lon="-1.40332">
        <ele>47</ele>
        <time>2010-07-29T08:26:16Z</time>
      </trkpt>
      <trkpt lat="48.10638" lon="-1.40332">
        <ele>47</ele>
        <time>2010-07-29T08:26:18Z</time>
      </trkpt>
      <trkpt lat="48.10654" lon="-1.40336">
        <ele>46</ele>
        <time>2010-07-29T08:26:24Z</time>
      </trkpt>
      <trkpt lat="48.10657" lon="-1.40334">
        <ele>46</ele>
        <time>2010-07-29T08:26:25Z</time>
      </trkpt>
      <trkpt lat="48.1066" lon="-1.40309">
        <ele>47</ele>
        <time>2010-07-29T08:26:29Z</time>
      </trkpt>
      <trkpt lat="48.10661" lon="-1.40292">
        <ele>47</ele>
        <time>2010-07-29T08:26:31Z</time>
      </trkpt>
      <trkpt lat="48.10662" lon="-1.40279">
        <ele>47</ele>
        <time>2010-07-29T08:26:33Z</time>
      </trkpt>
      <trkpt lat="48.10664" lon="-1.40276">
        <ele>47</ele>
        <time>2010-07-29T08:26:34Z</time>
      </trkpt>
      <trkpt lat="48.10666" lon="-1.40275">
        <ele>47</ele>
        <time>2010-07-29T08:26:35Z</time>
      </trkpt>
      <trkpt lat="48.10674" lon="-1.40277">
        <ele>47</ele>
        <time>2010-07-29T08:26:37Z</time>
      </trkpt>
      <trkpt lat="48.1068" lon="-1.40277">
        <ele>47</ele>
        <time>2010-07-29T08:26:38Z</time>
      </trkpt>
      <trkpt lat="48.10685" lon="-1.40278">
        <ele>46</ele>
        <time>2010-07-29T08:26:39Z</time>
      </trkpt>
      <trkpt lat="48.10691" lon="-1.4028">
        <ele>46</ele>
        <time>2010-07-29T08:26:40Z</time>
      </trkpt>
      <trkpt lat="48.10701" lon="-1.40289">
        <ele>46</ele>
        <time>2010-07-29T08:26:42Z</time>
      </trkpt>
      <trkpt lat="48.10707" lon="-1.40296">
        <ele>46</ele>
        <time>2010-07-29T08:26:43Z</time>
      </trkpt>
      <trkpt lat="48.10714" lon="-1.40302">
        <ele>45</ele>
        <time>2010-07-29T08:26:44Z</time>
      </trkpt>
      <trkpt lat="48.1073" lon="-1.40311">
        <ele>44</ele>
        <time>2010-07-29T08:26:46Z</time>
      </trkpt>
      <trkpt lat="48.10738" lon="-1.40313">
        <ele>44</ele>
        <time>2010-07-29T08:26:47Z</time>
      </trkpt>
      <trkpt lat="48.1076" lon="-1.40323">
        <ele>43</ele>
        <time>2010-07-29T08:26:50Z</time>
      </trkpt>
      <trkpt lat="48.10767" lon="-1.40334">
        <ele>42</ele>
        <time>2010-07-29T08:26:52Z</time>
      </trkpt>
      <trkpt lat="48.10768" lon="-1.40339">
        <ele>42</ele>
        <time>2010-07-29T08:26:53Z</time>
      </trkpt>
      <trkpt lat="48.10768" lon="-1.40344">
        <ele>42</ele>
        <time>2010-07-29T08:26:54Z</time>
      </trkpt>
      <trkpt lat="48.10768" lon="-1.40351">
        <ele>42</ele>
        <time>2010-07-29T08:26:56Z</time>
      </trkpt>
      <trkpt lat="48.1077" lon="-1.40357">
        <ele>42</ele>
        <time>2010-07-29T08:26:58Z</time>
      </trkpt>
      <trkpt lat="48.10771" lon="-1.40363">
        <ele>42</ele>
        <time>2010-07-29T08:27:00Z</time>
      </trkpt>
      <trkpt lat="48.10786" lon="-1.40375">
        <ele>41</ele>
        <time>2010-07-29T08:27:06Z</time>
      </trkpt>
      <trkpt lat="48.10795" lon="-1.40389">
        <ele>40</ele>
        <time>2010-07-29T08:27:10Z</time>
      </trkpt>
      <trkpt lat="48.10793" lon="-1.40409">
        <ele>40</ele>
        <time>2010-07-29T08:27:14Z</time>
      </trkpt>
      <trkpt lat="48.10802" lon="-1.40416">
        <ele>40</ele>
        <time>2010-07-29T08:27:18Z</time>
      </trkpt>
      <trkpt lat="48.10829" lon="-1.40417">
        <ele>40</ele>
        <time>2010-07-29T08:27:26Z</time>
      </trkpt>
      <trkpt lat="48.10855" lon="-1.40418">
        <ele>41</ele>
        <time>2010-07-29T08:27:33Z</time>
      </trkpt>
      <trkpt lat="48.10857" lon="-1.40419">
        <ele>42</ele>
        <time>2010-07-29T08:27:34Z</time>
      </trkpt>
      <trkpt lat="48.10858" lon="-1.40438">
        <ele>42</ele>
        <time>2010-07-29T08:27:38Z</time>
      </trkpt>
      <trkpt lat="48.10856" lon="-1.40445">
        <ele>42</ele>
        <time>2010-07-29T08:27:39Z</time>
      </trkpt>
      <trkpt lat="48.10854" lon="-1.40452">
        <ele>42</ele>
        <time>2010-07-29T08:27:40Z</time>
      </trkpt>
      <trkpt lat="48.10844" lon="-1.40495">
        <ele>42</ele>
        <time>2010-07-29T08:27:47Z</time>
      </trkpt>
      <trkpt lat="48.10843" lon="-1.40505">
        <ele>42</ele>
        <time>2010-07-29T08:27:49Z</time>
      </trkpt>
      <trkpt lat="48.10854" lon="-1.40515">
        <ele>43</ele>
        <time>2010-07-29T08:27:53Z</time>
      </trkpt>
      <trkpt lat="48.10873" lon="-1.40519">
        <ele>45</ele>
        <time>2010-07-29T08:27:58Z</time>
      </trkpt>
      <trkpt lat="48.10877" lon="-1.40519">
        <ele>46</ele>
        <time>2010-07-29T08:27:59Z</time>
      </trkpt>
      <trkpt lat="48.10902" lon="-1.40522">
        <ele>48</ele>
        <time>2010-07-29T08:28:06Z</time>
      </trkpt>
      <trkpt lat="48.10905" lon="-1.40522">
        <ele>49</ele>
        <time>2010-07-29T08:28:08Z</time>
      </trkpt>
      <trkpt lat="48.10912" lon="-1.40521">
        <ele>49</ele>
        <time>2010-07-29T08:28:09Z</time>
      </trkpt>
      <trkpt lat="48.10918" lon="-1.40522">
        <ele>50</ele>
        <time>2010-07-29T08:28:11Z</time>
      </trkpt>
      <trkpt lat="48.10923" lon="-1.40524">
        <ele>51</ele>
        <time>2010-07-29T08:28:14Z</time>
      </trkpt>
      <trkpt lat="48.1093" lon="-1.40524">
        <ele>51</ele>
        <time>2010-07-29T08:28:15Z</time>
      </trkpt>
      <trkpt lat="48.10936" lon="-1.40525">
        <ele>52</ele>
        <time>2010-07-29T08:28:17Z</time>
      </trkpt>
      <trkpt lat="48.10942" lon="-1.40527">
        <ele>53</ele>
        <time>2010-07-29T08:28:19Z</time>
      </trkpt>
      <trkpt lat="48.10945" lon="-1.40528">
        <ele>53</ele>
        <time>2010-07-29T08:28:21Z</time>
      </trkpt>
      <trkpt lat="48.10951" lon="-1.40531">
        <ele>53</ele>
        <time>2010-07-29T08:28:22Z</time>
      </trkpt>
      <trkpt lat="48.10957" lon="-1.40534">
        <ele>54</ele>
        <time>2010-07-29T08:28:25Z</time>
      </trkpt>
      <trkpt lat="48.10961" lon="-1.40535">
        <ele>54</ele>
        <time>2010-07-29T08:28:26Z</time>
      </trkpt>
      <trkpt lat="48.10967" lon="-1.40537">
        <ele>55</ele>
        <time>2010-07-29T08:28:28Z</time>
      </trkpt>
      <trkpt lat="48.10973" lon="-1.40541">
        <ele>56</ele>
        <time>2010-07-29T08:28:31Z</time>
      </trkpt>
      <trkpt lat="48.10976" lon="-1.40544">
        <ele>56</ele>
        <time>2010-07-29T08:28:32Z</time>
      </trkpt>
      <trkpt lat="48.10982" lon="-1.40547">
        <ele>56</ele>
        <time>2010-07-29T08:28:33Z</time>
      </trkpt>
      <trkpt lat="48.10987" lon="-1.4055">
        <ele>56</ele>
        <time>2010-07-29T08:28:35Z</time>
      </trkpt>
      <trkpt lat="48.10992" lon="-1.40554">
        <ele>57</ele>
        <time>2010-07-29T08:28:37Z</time>
      </trkpt>
      <trkpt lat="48.10997" lon="-1.40556">
        <ele>57</ele>
        <time>2010-07-29T08:28:39Z</time>
      </trkpt>
      <trkpt lat="48.11002" lon="-1.40559">
        <ele>57</ele>
        <time>2010-07-29T08:28:41Z</time>
      </trkpt>
      <trkpt lat="48.11007" lon="-1.40561">
        <ele>58</ele>
        <time>2010-07-29T08:28:43Z</time>
      </trkpt>
      <trkpt lat="48.11013" lon="-1.40562">
        <ele>58</ele>
        <time>2010-07-29T08:28:45Z</time>
      </trkpt>
      <trkpt lat="48.11019" lon="-1.40564">
        <ele>58</ele>
        <time>2010-07-29T08:28:47Z</time>
      </trkpt>
      <trkpt lat="48.11033" lon="-1.40569">
        <ele>59</ele>
        <time>2010-07-29T08:28:53Z</time>
      </trkpt>
      <trkpt lat="48.11053" lon="-1.40574">
        <ele>60</ele>
        <time>2010-07-29T08:28:58Z</time>
      </trkpt>
      <trkpt lat="48.11059" lon="-1.40575">
        <ele>60</ele>
        <time>2010-07-29T08:29:01Z</time>
      </trkpt>
      <trkpt lat="48.11064" lon="-1.40576">
        <ele>60</ele>
        <time>2010-07-29T08:29:02Z</time>
      </trkpt>
      <trkpt lat="48.11068" lon="-1.40578">
        <ele>61</ele>
        <time>2010-07-29T08:29:05Z</time>
      </trkpt>
      <trkpt lat="48.11074" lon="-1.40578">
        <ele>61</ele>
        <time>2010-07-29T08:29:06Z</time>
      </trkpt>
      <trkpt lat="48.11081" lon="-1.40578">
        <ele>61</ele>
        <time>2010-07-29T08:29:08Z</time>
      </trkpt>
      <trkpt lat="48.11087" lon="-1.40578">
        <ele>62</ele>
        <time>2010-07-29T08:29:10Z</time>
      </trkpt>
      <trkpt lat="48.11092" lon="-1.40578">
        <ele>62</ele>
        <time>2010-07-29T08:29:12Z</time>
      </trkpt>
      <trkpt lat="48.11098" lon="-1.40578">
        <ele>63</ele>
        <time>2010-07-29T08:29:14Z</time>
      </trkpt>
      <trkpt lat="48.11103" lon="-1.40579">
        <ele>63</ele>
        <time>2010-07-29T08:29:17Z</time>
      </trkpt>
      <trkpt lat="48.11115" lon="-1.40578">
        <ele>64</ele>
        <time>2010-07-29T08:29:20Z</time>
      </trkpt>
      <trkpt lat="48.1112" lon="-1.40576">
        <ele>64</ele>
        <time>2010-07-29T08:29:22Z</time>
      </trkpt>
      <trkpt lat="48.11126" lon="-1.40575">
        <ele>64</ele>
        <time>2010-07-29T08:29:24Z</time>
      </trkpt>
      <trkpt lat="48.11132" lon="-1.40574">
        <ele>65</ele>
        <time>2010-07-29T08:29:26Z</time>
      </trkpt>
      <trkpt lat="48.11138" lon="-1.40572">
        <ele>65</ele>
        <time>2010-07-29T08:29:29Z</time>
      </trkpt>
      <trkpt lat="48.11144" lon="-1.40571">
        <ele>66</ele>
        <time>2010-07-29T08:29:31Z</time>
      </trkpt>
      <trkpt lat="48.11149" lon="-1.40571">
        <ele>66</ele>
        <time>2010-07-29T08:29:33Z</time>
      </trkpt>
      <trkpt lat="48.11153" lon="-1.4057">
        <ele>66</ele>
        <time>2010-07-29T08:29:35Z</time>
      </trkpt>
      <trkpt lat="48.11159" lon="-1.40569">
        <ele>66</ele>
        <time>2010-07-29T08:29:36Z</time>
      </trkpt>
      <trkpt lat="48.11172" lon="-1.40564">
        <ele>66</ele>
        <time>2010-07-29T08:29:42Z</time>
      </trkpt>
      <trkpt lat="48.11174" lon="-1.40565">
        <ele>66</ele>
        <time>2010-07-29T08:29:43Z</time>
      </trkpt>
      <trkpt lat="48.11179" lon="-1.40567">
        <ele>67</ele>
        <time>2010-07-29T08:29:44Z</time>
      </trkpt>
      <trkpt lat="48.11181" lon="-1.40568">
        <ele>67</ele>
        <time>2010-07-29T08:29:45Z</time>
      </trkpt>
      <trkpt lat="48.11187" lon="-1.40567">
        <ele>67</ele>
        <time>2010-07-29T08:29:48Z</time>
      </trkpt>
      <trkpt lat="48.1119" lon="-1.40567">
        <ele>67</ele>
        <time>2010-07-29T08:29:50Z</time>
      </trkpt>
      <trkpt lat="48.11205" lon="-1.40564">
        <ele>66</ele>
        <time>2010-07-29T08:29:55Z</time>
      </trkpt>
      <trkpt lat="48.11223" lon="-1.40552">
        <ele>64</ele>
        <time>2010-07-29T08:30:00Z</time>
      </trkpt>
      <trkpt lat="48.11228" lon="-1.40548">
        <ele>64</ele>
        <time>2010-07-29T08:30:02Z</time>
      </trkpt>
      <trkpt lat="48.11245" lon="-1.40536">
        <ele>62</ele>
        <time>2010-07-29T08:30:06Z</time>
      </trkpt>
      <trkpt lat="48.11246" lon="-1.40535">
        <ele>62</ele>
        <time>2010-07-29T08:30:07Z</time>
      </trkpt>
      <trkpt lat="48.11247" lon="-1.40533">
        <ele>62</ele>
        <time>2010-07-29T08:30:08Z</time>
      </trkpt>
      <trkpt lat="48.11248" lon="-1.40532">
        <ele>62</ele>
        <time>2010-07-29T08:30:09Z</time>
      </trkpt>
      <trkpt lat="48.11256" lon="-1.40524">
        <ele>60</ele>
        <time>2010-07-29T08:30:12Z</time>
      </trkpt>
      <trkpt lat="48.1126" lon="-1.40519">
        <ele>60</ele>
        <time>2010-07-29T08:30:13Z</time>
      </trkpt>
      <trkpt lat="48.11275" lon="-1.40511">
        <ele>58</ele>
        <time>2010-07-29T08:30:15Z</time>
      </trkpt>
      <trkpt lat="48.11285" lon="-1.40509">
        <ele>56</ele>
        <time>2010-07-29T08:30:16Z</time>
      </trkpt>
      <trkpt lat="48.11301" lon="-1.40507">
        <ele>55</ele>
        <time>2010-07-29T08:30:18Z</time>
      </trkpt>
      <trkpt lat="48.11306" lon="-1.40506">
        <ele>54</ele>
        <time>2010-07-29T08:30:19Z</time>
      </trkpt>
      <trkpt lat="48.11312" lon="-1.40502">
        <ele>54</ele>
        <time>2010-07-29T08:30:21Z</time>
      </trkpt>
      <trkpt lat="48.11314" lon="-1.40502">
        <ele>54</ele>
        <time>2010-07-29T08:30:23Z</time>
      </trkpt>
      <trkpt lat="48.11318" lon="-1.40502">
        <ele>54</ele>
        <time>2010-07-29T08:30:25Z</time>
      </trkpt>
      <trkpt lat="48.11322" lon="-1.40502">
        <ele>54</ele>
        <time>2010-07-29T08:30:27Z</time>
      </trkpt>
      <trkpt lat="48.11327" lon="-1.40502">
        <ele>53</ele>
        <time>2010-07-29T08:30:29Z</time>
      </trkpt>
      <trkpt lat="48.11333" lon="-1.40501">
        <ele>53</ele>
        <time>2010-07-29T08:30:32Z</time>
      </trkpt>
      <trkpt lat="48.11349" lon="-1.40499">
        <ele>54</ele>
        <time>2010-07-29T08:30:38Z</time>
      </trkpt>
      <trkpt lat="48.11354" lon="-1.40497">
        <ele>54</ele>
        <time>2010-07-29T08:30:40Z</time>
      </trkpt>
      <trkpt lat="48.11371" lon="-1.40489">
        <ele>56</ele>
        <time>2010-07-29T08:30:46Z</time>
      </trkpt>
      <trkpt lat="48.11374" lon="-1.4049">
        <ele>56</ele>
        <time>2010-07-29T08:30:47Z</time>
      </trkpt>
      <trkpt lat="48.11376" lon="-1.40489">
        <ele>56</ele>
        <time>2010-07-29T08:30:48Z</time>
      </trkpt>
      <trkpt lat="48.11381" lon="-1.40492">
        <ele>56</ele>
        <time>2010-07-29T08:30:51Z</time>
      </trkpt>
      <trkpt lat="48.11383" lon="-1.40494">
        <ele>56</ele>
        <time>2010-07-29T08:30:53Z</time>
      </trkpt>
      <trkpt lat="48.11385" lon="-1.40496">
        <ele>56</ele>
        <time>2010-07-29T08:30:55Z</time>
      </trkpt>
      <trkpt lat="48.1139" lon="-1.40502">
        <ele>55</ele>
        <time>2010-07-29T08:30:57Z</time>
      </trkpt>
      <trkpt lat="48.11392" lon="-1.40507">
        <ele>54</ele>
        <time>2010-07-29T08:30:58Z</time>
      </trkpt>
      <trkpt lat="48.11395" lon="-1.40516">
        <ele>53</ele>
        <time>2010-07-29T08:31:00Z</time>
      </trkpt>
      <trkpt lat="48.11397" lon="-1.4052">
        <ele>52</ele>
        <time>2010-07-29T08:31:02Z</time>
      </trkpt>
      <trkpt lat="48.11398" lon="-1.40522">
        <ele>52</ele>
        <time>2010-07-29T08:31:03Z</time>
      </trkpt>
      <trkpt lat="48.11399" lon="-1.40525">
        <ele>51</ele>
        <time>2010-07-29T08:31:04Z</time>
      </trkpt>
      <trkpt lat="48.11399" lon="-1.40534">
        <ele>51</ele>
        <time>2010-07-29T08:31:07Z</time>
      </trkpt>
      <trkpt lat="48.114" lon="-1.40541">
        <ele>51</ele>
        <time>2010-07-29T08:31:08Z</time>
      </trkpt>
      <trkpt lat="48.11401" lon="-1.40545">
        <ele>51</ele>
        <time>2010-07-29T08:31:10Z</time>
      </trkpt>
      <trkpt lat="48.11402" lon="-1.40546">
        <ele>51</ele>
        <time>2010-07-29T08:31:13Z</time>
      </trkpt>
      <trkpt lat="48.11401" lon="-1.40546">
        <ele>51</ele>
        <time>2010-07-29T08:31:14Z</time>
      </trkpt>
      <trkpt lat="48.11402" lon="-1.40548">
        <ele>51</ele>
        <time>2010-07-29T08:32:28Z</time>
      </trkpt>
      <trkpt lat="48.11403" lon="-1.40547">
        <ele>51</ele>
        <time>2010-07-29T08:32:30Z</time>
      </trkpt>
      <trkpt lat="48.11404" lon="-1.40548">
        <ele>51</ele>
        <time>2010-07-29T08:32:31Z</time>
      </trkpt>
      <trkpt lat="48.11407" lon="-1.40549">
        <ele>51</ele>
        <time>2010-07-29T08:32:32Z</time>
      </trkpt>
      <trkpt lat="48.11411" lon="-1.40553">
        <ele>51</ele>
        <time>2010-07-29T08:32:33Z</time>
      </trkpt>
      <trkpt lat="48.11414" lon="-1.40555">
        <ele>51</ele>
        <time>2010-07-29T08:32:34Z</time>
      </trkpt>
      <trkpt lat="48.1143" lon="-1.40574">
        <ele>50</ele>
        <time>2010-07-29T08:32:41Z</time>
      </trkpt>
      <trkpt lat="48.11443" lon="-1.40591">
        <ele>50</ele>
        <time>2010-07-29T08:32:47Z</time>
      </trkpt>
      <trkpt lat="48.11452" lon="-1.406">
        <ele>50</ele>
        <time>2010-07-29T08:32:52Z</time>
      </trkpt>
      <trkpt lat="48.11464" lon="-1.40609">
        <ele>50</ele>
        <time>2010-07-29T08:32:56Z</time>
      </trkpt>
      <trkpt lat="48.11479" lon="-1.40608">
        <ele>50</ele>
        <time>2010-07-29T08:33:01Z</time>
      </trkpt>
      <trkpt lat="48.11495" lon="-1.40603">
        <ele>50</ele>
        <time>2010-07-29T08:33:05Z</time>
      </trkpt>
      <trkpt lat="48.11504" lon="-1.40604">
        <ele>50</ele>
        <time>2010-07-29T08:33:08Z</time>
      </trkpt>
      <trkpt lat="48.11515" lon="-1.4059">
        <ele>50</ele>
        <time>2010-07-29T08:33:13Z</time>
      </trkpt>
      <trkpt lat="48.11512" lon="-1.40579">
        <ele>50</ele>
        <time>2010-07-29T08:33:16Z</time>
      </trkpt>
      <trkpt lat="48.11511" lon="-1.40576">
        <ele>50</ele>
        <time>2010-07-29T08:33:17Z</time>
      </trkpt>
      <trkpt lat="48.11509" lon="-1.40571">
        <ele>50</ele>
        <time>2010-07-29T08:33:19Z</time>
      </trkpt>
      <trkpt lat="48.11508" lon="-1.40569">
        <ele>50</ele>
        <time>2010-07-29T08:33:21Z</time>
      </trkpt>
      <trkpt lat="48.11507" lon="-1.40567">
        <ele>50</ele>
        <time>2010-07-29T08:33:22Z</time>
      </trkpt>
      <trkpt lat="48.11506" lon="-1.40566">
        <ele>50</ele>
        <time>2010-07-29T08:33:23Z</time>
      </trkpt>
      <trkpt lat="48.11506" lon="-1.40565">
        <ele>50</ele>
        <time>2010-07-29T08:33:24Z</time>
      </trkpt>
      <trkpt lat="48.11504" lon="-1.40561">
        <ele>50</ele>
        <time>2010-07-29T08:33:27Z</time>
      </trkpt>
      <trkpt lat="48.11502" lon="-1.40556">
        <ele>51</ele>
        <time>2010-07-29T08:33:28Z</time>
      </trkpt>
      <trkpt lat="48.11499" lon="-1.40552">
        <ele>51</ele>
        <time>2010-07-29T08:33:30Z</time>
      </trkpt>
      <trkpt lat="48.11496" lon="-1.40546">
        <ele>52</ele>
        <time>2010-07-29T08:33:33Z</time>
      </trkpt>
      <trkpt lat="48.11494" lon="-1.40544">
        <ele>52</ele>
        <time>2010-07-29T08:33:34Z</time>
      </trkpt>
      <trkpt lat="48.11491" lon="-1.40537">
        <ele>52</ele>
        <time>2010-07-29T08:33:37Z</time>
      </trkpt>
      <trkpt lat="48.1149" lon="-1.40534">
        <ele>53</ele>
        <time>2010-07-29T08:33:38Z</time>
      </trkpt>
      <trkpt lat="48.11489" lon="-1.40527">
        <ele>53</ele>
        <time>2010-07-29T08:33:41Z</time>
      </trkpt>
      <trkpt lat="48.11489" lon="-1.40525">
        <ele>53</ele>
        <time>2010-07-29T08:33:42Z</time>
      </trkpt>
      <trkpt lat="48.11489" lon="-1.40517">
        <ele>53</ele>
        <time>2010-07-29T08:33:45Z</time>
      </trkpt>
      <trkpt lat="48.1149" lon="-1.40506">
        <ele>54</ele>
        <time>2010-07-29T08:33:48Z</time>
      </trkpt>
      <trkpt lat="48.11488" lon="-1.40502">
        <ele>54</ele>
        <time>2010-07-29T08:33:50Z</time>
      </trkpt>
      <trkpt lat="48.11486" lon="-1.40499">
        <ele>55</ele>
        <time>2010-07-29T08:33:52Z</time>
      </trkpt>
      <trkpt lat="48.11484" lon="-1.40495">
        <ele>55</ele>
        <time>2010-07-29T08:33:54Z</time>
      </trkpt>
      <trkpt lat="48.11484" lon="-1.40491">
        <ele>55</ele>
        <time>2010-07-29T08:33:57Z</time>
      </trkpt>
      <trkpt lat="48.11484" lon="-1.40486">
        <ele>56</ele>
        <time>2010-07-29T08:33:58Z</time>
      </trkpt>
      <trkpt lat="48.11479" lon="-1.40475">
        <ele>57</ele>
        <time>2010-07-29T08:34:03Z</time>
      </trkpt>
      <trkpt lat="48.11475" lon="-1.40462">
        <ele>58</ele>
        <time>2010-07-29T08:34:07Z</time>
      </trkpt>
      <trkpt lat="48.11475" lon="-1.40461">
        <ele>59</ele>
        <time>2010-07-29T08:34:09Z</time>
      </trkpt>
      <trkpt lat="48.11476" lon="-1.40454">
        <ele>59</ele>
        <time>2010-07-29T08:34:11Z</time>
      </trkpt>
      <trkpt lat="48.11475" lon="-1.40449">
        <ele>59</ele>
        <time>2010-07-29T08:34:13Z</time>
      </trkpt>
      <trkpt lat="48.11475" lon="-1.40445">
        <ele>59</ele>
        <time>2010-07-29T08:34:15Z</time>
      </trkpt>
      <trkpt lat="48.11474" lon="-1.40441">
        <ele>59</ele>
        <time>2010-07-29T08:34:17Z</time>
      </trkpt>
      <trkpt lat="48.11474" lon="-1.40437">
        <ele>59</ele>
        <time>2010-07-29T08:34:19Z</time>
      </trkpt>
      <trkpt lat="48.11474" lon="-1.40428">
        <ele>59</ele>
        <time>2010-07-29T08:34:24Z</time>
      </trkpt>
      <trkpt lat="48.11473" lon="-1.4041">
        <ele>60</ele>
        <time>2010-07-29T08:34:29Z</time>
      </trkpt>
      <trkpt lat="48.11474" lon="-1.40404">
        <ele>60</ele>
        <time>2010-07-29T08:34:31Z</time>
      </trkpt>
      <trkpt lat="48.11474" lon="-1.40399">
        <ele>60</ele>
        <time>2010-07-29T08:34:33Z</time>
      </trkpt>
      <trkpt lat="48.11474" lon="-1.40393">
        <ele>60</ele>
        <time>2010-07-29T08:34:35Z</time>
      </trkpt>
      <trkpt lat="48.11474" lon="-1.40386">
        <ele>61</ele>
        <time>2010-07-29T08:34:37Z</time>
      </trkpt>
      <trkpt lat="48.11474" lon="-1.40367">
        <ele>62</ele>
        <time>2010-07-29T08:34:44Z</time>
      </trkpt>
      <trkpt lat="48.11474" lon="-1.40361">
        <ele>63</ele>
        <time>2010-07-29T08:34:46Z</time>
      </trkpt>
      <trkpt lat="48.11474" lon="-1.40355">
        <ele>64</ele>
        <time>2010-07-29T08:34:49Z</time>
      </trkpt>
      <trkpt lat="48.11473" lon="-1.40351">
        <ele>64</ele>
        <time>2010-07-29T08:34:50Z</time>
      </trkpt>
      <trkpt lat="48.11474" lon="-1.40343">
        <ele>64</ele>
        <time>2010-07-29T08:34:52Z</time>
      </trkpt>
      <trkpt lat="48.11474" lon="-1.40342">
        <ele>64</ele>
        <time>2010-07-29T08:34:53Z</time>
      </trkpt>
      <trkpt lat="48.11474" lon="-1.40341">
        <ele>64</ele>
        <time>2010-07-29T08:34:54Z</time>
      </trkpt>
      <trkpt lat="48.11476" lon="-1.40341">
        <ele>64</ele>
        <time>2010-07-29T08:35:13Z</time>
      </trkpt>
      <trkpt lat="48.11475" lon="-1.4034">
        <ele>64</ele>
        <time>2010-07-29T08:35:14Z</time>
      </trkpt>
      <trkpt lat="48.11475" lon="-1.4034">
        <ele>64</ele>
        <time>2010-07-29T08:35:16Z</time>
      </trkpt>
      <trkpt lat="48.11474" lon="-1.4034">
        <ele>65</ele>
        <time>2010-07-29T08:35:17Z</time>
      </trkpt>
      <trkpt lat="48.11475" lon="-1.40338">
        <ele>64</ele>
        <time>2010-07-29T08:36:55Z</time>
      </trkpt>
      <trkpt lat="48.11477" lon="-1.40342">
        <ele>64</ele>
        <time>2010-07-29T08:36:58Z</time>
      </trkpt>
      <trkpt lat="48.1148" lon="-1.40346">
        <ele>62</ele>
        <time>2010-07-29T08:37:00Z</time>
      </trkpt>
      <trkpt lat="48.11483" lon="-1.40351">
        <ele>61</ele>
        <time>2010-07-29T08:37:02Z</time>
      </trkpt>
      <trkpt lat="48.11487" lon="-1.40353">
        <ele>60</ele>
        <time>2010-07-29T08:37:03Z</time>
      </trkpt>
      <trkpt lat="48.11489" lon="-1.40355">
        <ele>59</ele>
        <time>2010-07-29T08:37:05Z</time>
      </trkpt>
      <trkpt lat="48.11491" lon="-1.40357">
        <ele>58</ele>
        <time>2010-07-29T08:37:06Z</time>
      </trkpt>
      <trkpt lat="48.11495" lon="-1.40359">
        <ele>57</ele>
        <time>2010-07-29T08:37:08Z</time>
      </trkpt>
      <trkpt lat="48.11499" lon="-1.40362">
        <ele>56</ele>
        <time>2010-07-29T08:37:10Z</time>
      </trkpt>
      <trkpt lat="48.11502" lon="-1.40364">
        <ele>55</ele>
        <time>2010-07-29T08:37:12Z</time>
      </trkpt>
      <trkpt lat="48.11504" lon="-1.40365">
        <ele>54</ele>
        <time>2010-07-29T08:37:14Z</time>
      </trkpt>
      <trkpt lat="48.11505" lon="-1.40365">
        <ele>54</ele>
        <time>2010-07-29T08:37:17Z</time>
      </trkpt>
      <trkpt lat="48.11506" lon="-1.40364">
        <ele>54</ele>
        <time>2010-07-29T08:37:18Z</time>
      </trkpt>
      <trkpt lat="48.11506" lon="-1.40364">
        <ele>54</ele>
        <time>2010-07-29T08:37:19Z</time>
      </trkpt>
      <trkpt lat="48.11509" lon="-1.40363">
        <ele>53</ele>
        <time>2010-07-29T08:38:02Z</time>
      </trkpt>
      <trkpt lat="48.11511" lon="-1.40363">
        <ele>52</ele>
        <time>2010-07-29T08:38:04Z</time>
      </trkpt>
      <trkpt lat="48.11512" lon="-1.40363">
        <ele>52</ele>
        <time>2010-07-29T08:38:06Z</time>
      </trkpt>
      <trkpt lat="48.11515" lon="-1.40363">
        <ele>51</ele>
        <time>2010-07-29T08:38:08Z</time>
      </trkpt>
      <trkpt lat="48.11518" lon="-1.40363">
        <ele>51</ele>
        <time>2010-07-29T08:38:09Z</time>
      </trkpt>
      <trkpt lat="48.11518" lon="-1.40363">
        <ele>51</ele>
        <time>2010-07-29T08:38:11Z</time>
      </trkpt>
      <trkpt lat="48.1152" lon="-1.40361">
        <ele>51</ele>
        <time>2010-07-29T08:38:48Z</time>
      </trkpt>
      <trkpt lat="48.1152" lon="-1.4036">
        <ele>51</ele>
        <time>2010-07-29T08:38:49Z</time>
      </trkpt>
      <trkpt lat="48.1152" lon="-1.4036">
        <ele>51</ele>
        <time>2010-07-29T08:38:50Z</time>
      </trkpt>
      <trkpt lat="48.11519" lon="-1.4036">
        <ele>51</ele>
        <time>2010-07-29T08:39:02Z</time>
      </trkpt>
      <trkpt lat="48.11519" lon="-1.40359">
        <ele>51</ele>
        <time>2010-07-29T08:39:03Z</time>
      </trkpt>
      <trkpt lat="48.1152" lon="-1.40357">
        <ele>51</ele>
        <time>2010-07-29T08:39:04Z</time>
      </trkpt>
      <trkpt lat="48.11523" lon="-1.40343">
        <ele>51</ele>
        <time>2010-07-29T08:39:09Z</time>
      </trkpt>
      <trkpt lat="48.11532" lon="-1.4033">
        <ele>52</ele>
        <time>2010-07-29T08:39:13Z</time>
      </trkpt>
      <trkpt lat="48.11537" lon="-1.40321">
        <ele>52</ele>
        <time>2010-07-29T08:39:15Z</time>
      </trkpt>
      <trkpt lat="48.11554" lon="-1.40298">
        <ele>52</ele>
        <time>2010-07-29T08:39:25Z</time>
      </trkpt>
      <trkpt lat="48.11566" lon="-1.40278">
        <ele>50</ele>
        <time>2010-07-29T08:39:31Z</time>
      </trkpt>
      <trkpt lat="48.11573" lon="-1.40259">
        <ele>51</ele>
        <time>2010-07-29T08:39:36Z</time>
      </trkpt>
      <trkpt lat="48.11578" lon="-1.40237">
        <ele>52</ele>
        <time>2010-07-29T08:39:41Z</time>
      </trkpt>
      <trkpt lat="48.11577" lon="-1.40224">
        <ele>53</ele>
        <time>2010-07-29T08:39:44Z</time>
      </trkpt>
      <trkpt lat="48.11578" lon="-1.40206">
        <ele>54</ele>
        <time>2010-07-29T08:39:48Z</time>
      </trkpt>
      <trkpt lat="48.11582" lon="-1.40191">
        <ele>54</ele>
        <time>2010-07-29T08:39:51Z</time>
      </trkpt>
      <trkpt lat="48.11585" lon="-1.4018">
        <ele>55</ele>
        <time>2010-07-29T08:39:53Z</time>
      </trkpt>
      <trkpt lat="48.1159" lon="-1.40165">
        <ele>55</ele>
        <time>2010-07-29T08:39:57Z</time>
      </trkpt>
      <trkpt lat="48.116" lon="-1.40151">
        <ele>54</ele>
        <time>2010-07-29T08:40:00Z</time>
      </trkpt>
      <trkpt lat="48.11621" lon="-1.40131">
        <ele>51</ele>
        <time>2010-07-29T08:40:05Z</time>
      </trkpt>
      <trkpt lat="48.11634" lon="-1.40119">
        <ele>53</ele>
        <time>2010-07-29T08:40:10Z</time>
      </trkpt>
      <trkpt lat="48.11644" lon="-1.40109">
        <ele>53</ele>
        <time>2010-07-29T08:40:14Z</time>
      </trkpt>
      <trkpt lat="48.11663" lon="-1.40102">
        <ele>53</ele>
        <time>2010-07-29T08:40:19Z</time>
      </trkpt>
      <trkpt lat="48.11683" lon="-1.40095">
        <ele>53</ele>
        <time>2010-07-29T08:40:25Z</time>
      </trkpt>
      <trkpt lat="48.11701" lon="-1.40097">
        <ele>53</ele>
        <time>2010-07-29T08:40:30Z</time>
      </trkpt>
      <trkpt lat="48.11729" lon="-1.40093">
        <ele>53</ele>
        <time>2010-07-29T08:40:38Z</time>
      </trkpt>
      <trkpt lat="48.11742" lon="-1.40089">
        <ele>52</ele>
        <time>2010-07-29T08:40:42Z</time>
      </trkpt>
      <trkpt lat="48.11748" lon="-1.40095">
        <ele>52</ele>
        <time>2010-07-29T08:42:21Z</time>
      </trkpt>
      <trkpt lat="48.11749" lon="-1.40094">
        <ele>52</ele>
        <time>2010-07-29T08:42:23Z</time>
      </trkpt>
      <trkpt lat="48.11757" lon="-1.4009">
        <ele>52</ele>
        <time>2010-07-29T08:42:27Z</time>
      </trkpt>
      <trkpt lat="48.11778" lon="-1.40078">
        <ele>52</ele>
        <time>2010-07-29T08:42:34Z</time>
      </trkpt>
      <trkpt lat="48.11795" lon="-1.40068">
        <ele>53</ele>
        <time>2010-07-29T08:42:40Z</time>
      </trkpt>
      <trkpt lat="48.11813" lon="-1.40054">
        <ele>54</ele>
        <time>2010-07-29T08:42:46Z</time>
      </trkpt>
      <trkpt lat="48.11826" lon="-1.40042">
        <ele>54</ele>
        <time>2010-07-29T08:42:50Z</time>
      </trkpt>
      <trkpt lat="48.11839" lon="-1.40025">
        <ele>52</ele>
        <time>2010-07-29T08:42:55Z</time>
      </trkpt>
      <trkpt lat="48.11841" lon="-1.40022">
        <ele>52</ele>
        <time>2010-07-29T08:42:56Z</time>
      </trkpt>
      <trkpt lat="48.11845" lon="-1.40016">
        <ele>51</ele>
        <time>2010-07-29T08:42:58Z</time>
      </trkpt>
      <trkpt lat="48.11849" lon="-1.40011">
        <ele>53</ele>
        <time>2010-07-29T08:43:00Z</time>
      </trkpt>
      <trkpt lat="48.11854" lon="-1.40006">
        <ele>54</ele>
        <time>2010-07-29T08:43:02Z</time>
      </trkpt>
      <trkpt lat="48.11859" lon="-1.40001">
        <ele>54</ele>
        <time>2010-07-29T08:43:04Z</time>
      </trkpt>
      <trkpt lat="48.1188" lon="-1.39984">
        <ele>56</ele>
        <time>2010-07-29T08:43:11Z</time>
      </trkpt>
      <trkpt lat="48.11902" lon="-1.39965">
        <ele>56</ele>
        <time>2010-07-29T08:43:17Z</time>
      </trkpt>
      <trkpt lat="48.11923" lon="-1.39955">
        <ele>55</ele>
        <time>2010-07-29T08:43:23Z</time>
      </trkpt>
      <trkpt lat="48.11941" lon="-1.39944">
        <ele>55</ele>
        <time>2010-07-29T08:43:27Z</time>
      </trkpt>
      <trkpt lat="48.11954" lon="-1.39933">
        <ele>56</ele>
        <time>2010-07-29T08:43:32Z</time>
      </trkpt>
      <trkpt lat="48.11969" lon="-1.39911">
        <ele>56</ele>
        <time>2010-07-29T08:43:38Z</time>
      </trkpt>
      <trkpt lat="48.11975" lon="-1.39903">
        <ele>56</ele>
        <time>2010-07-29T08:43:40Z</time>
      </trkpt>
      <trkpt lat="48.11979" lon="-1.39878">
        <ele>56</ele>
        <time>2010-07-29T08:43:46Z</time>
      </trkpt>
      <trkpt lat="48.11981" lon="-1.3987">
        <ele>56</ele>
        <time>2010-07-29T08:43:47Z</time>
      </trkpt>
      <trkpt lat="48.11983" lon="-1.39861">
        <ele>56</ele>
        <time>2010-07-29T08:43:50Z</time>
      </trkpt>
      <trkpt lat="48.11985" lon="-1.39853">
        <ele>56</ele>
        <time>2010-07-29T08:43:52Z</time>
      </trkpt>
      <trkpt lat="48.11988" lon="-1.39844">
        <ele>56</ele>
        <time>2010-07-29T08:43:54Z</time>
      </trkpt>
      <trkpt lat="48.11991" lon="-1.39834">
        <ele>56</ele>
        <time>2010-07-29T08:43:56Z</time>
      </trkpt>
      <trkpt lat="48.12004" lon="-1.39806">
        <ele>57</ele>
        <time>2010-07-29T08:44:02Z</time>
      </trkpt>
      <trkpt lat="48.12014" lon="-1.39782">
        <ele>56</ele>
        <time>2010-07-29T08:44:07Z</time>
      </trkpt>
      <trkpt lat="48.12029" lon="-1.3976">
        <ele>55</ele>
        <time>2010-07-29T08:44:12Z</time>
      </trkpt>
      <trkpt lat="48.12038" lon="-1.39746">
        <ele>55</ele>
        <time>2010-07-29T08:44:15Z</time>
      </trkpt>
      <trkpt lat="48.12042" lon="-1.39724">
        <ele>56</ele>
        <time>2010-07-29T08:44:19Z</time>
      </trkpt>
      <trkpt lat="48.12042" lon="-1.3972">
        <ele>56</ele>
        <time>2010-07-29T08:44:20Z</time>
      </trkpt>
      <trkpt lat="48.12053" lon="-1.3969">
        <ele>56</ele>
        <time>2010-07-29T08:44:26Z</time>
      </trkpt>
      <trkpt lat="48.12055" lon="-1.39686">
        <ele>56</ele>
        <time>2010-07-29T08:44:27Z</time>
      </trkpt>
      <trkpt lat="48.12066" lon="-1.39678">
        <ele>55</ele>
        <time>2010-07-29T08:44:31Z</time>
      </trkpt>
      <trkpt lat="48.12075" lon="-1.39672">
        <ele>54</ele>
        <time>2010-07-29T08:44:35Z</time>
      </trkpt>
      <trkpt lat="48.12076" lon="-1.3967">
        <ele>54</ele>
        <time>2010-07-29T08:44:36Z</time>
      </trkpt>
      <trkpt lat="48.1208" lon="-1.39665">
        <ele>54</ele>
        <time>2010-07-29T08:44:39Z</time>
      </trkpt>
      <trkpt lat="48.12082" lon="-1.39663">
        <ele>54</ele>
        <time>2010-07-29T08:44:41Z</time>
      </trkpt>
      <trkpt lat="48.12084" lon="-1.3966">
        <ele>54</ele>
        <time>2010-07-29T08:44:43Z</time>
      </trkpt>
      <trkpt lat="48.12091" lon="-1.39648">
        <ele>54</ele>
        <time>2010-07-29T08:44:48Z</time>
      </trkpt>
      <trkpt lat="48.12108" lon="-1.39636">
        <ele>54</ele>
        <time>2010-07-29T08:44:53Z</time>
      </trkpt>
      <trkpt lat="48.12139" lon="-1.39631">
        <ele>55</ele>
        <time>2010-07-29T08:45:02Z</time>
      </trkpt>
      <trkpt lat="48.12156" lon="-1.39631">
        <ele>55</ele>
        <time>2010-07-29T08:45:07Z</time>
      </trkpt>
      <trkpt lat="48.12164" lon="-1.39631">
        <ele>56</ele>
        <time>2010-07-29T08:45:09Z</time>
      </trkpt>
      <trkpt lat="48.12171" lon="-1.3963">
        <ele>56</ele>
        <time>2010-07-29T08:45:11Z</time>
      </trkpt>
      <trkpt lat="48.12178" lon="-1.39629">
        <ele>56</ele>
        <time>2010-07-29T08:45:13Z</time>
      </trkpt>
      <trkpt lat="48.12186" lon="-1.39629">
        <ele>57</ele>
        <time>2010-07-29T08:45:15Z</time>
      </trkpt>
      <trkpt lat="48.12212" lon="-1.39624">
        <ele>58</ele>
        <time>2010-07-29T08:45:22Z</time>
      </trkpt>
      <trkpt lat="48.12222" lon="-1.39622">
        <ele>59</ele>
        <time>2010-07-29T08:45:25Z</time>
      </trkpt>
      <trkpt lat="48.12228" lon="-1.3962">
        <ele>59</ele>
        <time>2010-07-29T08:45:27Z</time>
      </trkpt>
      <trkpt lat="48.12236" lon="-1.39619">
        <ele>60</ele>
        <time>2010-07-29T08:45:29Z</time>
      </trkpt>
      <trkpt lat="48.12244" lon="-1.39618">
        <ele>60</ele>
        <time>2010-07-29T08:45:31Z</time>
      </trkpt>
      <trkpt lat="48.12251" lon="-1.39618">
        <ele>61</ele>
        <time>2010-07-29T08:45:33Z</time>
      </trkpt>
      <trkpt lat="48.12259" lon="-1.39617">
        <ele>61</ele>
        <time>2010-07-29T08:45:36Z</time>
      </trkpt>
      <trkpt lat="48.12263" lon="-1.39616">
        <ele>62</ele>
        <time>2010-07-29T08:45:38Z</time>
      </trkpt>
      <trkpt lat="48.12267" lon="-1.39615">
        <ele>62</ele>
        <time>2010-07-29T08:45:39Z</time>
      </trkpt>
      <trkpt lat="48.12271" lon="-1.39614">
        <ele>62</ele>
        <time>2010-07-29T08:45:42Z</time>
      </trkpt>
      <trkpt lat="48.12276" lon="-1.39612">
        <ele>62</ele>
        <time>2010-07-29T08:45:44Z</time>
      </trkpt>
      <trkpt lat="48.12282" lon="-1.3961">
        <ele>63</ele>
        <time>2010-07-29T08:45:47Z</time>
      </trkpt>
      <trkpt lat="48.12287" lon="-1.39608">
        <ele>63</ele>
        <time>2010-07-29T08:45:49Z</time>
      </trkpt>
      <trkpt lat="48.12291" lon="-1.39605">
        <ele>64</ele>
        <time>2010-07-29T08:45:51Z</time>
      </trkpt>
      <trkpt lat="48.12292" lon="-1.39604">
        <ele>64</ele>
        <time>2010-07-29T08:45:52Z</time>
      </trkpt>
      <trkpt lat="48.12293" lon="-1.39601">
        <ele>64</ele>
        <time>2010-07-29T08:45:53Z</time>
      </trkpt>
      <trkpt lat="48.12294" lon="-1.39599">
        <ele>64</ele>
        <time>2010-07-29T08:45:54Z</time>
      </trkpt>
      <trkpt lat="48.12295" lon="-1.39593">
        <ele>64</ele>
        <time>2010-07-29T08:45:56Z</time>
      </trkpt>
      <trkpt lat="48.12295" lon="-1.39586">
        <ele>64</ele>
        <time>2010-07-29T08:45:58Z</time>
      </trkpt>
      <trkpt lat="48.12297" lon="-1.3958">
        <ele>64</ele>
        <time>2010-07-29T08:46:00Z</time>
      </trkpt>
      <trkpt lat="48.12298" lon="-1.39573">
        <ele>64</ele>
        <time>2010-07-29T08:46:02Z</time>
      </trkpt>
      <trkpt lat="48.12304" lon="-1.39559">
        <ele>65</ele>
        <time>2010-07-29T08:46:07Z</time>
      </trkpt>
      <trkpt lat="48.12306" lon="-1.39553">
        <ele>65</ele>
        <time>2010-07-29T08:46:09Z</time>
      </trkpt>
      <trkpt lat="48.12308" lon="-1.39546">
        <ele>65</ele>
        <time>2010-07-29T08:46:11Z</time>
      </trkpt>
      <trkpt lat="48.12308" lon="-1.39539">
        <ele>65</ele>
        <time>2010-07-29T08:46:13Z</time>
      </trkpt>
      <trkpt lat="48.12309" lon="-1.39532">
        <ele>65</ele>
        <time>2010-07-29T08:46:15Z</time>
      </trkpt>
      <trkpt lat="48.12315" lon="-1.39503">
        <ele>65</ele>
        <time>2010-07-29T08:46:23Z</time>
      </trkpt>
      <trkpt lat="48.12319" lon="-1.39477">
        <ele>66</ele>
        <time>2010-07-29T08:46:30Z</time>
      </trkpt>
      <trkpt lat="48.12325" lon="-1.39448">
        <ele>66</ele>
        <time>2010-07-29T08:46:37Z</time>
      </trkpt>
      <trkpt lat="48.1233" lon="-1.39415">
        <ele>66</ele>
        <time>2010-07-29T08:46:44Z</time>
      </trkpt>
      <trkpt lat="48.12337" lon="-1.39381">
        <ele>66</ele>
        <time>2010-07-29T08:46:51Z</time>
      </trkpt>
      <trkpt lat="48.12343" lon="-1.39348">
        <ele>65</ele>
        <time>2010-07-29T08:46:57Z</time>
      </trkpt>
      <trkpt lat="48.12349" lon="-1.39308">
        <ele>64</ele>
        <time>2010-07-29T08:47:04Z</time>
      </trkpt>
      <trkpt lat="48.12351" lon="-1.39268">
        <ele>62</ele>
        <time>2010-07-29T08:47:10Z</time>
      </trkpt>
      <trkpt lat="48.12351" lon="-1.39253">
        <ele>62</ele>
        <time>2010-07-29T08:47:12Z</time>
      </trkpt>
      <trkpt lat="48.12352" lon="-1.39243">
        <ele>61</ele>
        <time>2010-07-29T08:47:13Z</time>
      </trkpt>
      <trkpt lat="48.12354" lon="-1.39235">
        <ele>61</ele>
        <time>2010-07-29T08:47:14Z</time>
      </trkpt>
      <trkpt lat="48.1236" lon="-1.39227">
        <ele>61</ele>
        <time>2010-07-29T08:47:16Z</time>
      </trkpt>
      <trkpt lat="48.12366" lon="-1.39235">
        <ele>62</ele>
        <time>2010-07-29T08:47:18Z</time>
      </trkpt>
      <trkpt lat="48.12372" lon="-1.39243">
        <ele>63</ele>
        <time>2010-07-29T08:47:20Z</time>
      </trkpt>
      <trkpt lat="48.12374" lon="-1.39247">
        <ele>63</ele>
        <time>2010-07-29T08:47:21Z</time>
      </trkpt>
      <trkpt lat="48.12389" lon="-1.39265">
        <ele>65</ele>
        <time>2010-07-29T08:47:27Z</time>
      </trkpt>
      <trkpt lat="48.12398" lon="-1.39276">
        <ele>66</ele>
        <time>2010-07-29T08:47:31Z</time>
      </trkpt>
      <trkpt lat="48.12402" lon="-1.39281">
        <ele>67</ele>
        <time>2010-07-29T08:47:33Z</time>
      </trkpt>
      <trkpt lat="48.12407" lon="-1.39287">
        <ele>67</ele>
        <time>2010-07-29T08:47:35Z</time>
      </trkpt>
      <trkpt lat="48.12412" lon="-1.39292">
        <ele>67</ele>
        <time>2010-07-29T08:47:37Z</time>
      </trkpt>
      <trkpt lat="48.12416" lon="-1.39298">
        <ele>68</ele>
        <time>2010-07-29T08:47:39Z</time>
      </trkpt>
      <trkpt lat="48.1243" lon="-1.39315">
        <ele>68</ele>
        <time>2010-07-29T08:47:45Z</time>
      </trkpt>
      <trkpt lat="48.12434" lon="-1.3932">
        <ele>69</ele>
        <time>2010-07-29T08:47:47Z</time>
      </trkpt>
      <trkpt lat="48.12438" lon="-1.39326">
        <ele>69</ele>
        <time>2010-07-29T08:47:49Z</time>
      </trkpt>
      <trkpt lat="48.12442" lon="-1.39331">
        <ele>69</ele>
        <time>2010-07-29T08:47:51Z</time>
      </trkpt>
      <trkpt lat="48.12447" lon="-1.39336">
        <ele>69</ele>
        <time>2010-07-29T08:47:53Z</time>
      </trkpt>
      <trkpt lat="48.12465" lon="-1.39358">
        <ele>70</ele>
        <time>2010-07-29T08:48:01Z</time>
      </trkpt>
      <trkpt lat="48.12469" lon="-1.39363">
        <ele>70</ele>
        <time>2010-07-29T08:48:03Z</time>
      </trkpt>
      <trkpt lat="48.12474" lon="-1.39369">
        <ele>70</ele>
        <time>2010-07-29T08:48:05Z</time>
      </trkpt>
      <trkpt lat="48.12478" lon="-1.39375">
        <ele>71</ele>
        <time>2010-07-29T08:48:07Z</time>
      </trkpt>
      <trkpt lat="48.12482" lon="-1.39381">
        <ele>71</ele>
        <time>2010-07-29T08:48:09Z</time>
      </trkpt>
      <trkpt lat="48.12497" lon="-1.39411">
        <ele>72</ele>
        <time>2010-07-29T08:48:18Z</time>
      </trkpt>
      <trkpt lat="48.125" lon="-1.39419">
        <ele>72</ele>
        <time>2010-07-29T08:48:20Z</time>
      </trkpt>
      <trkpt lat="48.12503" lon="-1.39427">
        <ele>73</ele>
        <time>2010-07-29T08:48:22Z</time>
      </trkpt>
      <trkpt lat="48.12505" lon="-1.39435">
        <ele>73</ele>
        <time>2010-07-29T08:48:24Z</time>
      </trkpt>
      <trkpt lat="48.12508" lon="-1.39444">
        <ele>73</ele>
        <time>2010-07-29T08:48:26Z</time>
      </trkpt>
      <trkpt lat="48.12512" lon="-1.39466">
        <ele>74</ele>
        <time>2010-07-29T08:48:31Z</time>
      </trkpt>
      <trkpt lat="48.12513" lon="-1.39475">
        <ele>74</ele>
        <time>2010-07-29T08:48:33Z</time>
      </trkpt>
      <trkpt lat="48.12514" lon="-1.39484">
        <ele>74</ele>
        <time>2010-07-29T08:48:35Z</time>
      </trkpt>
      <trkpt lat="48.12515" lon="-1.39494">
        <ele>74</ele>
        <time>2010-07-29T08:48:37Z</time>
      </trkpt>
      <trkpt lat="48.12516" lon="-1.39504">
        <ele>74</ele>
        <time>2010-07-29T08:48:39Z</time>
      </trkpt>
      <trkpt lat="48.12523" lon="-1.3954">
        <ele>75</ele>
        <time>2010-07-29T08:48:46Z</time>
      </trkpt>
      <trkpt lat="48.12537" lon="-1.39543">
        <ele>75</ele>
        <time>2010-07-29T08:48:50Z</time>
      </trkpt>
      <trkpt lat="48.12545" lon="-1.39539">
        <ele>75</ele>
        <time>2010-07-29T08:48:52Z</time>
      </trkpt>
      <trkpt lat="48.12571" lon="-1.39531">
        <ele>76</ele>
        <time>2010-07-29T08:49:00Z</time>
      </trkpt>
      <trkpt lat="48.12577" lon="-1.39529">
        <ele>76</ele>
        <time>2010-07-29T08:49:02Z</time>
      </trkpt>
      <trkpt lat="48.12582" lon="-1.39527">
        <ele>76</ele>
        <time>2010-07-29T08:49:04Z</time>
      </trkpt>
      <trkpt lat="48.12587" lon="-1.39525">
        <ele>76</ele>
        <time>2010-07-29T08:49:06Z</time>
      </trkpt>
      <trkpt lat="48.12593" lon="-1.39522">
        <ele>76</ele>
        <time>2010-07-29T08:49:08Z</time>
      </trkpt>
      <trkpt lat="48.12628" lon="-1.39512">
        <ele>76</ele>
        <time>2010-07-29T08:49:18Z</time>
      </trkpt>
      <trkpt lat="48.12653" lon="-1.39503">
        <ele>76</ele>
        <time>2010-07-29T08:49:26Z</time>
      </trkpt>
      <trkpt lat="48.12659" lon="-1.39501">
        <ele>76</ele>
        <time>2010-07-29T08:49:28Z</time>
      </trkpt>
      <trkpt lat="48.12665" lon="-1.39498">
        <ele>76</ele>
        <time>2010-07-29T08:49:30Z</time>
      </trkpt>
      <trkpt lat="48.12672" lon="-1.39496">
        <ele>76</ele>
        <time>2010-07-29T08:49:32Z</time>
      </trkpt>
      <trkpt lat="48.12679" lon="-1.39494">
        <ele>76</ele>
        <time>2010-07-29T08:49:34Z</time>
      </trkpt>
      <trkpt lat="48.12705" lon="-1.39483">
        <ele>76</ele>
        <time>2010-07-29T08:49:41Z</time>
      </trkpt>
      <trkpt lat="48.12714" lon="-1.39481">
        <ele>76</ele>
        <time>2010-07-29T08:49:43Z</time>
      </trkpt>
      <trkpt lat="48.12735" lon="-1.39491">
        <ele>75</ele>
        <time>2010-07-29T08:49:47Z</time>
      </trkpt>
      <trkpt lat="48.1274" lon="-1.39494">
        <ele>75</ele>
        <time>2010-07-29T08:49:48Z</time>
      </trkpt>
      <trkpt lat="48.12745" lon="-1.39496">
        <ele>75</ele>
        <time>2010-07-29T08:49:49Z</time>
      </trkpt>
      <trkpt lat="48.12756" lon="-1.39496">
        <ele>75</ele>
        <time>2010-07-29T08:49:51Z</time>
      </trkpt>
      <trkpt lat="48.12763" lon="-1.39492">
        <ele>74</ele>
        <time>2010-07-29T08:49:53Z</time>
      </trkpt>
      <trkpt lat="48.12766" lon="-1.3949">
        <ele>74</ele>
        <time>2010-07-29T08:49:54Z</time>
      </trkpt>
      <trkpt lat="48.12769" lon="-1.39489">
        <ele>74</ele>
        <time>2010-07-29T08:49:55Z</time>
      </trkpt>
      <trkpt lat="48.12786" lon="-1.39485">
        <ele>74</ele>
        <time>2010-07-29T08:50:00Z</time>
      </trkpt>
      <trkpt lat="48.12807" lon="-1.39484">
        <ele>74</ele>
        <time>2010-07-29T08:50:06Z</time>
      </trkpt>
      <trkpt lat="48.12823" lon="-1.39482">
        <ele>74</ele>
        <time>2010-07-29T08:50:10Z</time>
      </trkpt>
      <trkpt lat="48.12835" lon="-1.39478">
        <ele>75</ele>
        <time>2010-07-29T08:50:14Z</time>
      </trkpt>
      <trkpt lat="48.12855" lon="-1.3948">
        <ele>75</ele>
        <time>2010-07-29T08:50:20Z</time>
      </trkpt>
      <trkpt lat="48.12872" lon="-1.39484">
        <ele>76</ele>
        <time>2010-07-29T08:50:25Z</time>
      </trkpt>
      <trkpt lat="48.1289" lon="-1.39485">
        <ele>76</ele>
        <time>2010-07-29T08:50:31Z</time>
      </trkpt>
      <trkpt lat="48.12913" lon="-1.39491">
        <ele>77</ele>
        <time>2010-07-29T08:50:38Z</time>
      </trkpt>
      <trkpt lat="48.12926" lon="-1.39497">
        <ele>78</ele>
        <time>2010-07-29T08:50:42Z</time>
      </trkpt>
      <trkpt lat="48.12935" lon="-1.39501">
        <ele>78</ele>
        <time>2010-07-29T08:50:44Z</time>
      </trkpt>
      <trkpt lat="48.12943" lon="-1.39505">
        <ele>79</ele>
        <time>2010-07-29T08:50:46Z</time>
      </trkpt>
      <trkpt lat="48.1295" lon="-1.39508">
        <ele>79</ele>
        <time>2010-07-29T08:50:48Z</time>
      </trkpt>
      <trkpt lat="48.12956" lon="-1.39511">
        <ele>79</ele>
        <time>2010-07-29T08:50:50Z</time>
      </trkpt>
      <trkpt lat="48.12968" lon="-1.39517">
        <ele>79</ele>
        <time>2010-07-29T08:50:55Z</time>
      </trkpt>
      <trkpt lat="48.12982" lon="-1.39522">
        <ele>80</ele>
        <time>2010-07-29T08:51:00Z</time>
      </trkpt>
      <trkpt lat="48.12987" lon="-1.39523">
        <ele>80</ele>
        <time>2010-07-29T08:51:02Z</time>
      </trkpt>
      <trkpt lat="48.12992" lon="-1.39524">
        <ele>80</ele>
        <time>2010-07-29T08:51:04Z</time>
      </trkpt>
      <trkpt lat="48.12998" lon="-1.39525">
        <ele>80</ele>
        <time>2010-07-29T08:51:06Z</time>
      </trkpt>
      <trkpt lat="48.13004" lon="-1.39527">
        <ele>81</ele>
        <time>2010-07-29T08:51:08Z</time>
      </trkpt>
      <trkpt lat="48.13013" lon="-1.39531">
        <ele>81</ele>
        <time>2010-07-29T08:51:12Z</time>
      </trkpt>
      <trkpt lat="48.13024" lon="-1.39534">
        <ele>82</ele>
        <time>2010-07-29T08:51:17Z</time>
      </trkpt>
      <trkpt lat="48.13028" lon="-1.39536">
        <ele>82</ele>
        <time>2010-07-29T08:51:19Z</time>
      </trkpt>
      <trkpt lat="48.13035" lon="-1.39539">
        <ele>82</ele>
        <time>2010-07-29T08:51:22Z</time>
      </trkpt>
      <trkpt lat="48.13038" lon="-1.39542">
        <ele>82</ele>
        <time>2010-07-29T08:51:24Z</time>
      </trkpt>
      <trkpt lat="48.13039" lon="-1.39543">
        <ele>82</ele>
        <time>2010-07-29T08:51:25Z</time>
      </trkpt>
      <trkpt lat="48.13041" lon="-1.39544">
        <ele>82</ele>
        <time>2010-07-29T08:51:26Z</time>
      </trkpt>
      <trkpt lat="48.13043" lon="-1.39544">
        <ele>83</ele>
        <time>2010-07-29T08:51:27Z</time>
      </trkpt>
      <trkpt lat="48.13046" lon="-1.39544">
        <ele>83</ele>
        <time>2010-07-29T08:51:28Z</time>
      </trkpt>
      <trkpt lat="48.13072" lon="-1.39551">
        <ele>84</ele>
        <time>2010-07-29T08:51:36Z</time>
      </trkpt>
      <trkpt lat="48.13077" lon="-1.39552">
        <ele>85</ele>
        <time>2010-07-29T08:51:38Z</time>
      </trkpt>
      <trkpt lat="48.13081" lon="-1.39554">
        <ele>85</ele>
        <time>2010-07-29T08:51:40Z</time>
      </trkpt>
      <trkpt lat="48.13086" lon="-1.39556">
        <ele>85</ele>
        <time>2010-07-29T08:51:42Z</time>
      </trkpt>
      <trkpt lat="48.1309" lon="-1.39557">
        <ele>85</ele>
        <time>2010-07-29T08:51:44Z</time>
      </trkpt>
      <trkpt lat="48.13094" lon="-1.39558">
        <ele>86</ele>
        <time>2010-07-29T08:51:46Z</time>
      </trkpt>
      <trkpt lat="48.13109" lon="-1.39563">
        <ele>87</ele>
        <time>2010-07-29T08:51:53Z</time>
      </trkpt>
      <trkpt lat="48.13118" lon="-1.39565">
        <ele>87</ele>
        <time>2010-07-29T08:51:57Z</time>
      </trkpt>
      <trkpt lat="48.13123" lon="-1.39567">
        <ele>87</ele>
        <time>2010-07-29T08:51:59Z</time>
      </trkpt>
      <trkpt lat="48.13127" lon="-1.39569">
        <ele>88</ele>
        <time>2010-07-29T08:52:01Z</time>
      </trkpt>
      <trkpt lat="48.13131" lon="-1.3957">
        <ele>88</ele>
        <time>2010-07-29T08:52:03Z</time>
      </trkpt>
      <trkpt lat="48.13134" lon="-1.39571">
        <ele>88</ele>
        <time>2010-07-29T08:52:05Z</time>
      </trkpt>
      <trkpt lat="48.13143" lon="-1.39574">
        <ele>89</ele>
        <time>2010-07-29T08:52:10Z</time>
      </trkpt>
      <trkpt lat="48.13144" lon="-1.39575">
        <ele>89</ele>
        <time>2010-07-29T08:52:11Z</time>
      </trkpt>
      <trkpt lat="48.13148" lon="-1.39576">
        <ele>89</ele>
        <time>2010-07-29T08:52:13Z</time>
      </trkpt>
      <trkpt lat="48.13152" lon="-1.39579">
        <ele>89</ele>
        <time>2010-07-29T08:52:15Z</time>
      </trkpt>
      <trkpt lat="48.13156" lon="-1.3958">
        <ele>89</ele>
        <time>2010-07-29T08:52:17Z</time>
      </trkpt>
      <trkpt lat="48.1316" lon="-1.39582">
        <ele>90</ele>
        <time>2010-07-29T08:52:19Z</time>
      </trkpt>
      <trkpt lat="48.13174" lon="-1.39588">
        <ele>91</ele>
        <time>2010-07-29T08:52:26Z</time>
      </trkpt>
      <trkpt lat="48.13175" lon="-1.39589">
        <ele>91</ele>
        <time>2010-07-29T08:52:27Z</time>
      </trkpt>
      <trkpt lat="48.13178" lon="-1.3959">
        <ele>91</ele>
        <time>2010-07-29T08:52:29Z</time>
      </trkpt>
      <trkpt lat="48.13182" lon="-1.39591">
        <ele>91</ele>
        <time>2010-07-29T08:52:31Z</time>
      </trkpt>
      <trkpt lat="48.13186" lon="-1.39593">
        <ele>91</ele>
        <time>2010-07-29T08:52:33Z</time>
      </trkpt>
      <trkpt lat="48.13192" lon="-1.39594">
        <ele>92</ele>
        <time>2010-07-29T08:52:35Z</time>
      </trkpt>
      <trkpt lat="48.13203" lon="-1.39598">
        <ele>92</ele>
        <time>2010-07-29T08:52:40Z</time>
      </trkpt>
      <trkpt lat="48.13213" lon="-1.39601">
        <ele>93</ele>
        <time>2010-07-29T08:52:44Z</time>
      </trkpt>
      <trkpt lat="48.13218" lon="-1.39603">
        <ele>93</ele>
        <time>2010-07-29T08:52:46Z</time>
      </trkpt>
      <trkpt lat="48.13222" lon="-1.39606">
        <ele>93</ele>
        <time>2010-07-29T08:52:48Z</time>
      </trkpt>
      <trkpt lat="48.13225" lon="-1.39608">
        <ele>93</ele>
        <time>2010-07-29T08:52:49Z</time>
      </trkpt>
      <trkpt lat="48.13233" lon="-1.39608">
        <ele>93</ele>
        <time>2010-07-29T08:52:52Z</time>
      </trkpt>
      <trkpt lat="48.13245" lon="-1.3961">
        <ele>94</ele>
        <time>2010-07-29T08:52:58Z</time>
      </trkpt>
      <trkpt lat="48.13258" lon="-1.39612">
        <ele>94</ele>
        <time>2010-07-29T08:53:04Z</time>
      </trkpt>
      <trkpt lat="48.13262" lon="-1.39613">
        <ele>94</ele>
        <time>2010-07-29T08:53:06Z</time>
      </trkpt>
      <trkpt lat="48.13266" lon="-1.39614">
        <ele>94</ele>
        <time>2010-07-29T08:53:08Z</time>
      </trkpt>
      <trkpt lat="48.1327" lon="-1.39615">
        <ele>95</ele>
        <time>2010-07-29T08:53:10Z</time>
      </trkpt>
      <trkpt lat="48.13272" lon="-1.39615">
        <ele>95</ele>
        <time>2010-07-29T08:53:12Z</time>
      </trkpt>
      <trkpt lat="48.13278" lon="-1.39611">
        <ele>95</ele>
        <time>2010-07-29T08:53:21Z</time>
      </trkpt>
      <trkpt lat="48.13279" lon="-1.39611">
        <ele>95</ele>
        <time>2010-07-29T08:53:22Z</time>
      </trkpt>
      <trkpt lat="48.1328" lon="-1.39612">
        <ele>95</ele>
        <time>2010-07-29T08:53:24Z</time>
      </trkpt>
      <trkpt lat="48.13285" lon="-1.39613">
        <ele>95</ele>
        <time>2010-07-29T08:53:27Z</time>
      </trkpt>
      <trkpt lat="48.13299" lon="-1.39609">
        <ele>96</ele>
        <time>2010-07-29T08:53:33Z</time>
      </trkpt>
      <trkpt lat="48.13309" lon="-1.39605">
        <ele>96</ele>
        <time>2010-07-29T08:53:38Z</time>
      </trkpt>
      <trkpt lat="48.13314" lon="-1.39605">
        <ele>96</ele>
        <time>2010-07-29T08:53:40Z</time>
      </trkpt>
      <trkpt lat="48.1332" lon="-1.39603">
        <ele>96</ele>
        <time>2010-07-29T08:53:44Z</time>
      </trkpt>
      <trkpt lat="48.13324" lon="-1.39601">
        <ele>96</ele>
        <time>2010-07-29T08:53:47Z</time>
      </trkpt>
      <trkpt lat="48.13328" lon="-1.396">
        <ele>96</ele>
        <time>2010-07-29T08:53:49Z</time>
      </trkpt>
      <trkpt lat="48.13333" lon="-1.39597">
        <ele>97</ele>
        <time>2010-07-29T08:53:51Z</time>
      </trkpt>
      <trkpt lat="48.13336" lon="-1.39595">
        <ele>97</ele>
        <time>2010-07-29T08:53:53Z</time>
      </trkpt>
      <trkpt lat="48.1334" lon="-1.39594">
        <ele>97</ele>
        <time>2010-07-29T08:53:55Z</time>
      </trkpt>
      <trkpt lat="48.13345" lon="-1.39594">
        <ele>97</ele>
        <time>2010-07-29T08:53:57Z</time>
      </trkpt>
      <trkpt lat="48.13351" lon="-1.39595">
        <ele>97</ele>
        <time>2010-07-29T08:54:02Z</time>
      </trkpt>
      <trkpt lat="48.13367" lon="-1.39593">
        <ele>97</ele>
        <time>2010-07-29T08:54:10Z</time>
      </trkpt>
      <trkpt lat="48.13378" lon="-1.39594">
        <ele>97</ele>
        <time>2010-07-29T08:54:14Z</time>
      </trkpt>
      <trkpt lat="48.13394" lon="-1.39598">
        <ele>97</ele>
        <time>2010-07-29T08:54:20Z</time>
      </trkpt>
      <trkpt lat="48.13403" lon="-1.39599">
        <ele>97</ele>
        <time>2010-07-29T08:54:24Z</time>
      </trkpt>
      <trkpt lat="48.13415" lon="-1.39601">
        <ele>97</ele>
        <time>2010-07-29T08:54:29Z</time>
      </trkpt>
      <trkpt lat="48.13433" lon="-1.39607">
        <ele>97</ele>
        <time>2010-07-29T08:54:34Z</time>
      </trkpt>
      <trkpt lat="48.13453" lon="-1.39615">
        <ele>97</ele>
        <time>2010-07-29T08:54:39Z</time>
      </trkpt>
      <trkpt lat="48.13473" lon="-1.39618">
        <ele>97</ele>
        <time>2010-07-29T08:54:44Z</time>
      </trkpt>
      <trkpt lat="48.1349" lon="-1.3962">
        <ele>97</ele>
        <time>2010-07-29T08:54:49Z</time>
      </trkpt>
      <trkpt lat="48.13499" lon="-1.3962">
        <ele>97</ele>
        <time>2010-07-29T08:54:52Z</time>
      </trkpt>
      <trkpt lat="48.13513" lon="-1.39627">
        <ele>97</ele>
        <time>2010-07-29T08:54:56Z</time>
      </trkpt>
      <trkpt lat="48.13524" lon="-1.39631">
        <ele>97</ele>
        <time>2010-07-29T08:54:59Z</time>
      </trkpt>
      <trkpt lat="48.13527" lon="-1.39633">
        <ele>97</ele>
        <time>2010-07-29T08:55:01Z</time>
      </trkpt>
      <trkpt lat="48.1353" lon="-1.39634">
        <ele>97</ele>
        <time>2010-07-29T08:55:03Z</time>
      </trkpt>
      <trkpt lat="48.13532" lon="-1.39635">
        <ele>97</ele>
        <time>2010-07-29T08:55:05Z</time>
      </trkpt>
      <trkpt lat="48.13545" lon="-1.39643">
        <ele>97</ele>
        <time>2010-07-29T08:55:10Z</time>
      </trkpt>
      <trkpt lat="48.13566" lon="-1.39656">
        <ele>97</ele>
        <time>2010-07-29T08:55:17Z</time>
      </trkpt>
      <trkpt lat="48.13582" lon="-1.39664">
        <ele>97</ele>
        <time>2010-07-29T08:55:22Z</time>
      </trkpt>
      <trkpt lat="48.136" lon="-1.39673">
        <ele>97</ele>
        <time>2010-07-29T08:55:28Z</time>
      </trkpt>
      <trkpt lat="48.13609" lon="-1.3968">
        <ele>97</ele>
        <time>2010-07-29T08:55:32Z</time>
      </trkpt>
      <trkpt lat="48.13617" lon="-1.39684">
        <ele>97</ele>
        <time>2010-07-29T08:55:36Z</time>
      </trkpt>
      <trkpt lat="48.13621" lon="-1.39688">
        <ele>97</ele>
        <time>2010-07-29T08:55:38Z</time>
      </trkpt>
      <trkpt lat="48.13636" lon="-1.39701">
        <ele>97</ele>
        <time>2010-07-29T08:55:44Z</time>
      </trkpt>
      <trkpt lat="48.13649" lon="-1.39714">
        <ele>97</ele>
        <time>2010-07-29T08:55:49Z</time>
      </trkpt>
      <trkpt lat="48.13659" lon="-1.39725">
        <ele>97</ele>
        <time>2010-07-29T08:55:53Z</time>
      </trkpt>
      <trkpt lat="48.13673" lon="-1.39737">
        <ele>97</ele>
        <time>2010-07-29T08:55:58Z</time>
      </trkpt>
      <trkpt lat="48.13679" lon="-1.39742">
        <ele>97</ele>
        <time>2010-07-29T08:56:00Z</time>
      </trkpt>
      <trkpt lat="48.13683" lon="-1.39746">
        <ele>97</ele>
        <time>2010-07-29T08:56:02Z</time>
      </trkpt>
      <trkpt lat="48.13688" lon="-1.39751">
        <ele>98</ele>
        <time>2010-07-29T08:56:04Z</time>
      </trkpt>
      <trkpt lat="48.13693" lon="-1.39756">
        <ele>98</ele>
        <time>2010-07-29T08:56:06Z</time>
      </trkpt>
      <trkpt lat="48.13698" lon="-1.3976">
        <ele>98</ele>
        <time>2010-07-29T08:56:08Z</time>
      </trkpt>
      <trkpt lat="48.13711" lon="-1.39767">
        <ele>98</ele>
        <time>2010-07-29T08:56:13Z</time>
      </trkpt>
      <trkpt lat="48.13722" lon="-1.3977">
        <ele>98</ele>
        <time>2010-07-29T08:56:19Z</time>
      </trkpt>
      <trkpt lat="48.13734" lon="-1.39776">
        <ele>99</ele>
        <time>2010-07-29T08:56:23Z</time>
      </trkpt>
      <trkpt lat="48.13737" lon="-1.39779">
        <ele>99</ele>
        <time>2010-07-29T08:56:24Z</time>
      </trkpt>
      <trkpt lat="48.13744" lon="-1.39783">
        <ele>99</ele>
        <time>2010-07-29T08:56:27Z</time>
      </trkpt>
      <trkpt lat="48.13747" lon="-1.39784">
        <ele>99</ele>
        <time>2010-07-29T08:56:29Z</time>
      </trkpt>
      <trkpt lat="48.13748" lon="-1.39785">
        <ele>99</ele>
        <time>2010-07-29T08:56:30Z</time>
      </trkpt>
      <trkpt lat="48.1375" lon="-1.39785">
        <ele>99</ele>
        <time>2010-07-29T08:56:31Z</time>
      </trkpt>
      <trkpt lat="48.13753" lon="-1.39783">
        <ele>100</ele>
        <time>2010-07-29T08:56:33Z</time>
      </trkpt>
      <trkpt lat="48.13758" lon="-1.39781">
        <ele>100</ele>
        <time>2010-07-29T08:56:35Z</time>
      </trkpt>
      <trkpt lat="48.13762" lon="-1.39775">
        <ele>100</ele>
        <time>2010-07-29T08:56:37Z</time>
      </trkpt>
      <trkpt lat="48.13763" lon="-1.39749">
        <ele>100</ele>
        <time>2010-07-29T08:56:43Z</time>
      </trkpt>
      <trkpt lat="48.13767" lon="-1.39719">
        <ele>100</ele>
        <time>2010-07-29T08:56:49Z</time>
      </trkpt>
      <trkpt lat="48.1377" lon="-1.39692">
        <ele>101</ele>
        <time>2010-07-29T08:56:55Z</time>
      </trkpt>
      <trkpt lat="48.13772" lon="-1.39671">
        <ele>101</ele>
        <time>2010-07-29T08:57:00Z</time>
      </trkpt>
      <trkpt lat="48.13774" lon="-1.39649">
        <ele>101</ele>
        <time>2010-07-29T08:57:04Z</time>
      </trkpt>
      <trkpt lat="48.13772" lon="-1.39618">
        <ele>101</ele>
        <time>2010-07-29T08:57:10Z</time>
      </trkpt>
      <trkpt lat="48.1377" lon="-1.39597">
        <ele>100</ele>
        <time>2010-07-29T08:57:14Z</time>
      </trkpt>
      <trkpt lat="48.13765" lon="-1.39563">
        <ele>100</ele>
        <time>2010-07-29T08:57:20Z</time>
      </trkpt>
      <trkpt lat="48.13762" lon="-1.39528">
        <ele>99</ele>
        <time>2010-07-29T08:57:26Z</time>
      </trkpt>
      <trkpt lat="48.13761" lon="-1.39521">
        <ele>99</ele>
        <time>2010-07-29T08:57:27Z</time>
      </trkpt>
      <trkpt lat="48.1376" lon="-1.39506">
        <ele>99</ele>
        <time>2010-07-29T08:57:29Z</time>
      </trkpt>
      <trkpt lat="48.13755" lon="-1.39469">
        <ele>98</ele>
        <time>2010-07-29T08:57:34Z</time>
      </trkpt>
      <trkpt lat="48.13755" lon="-1.39461">
        <ele>98</ele>
        <time>2010-07-29T08:57:35Z</time>
      </trkpt>
      <trkpt lat="48.13754" lon="-1.39449">
        <ele>97</ele>
        <time>2010-07-29T08:57:36Z</time>
      </trkpt>
      <trkpt lat="48.13754" lon="-1.39433">
        <ele>97</ele>
        <time>2010-07-29T08:57:38Z</time>
      </trkpt>
      <trkpt lat="48.13753" lon="-1.39425">
        <ele>96</ele>
        <time>2010-07-29T08:57:40Z</time>
      </trkpt>
      <trkpt lat="48.13749" lon="-1.3942">
        <ele>96</ele>
        <time>2010-07-29T08:57:42Z</time>
      </trkpt>
      <trkpt lat="48.13749" lon="-1.39416">
        <ele>96</ele>
        <time>2010-07-29T08:57:43Z</time>
      </trkpt>
      <trkpt lat="48.13754" lon="-1.39404">
        <ele>96</ele>
        <time>2010-07-29T08:57:47Z</time>
      </trkpt>
      <trkpt lat="48.13756" lon="-1.39403">
        <ele>96</ele>
        <time>2010-07-29T08:57:48Z</time>
      </trkpt>
      <trkpt lat="48.13763" lon="-1.39398">
        <ele>96</ele>
        <time>2010-07-29T08:57:51Z</time>
      </trkpt>
      <trkpt lat="48.13775" lon="-1.39398">
        <ele>96</ele>
        <time>2010-07-29T08:57:55Z</time>
      </trkpt>
      <trkpt lat="48.13785" lon="-1.39393">
        <ele>96</ele>
        <time>2010-07-29T08:57:59Z</time>
      </trkpt>
      <trkpt lat="48.13796" lon="-1.39377">
        <ele>96</ele>
        <time>2010-07-29T08:58:04Z</time>
      </trkpt>
      <trkpt lat="48.13798" lon="-1.39374">
        <ele>96</ele>
        <time>2010-07-29T08:58:05Z</time>
      </trkpt>
      <trkpt lat="48.13802" lon="-1.39368">
        <ele>96</ele>
        <time>2010-07-29T08:58:07Z</time>
      </trkpt>
      <trkpt lat="48.13802" lon="-1.39365">
        <ele>95</ele>
        <time>2010-07-29T08:58:08Z</time>
      </trkpt>
      <trkpt lat="48.13803" lon="-1.39362">
        <ele>95</ele>
        <time>2010-07-29T08:58:09Z</time>
      </trkpt>
      <trkpt lat="48.13805" lon="-1.39357">
        <ele>95</ele>
        <time>2010-07-29T08:58:11Z</time>
      </trkpt>
      <trkpt lat="48.13806" lon="-1.39354">
        <ele>95</ele>
        <time>2010-07-29T08:58:12Z</time>
      </trkpt>
      <trkpt lat="48.13806" lon="-1.39351">
        <ele>95</ele>
        <time>2010-07-29T08:58:13Z</time>
      </trkpt>
      <trkpt lat="48.13809" lon="-1.39324">
        <ele>94</ele>
        <time>2010-07-29T08:58:19Z</time>
      </trkpt>
      <trkpt lat="48.13811" lon="-1.39315">
        <ele>94</ele>
        <time>2010-07-29T08:58:21Z</time>
      </trkpt>
      <trkpt lat="48.13813" lon="-1.39305">
        <ele>94</ele>
        <time>2010-07-29T08:58:23Z</time>
      </trkpt>
      <trkpt lat="48.13815" lon="-1.39296">
        <ele>94</ele>
        <time>2010-07-29T08:58:25Z</time>
      </trkpt>
      <trkpt lat="48.13816" lon="-1.39288">
        <ele>94</ele>
        <time>2010-07-29T08:58:27Z</time>
      </trkpt>
      <trkpt lat="48.13816" lon="-1.39283">
        <ele>94</ele>
        <time>2010-07-29T08:58:28Z</time>
      </trkpt>
      <trkpt lat="48.13814" lon="-1.39276">
        <ele>93</ele>
        <time>2010-07-29T08:58:30Z</time>
      </trkpt>
      <trkpt lat="48.13812" lon="-1.39264">
        <ele>93</ele>
        <time>2010-07-29T08:58:34Z</time>
      </trkpt>
      <trkpt lat="48.13816" lon="-1.39253">
        <ele>93</ele>
        <time>2010-07-29T08:58:37Z</time>
      </trkpt>
      <trkpt lat="48.13829" lon="-1.39246">
        <ele>94</ele>
        <time>2010-07-29T08:58:41Z</time>
      </trkpt>
      <trkpt lat="48.13836" lon="-1.39236">
        <ele>94</ele>
        <time>2010-07-29T08:58:45Z</time>
      </trkpt>
      <trkpt lat="48.13842" lon="-1.39222">
        <ele>95</ele>
        <time>2010-07-29T08:58:49Z</time>
      </trkpt>
      <trkpt lat="48.13842" lon="-1.3922">
        <ele>95</ele>
        <time>2010-07-29T08:58:50Z</time>
      </trkpt>
      <trkpt lat="48.13848" lon="-1.39212">
        <ele>95</ele>
        <time>2010-07-29T08:58:54Z</time>
      </trkpt>
      <trkpt lat="48.13859" lon="-1.392">
        <ele>96</ele>
        <time>2010-07-29T08:59:00Z</time>
      </trkpt>
      <trkpt lat="48.13866" lon="-1.39195">
        <ele>96</ele>
        <time>2010-07-29T08:59:03Z</time>
      </trkpt>
      <trkpt lat="48.1387" lon="-1.39191">
        <ele>97</ele>
        <time>2010-07-29T08:59:05Z</time>
      </trkpt>
      <trkpt lat="48.13875" lon="-1.39186">
        <ele>97</ele>
        <time>2010-07-29T08:59:07Z</time>
      </trkpt>
      <trkpt lat="48.13878" lon="-1.39181">
        <ele>97</ele>
        <time>2010-07-29T08:59:09Z</time>
      </trkpt>
      <trkpt lat="48.13879" lon="-1.39178">
        <ele>98</ele>
        <time>2010-07-29T08:59:10Z</time>
      </trkpt>
      <trkpt lat="48.1388" lon="-1.39176">
        <ele>98</ele>
        <time>2010-07-29T08:59:11Z</time>
      </trkpt>
      <trkpt lat="48.13881" lon="-1.39173">
        <ele>98</ele>
        <time>2010-07-29T08:59:12Z</time>
      </trkpt>
      <trkpt lat="48.13885" lon="-1.39168">
        <ele>98</ele>
        <time>2010-07-29T08:59:15Z</time>
      </trkpt>
      <trkpt lat="48.13889" lon="-1.39163">
        <ele>98</ele>
        <time>2010-07-29T08:59:17Z</time>
      </trkpt>
      <trkpt lat="48.13891" lon="-1.39157">
        <ele>99</ele>
        <time>2010-07-29T08:59:19Z</time>
      </trkpt>
      <trkpt lat="48.13892" lon="-1.39156">
        <ele>99</ele>
        <time>2010-07-29T08:59:20Z</time>
      </trkpt>
      <trkpt lat="48.139" lon="-1.39145">
        <ele>99</ele>
        <time>2010-07-29T08:59:26Z</time>
      </trkpt>
      <trkpt lat="48.13902" lon="-1.39143">
        <ele>99</ele>
        <time>2010-07-29T08:59:27Z</time>
      </trkpt>
      <trkpt lat="48.13904" lon="-1.3914">
        <ele>99</ele>
        <time>2010-07-29T08:59:29Z</time>
      </trkpt>
      <trkpt lat="48.13907" lon="-1.39137">
        <ele>100</ele>
        <time>2010-07-29T08:59:31Z</time>
      </trkpt>
      <trkpt lat="48.13911" lon="-1.39135">
        <ele>100</ele>
        <time>2010-07-29T08:59:33Z</time>
      </trkpt>
      <trkpt lat="48.13916" lon="-1.3913">
        <ele>100</ele>
        <time>2010-07-29T08:59:35Z</time>
      </trkpt>
      <trkpt lat="48.13926" lon="-1.39124">
        <ele>101</ele>
        <time>2010-07-29T08:59:40Z</time>
      </trkpt>
      <trkpt lat="48.13927" lon="-1.39123">
        <ele>101</ele>
        <time>2010-07-29T08:59:41Z</time>
      </trkpt>
      <trkpt lat="48.1393" lon="-1.39119">
        <ele>101</ele>
        <time>2010-07-29T08:59:43Z</time>
      </trkpt>
      <trkpt lat="48.13932" lon="-1.39116">
        <ele>101</ele>
        <time>2010-07-29T08:59:45Z</time>
      </trkpt>
      <trkpt lat="48.13937" lon="-1.39113">
        <ele>101</ele>
        <time>2010-07-29T08:59:47Z</time>
      </trkpt>
      <trkpt lat="48.1394" lon="-1.39109">
        <ele>102</ele>
        <time>2010-07-29T08:59:49Z</time>
      </trkpt>
      <trkpt lat="48.13951" lon="-1.39099">
        <ele>102</ele>
        <time>2010-07-29T08:59:56Z</time>
      </trkpt>
      <trkpt lat="48.13952" lon="-1.39098">
        <ele>103</ele>
        <time>2010-07-29T08:59:57Z</time>
      </trkpt>
      <trkpt lat="48.13955" lon="-1.39095">
        <ele>103</ele>
        <time>2010-07-29T08:59:59Z</time>
      </trkpt>
      <trkpt lat="48.13956" lon="-1.39093">
        <ele>103</ele>
        <time>2010-07-29T09:00:00Z</time>
      </trkpt>
      <trkpt lat="48.13958" lon="-1.39089">
        <ele>103</ele>
        <time>2010-07-29T09:00:03Z</time>
      </trkpt>
      <trkpt lat="48.1396" lon="-1.39089">
        <ele>103</ele>
        <time>2010-07-29T09:00:04Z</time>
      </trkpt>
      <trkpt lat="48.13962" lon="-1.39087">
        <ele>103</ele>
        <time>2010-07-29T09:00:05Z</time>
      </trkpt>
      <trkpt lat="48.13971" lon="-1.39079">
        <ele>104</ele>
        <time>2010-07-29T09:00:09Z</time>
      </trkpt>
      <trkpt lat="48.13978" lon="-1.39074">
        <ele>104</ele>
        <time>2010-07-29T09:00:13Z</time>
      </trkpt>
      <trkpt lat="48.13979" lon="-1.39073">
        <ele>104</ele>
        <time>2010-07-29T09:00:14Z</time>
      </trkpt>
      <trkpt lat="48.13983" lon="-1.39069">
        <ele>105</ele>
        <time>2010-07-29T09:00:16Z</time>
      </trkpt>
      <trkpt lat="48.13987" lon="-1.39066">
        <ele>105</ele>
        <time>2010-07-29T09:00:18Z</time>
      </trkpt>
      <trkpt lat="48.13991" lon="-1.39064">
        <ele>105</ele>
        <time>2010-07-29T09:00:20Z</time>
      </trkpt>
      <trkpt lat="48.13995" lon="-1.3906">
        <ele>105</ele>
        <time>2010-07-29T09:00:22Z</time>
      </trkpt>
      <trkpt lat="48.14007" lon="-1.39052">
        <ele>106</ele>
        <time>2010-07-29T09:00:28Z</time>
      </trkpt>
      <trkpt lat="48.14011" lon="-1.39051">
        <ele>106</ele>
        <time>2010-07-29T09:00:30Z</time>
      </trkpt>
      <trkpt lat="48.14016" lon="-1.39048">
        <ele>107</ele>
        <time>2010-07-29T09:00:33Z</time>
      </trkpt>
      <trkpt lat="48.14022" lon="-1.39037">
        <ele>107</ele>
        <time>2010-07-29T09:00:36Z</time>
      </trkpt>
      <trkpt lat="48.14024" lon="-1.39033">
        <ele>107</ele>
        <time>2010-07-29T09:00:37Z</time>
      </trkpt>
      <trkpt lat="48.14028" lon="-1.39029">
        <ele>108</ele>
        <time>2010-07-29T09:00:39Z</time>
      </trkpt>
      <trkpt lat="48.14032" lon="-1.39023">
        <ele>108</ele>
        <time>2010-07-29T09:00:42Z</time>
      </trkpt>
      <trkpt lat="48.1403" lon="-1.3902">
        <ele>108</ele>
        <time>2010-07-29T09:00:44Z</time>
      </trkpt>
      <trkpt lat="48.14027" lon="-1.39014">
        <ele>108</ele>
        <time>2010-07-29T09:00:49Z</time>
      </trkpt>
      <trkpt lat="48.14025" lon="-1.39008">
        <ele>108</ele>
        <time>2010-07-29T09:00:51Z</time>
      </trkpt>
      <trkpt lat="48.14019" lon="-1.38996">
        <ele>107</ele>
        <time>2010-07-29T09:00:56Z</time>
      </trkpt>
      <trkpt lat="48.1402" lon="-1.38983">
        <ele>108</ele>
        <time>2010-07-29T09:01:01Z</time>
      </trkpt>
      <trkpt lat="48.14022" lon="-1.38962">
        <ele>108</ele>
        <time>2010-07-29T09:01:05Z</time>
      </trkpt>
      <trkpt lat="48.14023" lon="-1.38957">
        <ele>108</ele>
        <time>2010-07-29T09:01:06Z</time>
      </trkpt>
      <trkpt lat="48.14021" lon="-1.38951">
        <ele>108</ele>
        <time>2010-07-29T09:01:09Z</time>
      </trkpt>
      <trkpt lat="48.14016" lon="-1.3894">
        <ele>108</ele>
        <time>2010-07-29T09:01:13Z</time>
      </trkpt>
      <trkpt lat="48.14001" lon="-1.38925">
        <ele>107</ele>
        <time>2010-07-29T09:01:19Z</time>
      </trkpt>
      <trkpt lat="48.13991" lon="-1.38906">
        <ele>107</ele>
        <time>2010-07-29T09:01:25Z</time>
      </trkpt>
      <trkpt lat="48.13987" lon="-1.38899">
        <ele>107</ele>
        <time>2010-07-29T09:01:28Z</time>
      </trkpt>
      <trkpt lat="48.13986" lon="-1.38885">
        <ele>108</ele>
        <time>2010-07-29T09:01:32Z</time>
      </trkpt>
      <trkpt lat="48.13988" lon="-1.3887">
        <ele>108</ele>
        <time>2010-07-29T09:01:38Z</time>
      </trkpt>
      <trkpt lat="48.13986" lon="-1.38866">
        <ele>108</ele>
        <time>2010-07-29T09:01:41Z</time>
      </trkpt>
      <trkpt lat="48.13978" lon="-1.3884">
        <ele>109</ele>
        <time>2010-07-29T09:01:47Z</time>
      </trkpt>
      <trkpt lat="48.13976" lon="-1.38837">
        <ele>109</ele>
        <time>2010-07-29T09:01:48Z</time>
      </trkpt>
      <trkpt lat="48.13962" lon="-1.38815">
        <ele>109</ele>
        <time>2010-07-29T09:01:54Z</time>
      </trkpt>
      <trkpt lat="48.13945" lon="-1.38794">
        <ele>108</ele>
        <time>2010-07-29T09:01:59Z</time>
      </trkpt>
      <trkpt lat="48.13942" lon="-1.38788">
        <ele>108</ele>
        <time>2010-07-29T09:02:01Z</time>
      </trkpt>
      <trkpt lat="48.13938" lon="-1.38775">
        <ele>108</ele>
        <time>2010-07-29T09:02:05Z</time>
      </trkpt>
      <trkpt lat="48.13924" lon="-1.38744">
        <ele>107</ele>
        <time>2010-07-29T09:02:12Z</time>
      </trkpt>
      <trkpt lat="48.13915" lon="-1.38724">
        <ele>107</ele>
        <time>2010-07-29T09:02:17Z</time>
      </trkpt>
      <trkpt lat="48.13907" lon="-1.38705">
        <ele>107</ele>
        <time>2010-07-29T09:02:22Z</time>
      </trkpt>
      <trkpt lat="48.13899" lon="-1.38687">
        <ele>106</ele>
        <time>2010-07-29T09:02:26Z</time>
      </trkpt>
      <trkpt lat="48.13888" lon="-1.38664">
        <ele>106</ele>
        <time>2010-07-29T09:02:31Z</time>
      </trkpt>
      <trkpt lat="48.13878" lon="-1.38639">
        <ele>105</ele>
        <time>2010-07-29T09:02:36Z</time>
      </trkpt>
      <trkpt lat="48.13867" lon="-1.38615">
        <ele>104</ele>
        <time>2010-07-29T09:02:41Z</time>
      </trkpt>
      <trkpt lat="48.13863" lon="-1.38605">
        <ele>104</ele>
        <time>2010-07-29T09:02:43Z</time>
      </trkpt>
      <trkpt lat="48.1386" lon="-1.38595">
        <ele>104</ele>
        <time>2010-07-29T09:02:45Z</time>
      </trkpt>
      <trkpt lat="48.13855" lon="-1.38585">
        <ele>104</ele>
        <time>2010-07-29T09:02:47Z</time>
      </trkpt>
      <trkpt lat="48.13851" lon="-1.38575">
        <ele>103</ele>
        <time>2010-07-29T09:02:49Z</time>
      </trkpt>
      <trkpt lat="48.13841" lon="-1.38555">
        <ele>103</ele>
        <time>2010-07-29T09:02:54Z</time>
      </trkpt>
      <trkpt lat="48.13834" lon="-1.38533">
        <ele>103</ele>
        <time>2010-07-29T09:02:59Z</time>
      </trkpt>
      <trkpt lat="48.13819" lon="-1.38505">
        <ele>102</ele>
        <time>2010-07-29T09:03:05Z</time>
      </trkpt>
      <trkpt lat="48.13817" lon="-1.385">
        <ele>102</ele>
        <time>2010-07-29T09:03:06Z</time>
      </trkpt>
      <trkpt lat="48.13815" lon="-1.38493">
        <ele>102</ele>
        <time>2010-07-29T09:03:08Z</time>
      </trkpt>
      <trkpt lat="48.13814" lon="-1.38491">
        <ele>102</ele>
        <time>2010-07-29T09:03:09Z</time>
      </trkpt>
      <trkpt lat="48.13814" lon="-1.38481">
        <ele>102</ele>
        <time>2010-07-29T09:03:12Z</time>
      </trkpt>
      <trkpt lat="48.13813" lon="-1.38471">
        <ele>102</ele>
        <time>2010-07-29T09:03:14Z</time>
      </trkpt>
      <trkpt lat="48.13813" lon="-1.38466">
        <ele>102</ele>
        <time>2010-07-29T09:03:15Z</time>
      </trkpt>
      <trkpt lat="48.13818" lon="-1.38455">
        <ele>103</ele>
        <time>2010-07-29T09:03:19Z</time>
      </trkpt>
      <trkpt lat="48.13824" lon="-1.38441">
        <ele>103</ele>
        <time>2010-07-29T09:03:23Z</time>
      </trkpt>
      <trkpt lat="48.13834" lon="-1.38425">
        <ele>104</ele>
        <time>2010-07-29T09:03:29Z</time>
      </trkpt>
      <trkpt lat="48.13838" lon="-1.38422">
        <ele>104</ele>
        <time>2010-07-29T09:03:31Z</time>
      </trkpt>
      <trkpt lat="48.13843" lon="-1.38419">
        <ele>105</ele>
        <time>2010-07-29T09:03:33Z</time>
      </trkpt>
      <trkpt lat="48.13847" lon="-1.38414">
        <ele>105</ele>
        <time>2010-07-29T09:03:35Z</time>
      </trkpt>
      <trkpt lat="48.13851" lon="-1.3841">
        <ele>105</ele>
        <time>2010-07-29T09:03:37Z</time>
      </trkpt>
      <trkpt lat="48.13855" lon="-1.38406">
        <ele>106</ele>
        <time>2010-07-29T09:03:39Z</time>
      </trkpt>
      <trkpt lat="48.13864" lon="-1.38397">
        <ele>106</ele>
        <time>2010-07-29T09:03:44Z</time>
      </trkpt>
      <trkpt lat="48.13867" lon="-1.38396">
        <ele>106</ele>
        <time>2010-07-29T09:03:45Z</time>
      </trkpt>
      <trkpt lat="48.13871" lon="-1.38393">
        <ele>107</ele>
        <time>2010-07-29T09:03:47Z</time>
      </trkpt>
      <trkpt lat="48.13874" lon="-1.38389">
        <ele>107</ele>
        <time>2010-07-29T09:03:49Z</time>
      </trkpt>
      <trkpt lat="48.13876" lon="-1.38387">
        <ele>107</ele>
        <time>2010-07-29T09:03:50Z</time>
      </trkpt>
      <trkpt lat="48.13877" lon="-1.38384">
        <ele>107</ele>
        <time>2010-07-29T09:03:52Z</time>
      </trkpt>
      <trkpt lat="48.13887" lon="-1.38373">
        <ele>108</ele>
        <time>2010-07-29T09:03:58Z</time>
      </trkpt>
      <trkpt lat="48.13895" lon="-1.38366">
        <ele>108</ele>
        <time>2010-07-29T09:04:01Z</time>
      </trkpt>
      <trkpt lat="48.13898" lon="-1.38364">
        <ele>108</ele>
        <time>2010-07-29T09:04:02Z</time>
      </trkpt>
      <trkpt lat="48.13905" lon="-1.38359">
        <ele>109</ele>
        <time>2010-07-29T09:04:05Z</time>
      </trkpt>
      <trkpt lat="48.13907" lon="-1.38357">
        <ele>109</ele>
        <time>2010-07-29T09:04:06Z</time>
      </trkpt>
      <trkpt lat="48.13911" lon="-1.38352">
        <ele>109</ele>
        <time>2010-07-29T09:04:09Z</time>
      </trkpt>
      <trkpt lat="48.13921" lon="-1.38343">
        <ele>110</ele>
        <time>2010-07-29T09:04:14Z</time>
      </trkpt>
      <trkpt lat="48.1393" lon="-1.38332">
        <ele>110</ele>
        <time>2010-07-29T09:04:20Z</time>
      </trkpt>
      <trkpt lat="48.13932" lon="-1.3833">
        <ele>110</ele>
        <time>2010-07-29T09:04:21Z</time>
      </trkpt>
      <trkpt lat="48.13934" lon="-1.38328">
        <ele>111</ele>
        <time>2010-07-29T09:04:22Z</time>
      </trkpt>
      <trkpt lat="48.13938" lon="-1.38326">
        <ele>111</ele>
        <time>2010-07-29T09:04:24Z</time>
      </trkpt>
      <trkpt lat="48.13942" lon="-1.38324">
        <ele>111</ele>
        <time>2010-07-29T09:04:26Z</time>
      </trkpt>
      <trkpt lat="48.13945" lon="-1.38321">
        <ele>111</ele>
        <time>2010-07-29T09:04:28Z</time>
      </trkpt>
      <trkpt lat="48.13949" lon="-1.38318">
        <ele>111</ele>
        <time>2010-07-29T09:04:30Z</time>
      </trkpt>
      <trkpt lat="48.1396" lon="-1.38307">
        <ele>112</ele>
        <time>2010-07-29T09:04:35Z</time>
      </trkpt>
      <trkpt lat="48.13969" lon="-1.38295">
        <ele>112</ele>
        <time>2010-07-29T09:04:41Z</time>
      </trkpt>
      <trkpt lat="48.13979" lon="-1.38285">
        <ele>112</ele>
        <time>2010-07-29T09:04:46Z</time>
      </trkpt>
      <trkpt lat="48.13991" lon="-1.38276">
        <ele>112</ele>
        <time>2010-07-29T09:04:50Z</time>
      </trkpt>
      <trkpt lat="48.14001" lon="-1.38265">
        <ele>112</ele>
        <time>2010-07-29T09:04:54Z</time>
      </trkpt>
      <trkpt lat="48.14003" lon="-1.38262">
        <ele>112</ele>
        <time>2010-07-29T09:04:55Z</time>
      </trkpt>
      <trkpt lat="48.14009" lon="-1.38257">
        <ele>112</ele>
        <time>2010-07-29T09:04:58Z</time>
      </trkpt>
      <trkpt lat="48.14016" lon="-1.38253">
        <ele>112</ele>
        <time>2010-07-29T09:05:01Z</time>
      </trkpt>
      <trkpt lat="48.14034" lon="-1.38238">
        <ele>111</ele>
        <time>2010-07-29T09:05:09Z</time>
      </trkpt>
      <trkpt lat="48.14048" lon="-1.38224">
        <ele>111</ele>
        <time>2010-07-29T09:05:14Z</time>
      </trkpt>
      <trkpt lat="48.14064" lon="-1.38205">
        <ele>109</ele>
        <time>2010-07-29T09:05:19Z</time>
      </trkpt>
      <trkpt lat="48.14077" lon="-1.38192">
        <ele>107</ele>
        <time>2010-07-29T09:05:22Z</time>
      </trkpt>
      <trkpt lat="48.14102" lon="-1.38169">
        <ele>104</ele>
        <time>2010-07-29T09:05:25Z</time>
      </trkpt>
      <trkpt lat="48.14108" lon="-1.38161">
        <ele>103</ele>
        <time>2010-07-29T09:05:26Z</time>
      </trkpt>
      <trkpt lat="48.14124" lon="-1.38149">
        <ele>101</ele>
        <time>2010-07-29T09:05:28Z</time>
      </trkpt>
      <trkpt lat="48.14141" lon="-1.38134">
        <ele>100</ele>
        <time>2010-07-29T09:05:30Z</time>
      </trkpt>
      <trkpt lat="48.14158" lon="-1.38119">
        <ele>98</ele>
        <time>2010-07-29T09:05:32Z</time>
      </trkpt>
      <trkpt lat="48.14166" lon="-1.38111">
        <ele>97</ele>
        <time>2010-07-29T09:05:33Z</time>
      </trkpt>
      <trkpt lat="48.14183" lon="-1.38094">
        <ele>95</ele>
        <time>2010-07-29T09:05:35Z</time>
      </trkpt>
      <trkpt lat="48.14191" lon="-1.38086">
        <ele>94</ele>
        <time>2010-07-29T09:05:36Z</time>
      </trkpt>
      <trkpt lat="48.14207" lon="-1.38068">
        <ele>92</ele>
        <time>2010-07-29T09:05:38Z</time>
      </trkpt>
      <trkpt lat="48.14214" lon="-1.38059">
        <ele>91</ele>
        <time>2010-07-29T09:05:39Z</time>
      </trkpt>
      <trkpt lat="48.14231" lon="-1.38041">
        <ele>89</ele>
        <time>2010-07-29T09:05:41Z</time>
      </trkpt>
      <trkpt lat="48.14238" lon="-1.38034">
        <ele>89</ele>
        <time>2010-07-29T09:05:42Z</time>
      </trkpt>
      <trkpt lat="48.14244" lon="-1.38028">
        <ele>88</ele>
        <time>2010-07-29T09:05:43Z</time>
      </trkpt>
      <trkpt lat="48.14246" lon="-1.38017">
        <ele>87</ele>
        <time>2010-07-29T09:05:45Z</time>
      </trkpt>
      <trkpt lat="48.1424" lon="-1.38006">
        <ele>88</ele>
        <time>2010-07-29T09:05:47Z</time>
      </trkpt>
      <trkpt lat="48.14235" lon="-1.37998">
        <ele>88</ele>
        <time>2010-07-29T09:05:49Z</time>
      </trkpt>
      <trkpt lat="48.14232" lon="-1.37985">
        <ele>88</ele>
        <time>2010-07-29T09:05:51Z</time>
      </trkpt>
      <trkpt lat="48.14238" lon="-1.37967">
        <ele>87</ele>
        <time>2010-07-29T09:05:53Z</time>
      </trkpt>
      <trkpt lat="48.14243" lon="-1.37956">
        <ele>86</ele>
        <time>2010-07-29T09:05:54Z</time>
      </trkpt>
      <trkpt lat="48.14249" lon="-1.37947">
        <ele>85</ele>
        <time>2010-07-29T09:05:55Z</time>
      </trkpt>
      <trkpt lat="48.14256" lon="-1.37938">
        <ele>84</ele>
        <time>2010-07-29T09:05:56Z</time>
      </trkpt>
      <trkpt lat="48.14263" lon="-1.37929">
        <ele>83</ele>
        <time>2010-07-29T09:05:57Z</time>
      </trkpt>
      <trkpt lat="48.14279" lon="-1.37911">
        <ele>82</ele>
        <time>2010-07-29T09:05:59Z</time>
      </trkpt>
      <trkpt lat="48.14294" lon="-1.37891">
        <ele>80</ele>
        <time>2010-07-29T09:06:01Z</time>
      </trkpt>
      <trkpt lat="48.14309" lon="-1.37873">
        <ele>79</ele>
        <time>2010-07-29T09:06:03Z</time>
      </trkpt>
      <trkpt lat="48.14324" lon="-1.37859">
        <ele>79</ele>
        <time>2010-07-29T09:06:05Z</time>
      </trkpt>
      <trkpt lat="48.14332" lon="-1.37854">
        <ele>79</ele>
        <time>2010-07-29T09:06:06Z</time>
      </trkpt>
      <trkpt lat="48.14344" lon="-1.37845">
        <ele>79</ele>
        <time>2010-07-29T09:06:08Z</time>
      </trkpt>
      <trkpt lat="48.14349" lon="-1.3784">
        <ele>79</ele>
        <time>2010-07-29T09:06:09Z</time>
      </trkpt>
      <trkpt lat="48.14356" lon="-1.37835">
        <ele>80</ele>
        <time>2010-07-29T09:06:12Z</time>
      </trkpt>
      <trkpt lat="48.14358" lon="-1.37836">
        <ele>80</ele>
        <time>2010-07-29T09:06:14Z</time>
      </trkpt>
      <trkpt lat="48.14359" lon="-1.37836">
        <ele>80</ele>
        <time>2010-07-29T09:06:16Z</time>
      </trkpt>
      <trkpt lat="48.14367" lon="-1.37852">
        <ele>80</ele>
        <time>2010-07-29T09:06:22Z</time>
      </trkpt>
      <trkpt lat="48.14376" lon="-1.37859">
        <ele>80</ele>
        <time>2010-07-29T09:06:26Z</time>
      </trkpt>
      <trkpt lat="48.14384" lon="-1.37854">
        <ele>81</ele>
        <time>2010-07-29T09:06:31Z</time>
      </trkpt>
      <trkpt lat="48.14391" lon="-1.37853">
        <ele>81</ele>
        <time>2010-07-29T09:06:34Z</time>
      </trkpt>
      <trkpt lat="48.14395" lon="-1.37851">
        <ele>81</ele>
        <time>2010-07-29T09:06:36Z</time>
      </trkpt>
      <trkpt lat="48.144" lon="-1.37847">
        <ele>82</ele>
        <time>2010-07-29T09:06:38Z</time>
      </trkpt>
      <trkpt lat="48.14404" lon="-1.37844">
        <ele>82</ele>
        <time>2010-07-29T09:06:40Z</time>
      </trkpt>
      <trkpt lat="48.14405" lon="-1.37843">
        <ele>82</ele>
        <time>2010-07-29T09:06:42Z</time>
      </trkpt>
      <trkpt lat="48.14414" lon="-1.37835">
        <ele>83</ele>
        <time>2010-07-29T09:06:46Z</time>
      </trkpt>
      <trkpt lat="48.14418" lon="-1.3783">
        <ele>83</ele>
        <time>2010-07-29T09:06:49Z</time>
      </trkpt>
      <trkpt lat="48.14419" lon="-1.37829">
        <ele>83</ele>
        <time>2010-07-29T09:06:50Z</time>
      </trkpt>
      <trkpt lat="48.1442" lon="-1.37828">
        <ele>83</ele>
        <time>2010-07-29T09:06:52Z</time>
      </trkpt>
      <trkpt lat="48.14423" lon="-1.37823">
        <ele>84</ele>
        <time>2010-07-29T09:06:54Z</time>
      </trkpt>
      <trkpt lat="48.14428" lon="-1.37819">
        <ele>84</ele>
        <time>2010-07-29T09:06:56Z</time>
      </trkpt>
      <trkpt lat="48.14433" lon="-1.37816">
        <ele>84</ele>
        <time>2010-07-29T09:06:58Z</time>
      </trkpt>
      <trkpt lat="48.14442" lon="-1.37811">
        <ele>85</ele>
        <time>2010-07-29T09:07:02Z</time>
      </trkpt>
      <trkpt lat="48.14459" lon="-1.37801">
        <ele>86</ele>
        <time>2010-07-29T09:07:08Z</time>
      </trkpt>
      <trkpt lat="48.14465" lon="-1.378">
        <ele>86</ele>
        <time>2010-07-29T09:07:10Z</time>
      </trkpt>
      <trkpt lat="48.14473" lon="-1.37797">
        <ele>87</ele>
        <time>2010-07-29T09:07:12Z</time>
      </trkpt>
      <trkpt lat="48.14475" lon="-1.37794">
        <ele>87</ele>
        <time>2010-07-29T09:07:13Z</time>
      </trkpt>
      <trkpt lat="48.14479" lon="-1.37789">
        <ele>87</ele>
        <time>2010-07-29T09:07:16Z</time>
      </trkpt>
      <trkpt lat="48.14487" lon="-1.37784">
        <ele>87</ele>
        <time>2010-07-29T09:07:20Z</time>
      </trkpt>
      <trkpt lat="48.14489" lon="-1.37782">
        <ele>87</ele>
        <time>2010-07-29T09:07:21Z</time>
      </trkpt>
      <trkpt lat="48.14492" lon="-1.37781">
        <ele>88</ele>
        <time>2010-07-29T09:07:23Z</time>
      </trkpt>
      <trkpt lat="48.14502" lon="-1.37768">
        <ele>88</ele>
        <time>2010-07-29T09:07:29Z</time>
      </trkpt>
      <trkpt lat="48.14507" lon="-1.37763">
        <ele>89</ele>
        <time>2010-07-29T09:07:31Z</time>
      </trkpt>
      <trkpt lat="48.1451" lon="-1.37758">
        <ele>89</ele>
        <time>2010-07-29T09:07:33Z</time>
      </trkpt>
      <trkpt lat="48.14515" lon="-1.37751">
        <ele>89</ele>
        <time>2010-07-29T09:07:35Z</time>
      </trkpt>
      <trkpt lat="48.14519" lon="-1.37746">
        <ele>89</ele>
        <time>2010-07-29T09:07:37Z</time>
      </trkpt>
      <trkpt lat="48.14526" lon="-1.37736">
        <ele>90</ele>
        <time>2010-07-29T09:07:42Z</time>
      </trkpt>
      <trkpt lat="48.14541" lon="-1.37726">
        <ele>91</ele>
        <time>2010-07-29T09:07:46Z</time>
      </trkpt>
      <trkpt lat="48.14552" lon="-1.37716">
        <ele>91</ele>
        <time>2010-07-29T09:07:50Z</time>
      </trkpt>
      <trkpt lat="48.14554" lon="-1.37714">
        <ele>91</ele>
        <time>2010-07-29T09:07:51Z</time>
      </trkpt>
      <trkpt lat="48.14558" lon="-1.3771">
        <ele>91</ele>
        <time>2010-07-29T09:07:53Z</time>
      </trkpt>
      <trkpt lat="48.14561" lon="-1.37707">
        <ele>92</ele>
        <time>2010-07-29T09:07:55Z</time>
      </trkpt>
      <trkpt lat="48.14562" lon="-1.37706">
        <ele>92</ele>
        <time>2010-07-29T09:07:56Z</time>
      </trkpt>
      <trkpt lat="48.14567" lon="-1.37705">
        <ele>92</ele>
        <time>2010-07-29T09:07:57Z</time>
      </trkpt>
      <trkpt lat="48.14577" lon="-1.37702">
        <ele>92</ele>
        <time>2010-07-29T09:07:59Z</time>
      </trkpt>
      <trkpt lat="48.14579" lon="-1.377">
        <ele>92</ele>
        <time>2010-07-29T09:08:00Z</time>
      </trkpt>
      <trkpt lat="48.14583" lon="-1.37691">
        <ele>92</ele>
        <time>2010-07-29T09:08:03Z</time>
      </trkpt>
      <trkpt lat="48.14586" lon="-1.37685">
        <ele>93</ele>
        <time>2010-07-29T09:08:05Z</time>
      </trkpt>
      <trkpt lat="48.14593" lon="-1.37682">
        <ele>93</ele>
        <time>2010-07-29T09:08:07Z</time>
      </trkpt>
      <trkpt lat="48.146" lon="-1.37679">
        <ele>93</ele>
        <time>2010-07-29T09:08:09Z</time>
      </trkpt>
      <trkpt lat="48.14603" lon="-1.37677">
        <ele>93</ele>
        <time>2010-07-29T09:08:10Z</time>
      </trkpt>
      <trkpt lat="48.14611" lon="-1.3767">
        <ele>94</ele>
        <time>2010-07-29T09:08:15Z</time>
      </trkpt>
      <trkpt lat="48.14617" lon="-1.37658">
        <ele>94</ele>
        <time>2010-07-29T09:08:20Z</time>
      </trkpt>
      <trkpt lat="48.14619" lon="-1.37655">
        <ele>94</ele>
        <time>2010-07-29T09:08:21Z</time>
      </trkpt>
      <trkpt lat="48.14626" lon="-1.37647">
        <ele>94</ele>
        <time>2010-07-29T09:08:25Z</time>
      </trkpt>
      <trkpt lat="48.14627" lon="-1.37645">
        <ele>94</ele>
        <time>2010-07-29T09:08:26Z</time>
      </trkpt>
      <trkpt lat="48.14641" lon="-1.37635">
        <ele>95</ele>
        <time>2010-07-29T09:08:31Z</time>
      </trkpt>
      <trkpt lat="48.14646" lon="-1.37631">
        <ele>95</ele>
        <time>2010-07-29T09:08:33Z</time>
      </trkpt>
      <trkpt lat="48.14651" lon="-1.37627">
        <ele>95</ele>
        <time>2010-07-29T09:08:35Z</time>
      </trkpt>
      <trkpt lat="48.14655" lon="-1.37622">
        <ele>96</ele>
        <time>2010-07-29T09:08:37Z</time>
      </trkpt>
      <trkpt lat="48.14658" lon="-1.37621">
        <ele>96</ele>
        <time>2010-07-29T09:08:38Z</time>
      </trkpt>
      <trkpt lat="48.14673" lon="-1.37611">
        <ele>96</ele>
        <time>2010-07-29T09:08:44Z</time>
      </trkpt>
      <trkpt lat="48.14675" lon="-1.37608">
        <ele>96</ele>
        <time>2010-07-29T09:08:45Z</time>
      </trkpt>
      <trkpt lat="48.14683" lon="-1.37595">
        <ele>97</ele>
        <time>2010-07-29T09:08:50Z</time>
      </trkpt>
      <trkpt lat="48.14684" lon="-1.37593">
        <ele>97</ele>
        <time>2010-07-29T09:08:51Z</time>
      </trkpt>
      <trkpt lat="48.14686" lon="-1.37592">
        <ele>97</ele>
        <time>2010-07-29T09:08:52Z</time>
      </trkpt>
      <trkpt lat="48.14688" lon="-1.37591">
        <ele>97</ele>
        <time>2010-07-29T09:08:53Z</time>
      </trkpt>
      <trkpt lat="48.14689" lon="-1.37586">
        <ele>97</ele>
        <time>2010-07-29T09:08:56Z</time>
      </trkpt>
      <trkpt lat="48.1469" lon="-1.37584">
        <ele>97</ele>
        <time>2010-07-29T09:08:58Z</time>
      </trkpt>
      <trkpt lat="48.1469" lon="-1.37575">
        <ele>97</ele>
        <time>2010-07-29T09:09:02Z</time>
      </trkpt>
      <trkpt lat="48.14695" lon="-1.37555">
        <ele>97</ele>
        <time>2010-07-29T09:09:08Z</time>
      </trkpt>
      <trkpt lat="48.14688" lon="-1.37534">
        <ele>96</ele>
        <time>2010-07-29T09:09:12Z</time>
      </trkpt>
      <trkpt lat="48.14678" lon="-1.37517">
        <ele>96</ele>
        <time>2010-07-29T09:09:16Z</time>
      </trkpt>
      <trkpt lat="48.14677" lon="-1.37511">
        <ele>96</ele>
        <time>2010-07-29T09:09:18Z</time>
      </trkpt>
      <trkpt lat="48.14677" lon="-1.37503">
        <ele>96</ele>
        <time>2010-07-29T09:09:20Z</time>
      </trkpt>
      <trkpt lat="48.14676" lon="-1.37496">
        <ele>96</ele>
        <time>2010-07-29T09:09:21Z</time>
      </trkpt>
      <trkpt lat="48.14675" lon="-1.37489">
        <ele>95</ele>
        <time>2010-07-29T09:09:22Z</time>
      </trkpt>
      <trkpt lat="48.1467" lon="-1.37474">
        <ele>95</ele>
        <time>2010-07-29T09:09:24Z</time>
      </trkpt>
      <trkpt lat="48.14658" lon="-1.37456">
        <ele>94</ele>
        <time>2010-07-29T09:09:28Z</time>
      </trkpt>
      <trkpt lat="48.14655" lon="-1.37452">
        <ele>94</ele>
        <time>2010-07-29T09:09:29Z</time>
      </trkpt>
      <trkpt lat="48.14649" lon="-1.37442">
        <ele>94</ele>
        <time>2010-07-29T09:09:31Z</time>
      </trkpt>
      <trkpt lat="48.14643" lon="-1.37432">
        <ele>93</ele>
        <time>2010-07-29T09:09:33Z</time>
      </trkpt>
      <trkpt lat="48.14638" lon="-1.3742">
        <ele>93</ele>
        <time>2010-07-29T09:09:35Z</time>
      </trkpt>
      <trkpt lat="48.14633" lon="-1.37406">
        <ele>92</ele>
        <time>2010-07-29T09:09:37Z</time>
      </trkpt>
      <trkpt lat="48.14624" lon="-1.37378">
        <ele>92</ele>
        <time>2010-07-29T09:09:41Z</time>
      </trkpt>
      <trkpt lat="48.14613" lon="-1.3735">
        <ele>91</ele>
        <time>2010-07-29T09:09:45Z</time>
      </trkpt>
      <trkpt lat="48.14611" lon="-1.37343">
        <ele>91</ele>
        <time>2010-07-29T09:09:46Z</time>
      </trkpt>
      <trkpt lat="48.14594" lon="-1.3732">
        <ele>90</ele>
        <time>2010-07-29T09:09:50Z</time>
      </trkpt>
      <trkpt lat="48.14592" lon="-1.37314">
        <ele>90</ele>
        <time>2010-07-29T09:09:51Z</time>
      </trkpt>
      <trkpt lat="48.14592" lon="-1.37309">
        <ele>90</ele>
        <time>2010-07-29T09:09:52Z</time>
      </trkpt>
      <trkpt lat="48.14593" lon="-1.37294">
        <ele>90</ele>
        <time>2010-07-29T09:09:55Z</time>
      </trkpt>
      <trkpt lat="48.14595" lon="-1.37283">
        <ele>90</ele>
        <time>2010-07-29T09:09:57Z</time>
      </trkpt>
      <trkpt lat="48.14595" lon="-1.37269">
        <ele>90</ele>
        <time>2010-07-29T09:09:59Z</time>
      </trkpt>
      <trkpt lat="48.14594" lon="-1.37246">
        <ele>90</ele>
        <time>2010-07-29T09:10:03Z</time>
      </trkpt>
      <trkpt lat="48.14591" lon="-1.37232">
        <ele>90</ele>
        <time>2010-07-29T09:10:07Z</time>
      </trkpt>
      <trkpt lat="48.14592" lon="-1.37212">
        <ele>90</ele>
        <time>2010-07-29T09:10:12Z</time>
      </trkpt>
      <trkpt lat="48.14593" lon="-1.37199">
        <ele>90</ele>
        <time>2010-07-29T09:10:15Z</time>
      </trkpt>
      <trkpt lat="48.146" lon="-1.37174">
        <ele>90</ele>
        <time>2010-07-29T09:10:19Z</time>
      </trkpt>
      <trkpt lat="48.14603" lon="-1.37149">
        <ele>90</ele>
        <time>2010-07-29T09:10:23Z</time>
      </trkpt>
      <trkpt lat="48.14606" lon="-1.37119">
        <ele>90</ele>
        <time>2010-07-29T09:10:27Z</time>
      </trkpt>
      <trkpt lat="48.14605" lon="-1.37114">
        <ele>90</ele>
        <time>2010-07-29T09:10:28Z</time>
      </trkpt>
      <trkpt lat="48.14609" lon="-1.37088">
        <ele>90</ele>
        <time>2010-07-29T09:10:33Z</time>
      </trkpt>
      <trkpt lat="48.14609" lon="-1.37074">
        <ele>90</ele>
        <time>2010-07-29T09:10:36Z</time>
      </trkpt>
      <trkpt lat="48.14616" lon="-1.37039">
        <ele>90</ele>
        <time>2010-07-29T09:10:42Z</time>
      </trkpt>
      <trkpt lat="48.14623" lon="-1.37024">
        <ele>90</ele>
        <time>2010-07-29T09:10:46Z</time>
      </trkpt>
      <trkpt lat="48.14634" lon="-1.37">
        <ele>90</ele>
        <time>2010-07-29T09:10:51Z</time>
      </trkpt>
      <trkpt lat="48.14643" lon="-1.3698">
        <ele>90</ele>
        <time>2010-07-29T09:10:55Z</time>
      </trkpt>
      <trkpt lat="48.14648" lon="-1.36961">
        <ele>90</ele>
        <time>2010-07-29T09:10:59Z</time>
      </trkpt>
      <trkpt lat="48.14654" lon="-1.36944">
        <ele>90</ele>
        <time>2010-07-29T09:11:03Z</time>
      </trkpt>
      <trkpt lat="48.14658" lon="-1.36923">
        <ele>89</ele>
        <time>2010-07-29T09:11:07Z</time>
      </trkpt>
      <trkpt lat="48.14665" lon="-1.36895">
        <ele>89</ele>
        <time>2010-07-29T09:11:12Z</time>
      </trkpt>
      <trkpt lat="48.14667" lon="-1.36883">
        <ele>88</ele>
        <time>2010-07-29T09:11:14Z</time>
      </trkpt>
      <trkpt lat="48.14675" lon="-1.3686">
        <ele>88</ele>
        <time>2010-07-29T09:11:19Z</time>
      </trkpt>
      <trkpt lat="48.14674" lon="-1.36854">
        <ele>88</ele>
        <time>2010-07-29T09:11:20Z</time>
      </trkpt>
      <trkpt lat="48.14674" lon="-1.36846">
        <ele>88</ele>
        <time>2010-07-29T09:11:21Z</time>
      </trkpt>
      <trkpt lat="48.1467" lon="-1.36826">
        <ele>86</ele>
        <time>2010-07-29T09:11:23Z</time>
      </trkpt>
      <trkpt lat="48.14664" lon="-1.368">
        <ele>85</ele>
        <time>2010-07-29T09:11:26Z</time>
      </trkpt>
      <trkpt lat="48.14661" lon="-1.36793">
        <ele>84</ele>
        <time>2010-07-29T09:11:27Z</time>
      </trkpt>
      <trkpt lat="48.14658" lon="-1.36786">
        <ele>84</ele>
        <time>2010-07-29T09:11:28Z</time>
      </trkpt>
      <trkpt lat="48.14653" lon="-1.36773">
        <ele>83</ele>
        <time>2010-07-29T09:11:30Z</time>
      </trkpt>
      <trkpt lat="48.14655" lon="-1.36763">
        <ele>83</ele>
        <time>2010-07-29T09:11:32Z</time>
      </trkpt>
      <trkpt lat="48.14658" lon="-1.36749">
        <ele>82</ele>
        <time>2010-07-29T09:11:34Z</time>
      </trkpt>
      <trkpt lat="48.14659" lon="-1.36741">
        <ele>82</ele>
        <time>2010-07-29T09:11:35Z</time>
      </trkpt>
      <trkpt lat="48.1466" lon="-1.36733">
        <ele>82</ele>
        <time>2010-07-29T09:11:36Z</time>
      </trkpt>
      <trkpt lat="48.14659" lon="-1.36729">
        <ele>82</ele>
        <time>2010-07-29T09:11:37Z</time>
      </trkpt>
      <trkpt lat="48.14659" lon="-1.36727">
        <ele>82</ele>
        <time>2010-07-29T09:11:38Z</time>
      </trkpt>
      <trkpt lat="48.14657" lon="-1.36726">
        <ele>82</ele>
        <time>2010-07-29T09:11:40Z</time>
      </trkpt>
      <trkpt lat="48.14655" lon="-1.36724">
        <ele>81</ele>
        <time>2010-07-29T09:11:42Z</time>
      </trkpt>
      <trkpt lat="48.14654" lon="-1.36715">
        <ele>81</ele>
        <time>2010-07-29T09:11:44Z</time>
      </trkpt>
      <trkpt lat="48.14649" lon="-1.36699">
        <ele>82</ele>
        <time>2010-07-29T09:11:47Z</time>
      </trkpt>
      <trkpt lat="48.14646" lon="-1.36683">
        <ele>83</ele>
        <time>2010-07-29T09:11:51Z</time>
      </trkpt>
      <trkpt lat="48.14644" lon="-1.36676">
        <ele>83</ele>
        <time>2010-07-29T09:11:53Z</time>
      </trkpt>
      <trkpt lat="48.14636" lon="-1.36663">
        <ele>83</ele>
        <time>2010-07-29T09:11:57Z</time>
      </trkpt>
      <trkpt lat="48.14631" lon="-1.36649">
        <ele>84</ele>
        <time>2010-07-29T09:12:01Z</time>
      </trkpt>
      <trkpt lat="48.14629" lon="-1.36642">
        <ele>84</ele>
        <time>2010-07-29T09:12:03Z</time>
      </trkpt>
      <trkpt lat="48.14628" lon="-1.36639">
        <ele>85</ele>
        <time>2010-07-29T09:12:04Z</time>
      </trkpt>
      <trkpt lat="48.14624" lon="-1.3663">
        <ele>85</ele>
        <time>2010-07-29T09:12:07Z</time>
      </trkpt>
      <trkpt lat="48.14624" lon="-1.36624">
        <ele>86</ele>
        <time>2010-07-29T09:12:09Z</time>
      </trkpt>
      <trkpt lat="48.14621" lon="-1.36618">
        <ele>86</ele>
        <time>2010-07-29T09:12:11Z</time>
      </trkpt>
      <trkpt lat="48.14617" lon="-1.36611">
        <ele>86</ele>
        <time>2010-07-29T09:12:13Z</time>
      </trkpt>
      <trkpt lat="48.14615" lon="-1.36605">
        <ele>87</ele>
        <time>2010-07-29T09:12:15Z</time>
      </trkpt>
      <trkpt lat="48.14614" lon="-1.36603">
        <ele>87</ele>
        <time>2010-07-29T09:12:16Z</time>
      </trkpt>
      <trkpt lat="48.14607" lon="-1.36594">
        <ele>87</ele>
        <time>2010-07-29T09:12:21Z</time>
      </trkpt>
      <trkpt lat="48.14606" lon="-1.36592">
        <ele>87</ele>
        <time>2010-07-29T09:12:22Z</time>
      </trkpt>
      <trkpt lat="48.14605" lon="-1.36589">
        <ele>87</ele>
        <time>2010-07-29T09:12:23Z</time>
      </trkpt>
      <trkpt lat="48.14603" lon="-1.36582">
        <ele>88</ele>
        <time>2010-07-29T09:12:25Z</time>
      </trkpt>
      <trkpt lat="48.14601" lon="-1.36577">
        <ele>88</ele>
        <time>2010-07-29T09:12:27Z</time>
      </trkpt>
      <trkpt lat="48.146" lon="-1.36574">
        <ele>88</ele>
        <time>2010-07-29T09:12:28Z</time>
      </trkpt>
      <trkpt lat="48.14599" lon="-1.36567">
        <ele>89</ele>
        <time>2010-07-29T09:12:31Z</time>
      </trkpt>
      <trkpt lat="48.14597" lon="-1.36561">
        <ele>89</ele>
        <time>2010-07-29T09:12:33Z</time>
      </trkpt>
      <trkpt lat="48.14595" lon="-1.36546">
        <ele>91</ele>
        <time>2010-07-29T09:12:38Z</time>
      </trkpt>
      <trkpt lat="48.14582" lon="-1.36532">
        <ele>91</ele>
        <time>2010-07-29T09:12:43Z</time>
      </trkpt>
      <trkpt lat="48.1458" lon="-1.36532">
        <ele>91</ele>
        <time>2010-07-29T09:12:48Z</time>
      </trkpt>
      <trkpt lat="48.14574" lon="-1.36537">
        <ele>91</ele>
        <time>2010-07-29T09:12:52Z</time>
      </trkpt>
      <trkpt lat="48.14559" lon="-1.36553">
        <ele>89</ele>
        <time>2010-07-29T09:12:56Z</time>
      </trkpt>
      <trkpt lat="48.14543" lon="-1.36556">
        <ele>88</ele>
        <time>2010-07-29T09:12:58Z</time>
      </trkpt>
      <trkpt lat="48.14529" lon="-1.36552">
        <ele>89</ele>
        <time>2010-07-29T09:13:00Z</time>
      </trkpt>
      <trkpt lat="48.14519" lon="-1.36546">
        <ele>89</ele>
        <time>2010-07-29T09:13:02Z</time>
      </trkpt>
      <trkpt lat="48.14513" lon="-1.36544">
        <ele>89</ele>
        <time>2010-07-29T09:13:04Z</time>
      </trkpt>
      <trkpt lat="48.14507" lon="-1.36539">
        <ele>89</ele>
        <time>2010-07-29T09:13:06Z</time>
      </trkpt>
      <trkpt lat="48.14501" lon="-1.36532">
        <ele>89</ele>
        <time>2010-07-29T09:13:08Z</time>
      </trkpt>
      <trkpt lat="48.14498" lon="-1.36528">
        <ele>89</ele>
        <time>2010-07-29T09:13:09Z</time>
      </trkpt>
      <trkpt lat="48.14481" lon="-1.36521">
        <ele>89</ele>
        <time>2010-07-29T09:13:13Z</time>
      </trkpt>
      <trkpt lat="48.14471" lon="-1.36516">
        <ele>88</ele>
        <time>2010-07-29T09:13:15Z</time>
      </trkpt>
      <trkpt lat="48.14444" lon="-1.36512">
        <ele>87</ele>
        <time>2010-07-29T09:13:19Z</time>
      </trkpt>
      <trkpt lat="48.14421" lon="-1.36493">
        <ele>87</ele>
        <time>2010-07-29T09:13:24Z</time>
      </trkpt>
      <trkpt lat="48.14418" lon="-1.36481">
        <ele>88</ele>
        <time>2010-07-29T09:13:28Z</time>
      </trkpt>
      <trkpt lat="48.14414" lon="-1.36477">
        <ele>88</ele>
        <time>2010-07-29T09:13:30Z</time>
      </trkpt>
      <trkpt lat="48.14406" lon="-1.36467">
        <ele>89</ele>
        <time>2010-07-29T09:13:35Z</time>
      </trkpt>
      <trkpt lat="48.14399" lon="-1.36455">
        <ele>89</ele>
        <time>2010-07-29T09:13:39Z</time>
      </trkpt>
      <trkpt lat="48.14395" lon="-1.36443">
        <ele>89</ele>
        <time>2010-07-29T09:13:43Z</time>
      </trkpt>
      <trkpt lat="48.14394" lon="-1.36429">
        <ele>90</ele>
        <time>2010-07-29T09:13:46Z</time>
      </trkpt>
      <trkpt lat="48.14393" lon="-1.36425">
        <ele>90</ele>
        <time>2010-07-29T09:13:47Z</time>
      </trkpt>
      <trkpt lat="48.14393" lon="-1.36421">
        <ele>90</ele>
        <time>2010-07-29T09:13:48Z</time>
      </trkpt>
      <trkpt lat="48.14391" lon="-1.36416">
        <ele>90</ele>
        <time>2010-07-29T09:13:50Z</time>
      </trkpt>
      <trkpt lat="48.14387" lon="-1.36409">
        <ele>90</ele>
        <time>2010-07-29T09:13:52Z</time>
      </trkpt>
      <trkpt lat="48.14383" lon="-1.36403">
        <ele>91</ele>
        <time>2010-07-29T09:13:54Z</time>
      </trkpt>
      <trkpt lat="48.14381" lon="-1.36397">
        <ele>91</ele>
        <time>2010-07-29T09:13:56Z</time>
      </trkpt>
      <trkpt lat="48.14382" lon="-1.36393">
        <ele>91</ele>
        <time>2010-07-29T09:13:57Z</time>
      </trkpt>
      <trkpt lat="48.14384" lon="-1.36367">
        <ele>91</ele>
        <time>2010-07-29T09:14:04Z</time>
      </trkpt>
      <trkpt lat="48.14383" lon="-1.36365">
        <ele>92</ele>
        <time>2010-07-29T09:14:05Z</time>
      </trkpt>
      <trkpt lat="48.14383" lon="-1.36346">
        <ele>92</ele>
        <time>2010-07-29T09:14:10Z</time>
      </trkpt>
      <trkpt lat="48.14379" lon="-1.36325">
        <ele>93</ele>
        <time>2010-07-29T09:14:14Z</time>
      </trkpt>
      <trkpt lat="48.14383" lon="-1.36302">
        <ele>93</ele>
        <time>2010-07-29T09:14:19Z</time>
      </trkpt>
      <trkpt lat="48.14382" lon="-1.36284">
        <ele>93</ele>
        <time>2010-07-29T09:14:24Z</time>
      </trkpt>
      <trkpt lat="48.14384" lon="-1.36279">
        <ele>93</ele>
        <time>2010-07-29T09:14:26Z</time>
      </trkpt>
      <trkpt lat="48.14385" lon="-1.36276">
        <ele>93</ele>
        <time>2010-07-29T09:14:27Z</time>
      </trkpt>
      <trkpt lat="48.14384" lon="-1.36266">
        <ele>94</ele>
        <time>2010-07-29T09:14:30Z</time>
      </trkpt>
      <trkpt lat="48.14386" lon="-1.36257">
        <ele>94</ele>
        <time>2010-07-29T09:14:32Z</time>
      </trkpt>
      <trkpt lat="48.14385" lon="-1.36237">
        <ele>94</ele>
        <time>2010-07-29T09:14:37Z</time>
      </trkpt>
      <trkpt lat="48.14386" lon="-1.36213">
        <ele>95</ele>
        <time>2010-07-29T09:14:41Z</time>
      </trkpt>
      <trkpt lat="48.14388" lon="-1.36203">
        <ele>95</ele>
        <time>2010-07-29T09:14:43Z</time>
      </trkpt>
      <trkpt lat="48.14388" lon="-1.362">
        <ele>94</ele>
        <time>2010-07-29T09:14:44Z</time>
      </trkpt>
      <trkpt lat="48.14388" lon="-1.36197">
        <ele>94</ele>
        <time>2010-07-29T09:14:45Z</time>
      </trkpt>
      <trkpt lat="48.14389" lon="-1.36188">
        <ele>94</ele>
        <time>2010-07-29T09:14:47Z</time>
      </trkpt>
      <trkpt lat="48.1439" lon="-1.36184">
        <ele>94</ele>
        <time>2010-07-29T09:14:48Z</time>
      </trkpt>
      <trkpt lat="48.1439" lon="-1.36181">
        <ele>94</ele>
        <time>2010-07-29T09:14:49Z</time>
      </trkpt>
      <trkpt lat="48.14388" lon="-1.36174">
        <ele>95</ele>
        <time>2010-07-29T09:14:53Z</time>
      </trkpt>
      <trkpt lat="48.1439" lon="-1.36158">
        <ele>95</ele>
        <time>2010-07-29T09:14:57Z</time>
      </trkpt>
      <trkpt lat="48.14394" lon="-1.36138">
        <ele>95</ele>
        <time>2010-07-29T09:15:02Z</time>
      </trkpt>
      <trkpt lat="48.14395" lon="-1.36132">
        <ele>95</ele>
        <time>2010-07-29T09:15:04Z</time>
      </trkpt>
      <trkpt lat="48.14393" lon="-1.36124">
        <ele>95</ele>
        <time>2010-07-29T09:15:07Z</time>
      </trkpt>
      <trkpt lat="48.14392" lon="-1.36121">
        <ele>95</ele>
        <time>2010-07-29T09:15:08Z</time>
      </trkpt>
      <trkpt lat="48.1439" lon="-1.36118">
        <ele>95</ele>
        <time>2010-07-29T09:15:09Z</time>
      </trkpt>
      <trkpt lat="48.14389" lon="-1.36112">
        <ele>96</ele>
        <time>2010-07-29T09:15:11Z</time>
      </trkpt>
      <trkpt lat="48.14389" lon="-1.36108">
        <ele>96</ele>
        <time>2010-07-29T09:15:13Z</time>
      </trkpt>
      <trkpt lat="48.14389" lon="-1.36102">
        <ele>96</ele>
        <time>2010-07-29T09:15:15Z</time>
      </trkpt>
      <trkpt lat="48.14388" lon="-1.36091">
        <ele>96</ele>
        <time>2010-07-29T09:15:20Z</time>
      </trkpt>
      <trkpt lat="48.14384" lon="-1.36071">
        <ele>97</ele>
        <time>2010-07-29T09:15:27Z</time>
      </trkpt>
      <trkpt lat="48.14385" lon="-1.3606">
        <ele>97</ele>
        <time>2010-07-29T09:15:30Z</time>
      </trkpt>
      <trkpt lat="48.14383" lon="-1.36053">
        <ele>97</ele>
        <time>2010-07-29T09:15:32Z</time>
      </trkpt>
      <trkpt lat="48.1438" lon="-1.36048">
        <ele>98</ele>
        <time>2010-07-29T09:15:34Z</time>
      </trkpt>
      <trkpt lat="48.14376" lon="-1.36042">
        <ele>98</ele>
        <time>2010-07-29T09:15:36Z</time>
      </trkpt>
      <trkpt lat="48.14373" lon="-1.36035">
        <ele>98</ele>
        <time>2010-07-29T09:15:38Z</time>
      </trkpt>
      <trkpt lat="48.14365" lon="-1.36022">
        <ele>99</ele>
        <time>2010-07-29T09:15:43Z</time>
      </trkpt>
      <trkpt lat="48.14363" lon="-1.36015">
        <ele>99</ele>
        <time>2010-07-29T09:15:45Z</time>
      </trkpt>
      <trkpt lat="48.14357" lon="-1.3601">
        <ele>100</ele>
        <time>2010-07-29T09:15:49Z</time>
      </trkpt>
      <trkpt lat="48.14355" lon="-1.35998">
        <ele>100</ele>
        <time>2010-07-29T09:15:54Z</time>
      </trkpt>
      <trkpt lat="48.14352" lon="-1.35985">
        <ele>100</ele>
        <time>2010-07-29T09:15:59Z</time>
      </trkpt>
      <trkpt lat="48.14349" lon="-1.35981">
        <ele>100</ele>
        <time>2010-07-29T09:16:01Z</time>
      </trkpt>
      <trkpt lat="48.14346" lon="-1.35983">
        <ele>101</ele>
        <time>2010-07-29T09:16:04Z</time>
      </trkpt>
      <trkpt lat="48.14344" lon="-1.35983">
        <ele>101</ele>
        <time>2010-07-29T09:16:06Z</time>
      </trkpt>
      <trkpt lat="48.1434" lon="-1.35982">
        <ele>101</ele>
        <time>2010-07-29T09:16:08Z</time>
      </trkpt>
      <trkpt lat="48.14339" lon="-1.35983">
        <ele>101</ele>
        <time>2010-07-29T09:16:09Z</time>
      </trkpt>
      <trkpt lat="48.14337" lon="-1.35983">
        <ele>101</ele>
        <time>2010-07-29T09:16:10Z</time>
      </trkpt>
      <trkpt lat="48.14335" lon="-1.35986">
        <ele>101</ele>
        <time>2010-07-29T09:16:12Z</time>
      </trkpt>
      <trkpt lat="48.14329" lon="-1.35989">
        <ele>101</ele>
        <time>2010-07-29T09:16:16Z</time>
      </trkpt>
      <trkpt lat="48.14318" lon="-1.35987">
        <ele>102</ele>
        <time>2010-07-29T09:16:21Z</time>
      </trkpt>
      <trkpt lat="48.14305" lon="-1.35995">
        <ele>103</ele>
        <time>2010-07-29T09:16:29Z</time>
      </trkpt>
      <trkpt lat="48.14296" lon="-1.36001">
        <ele>103</ele>
        <time>2010-07-29T09:16:34Z</time>
      </trkpt>
      <trkpt lat="48.1429" lon="-1.36005">
        <ele>103</ele>
        <time>2010-07-29T09:16:36Z</time>
      </trkpt>
      <trkpt lat="48.14286" lon="-1.36009">
        <ele>103</ele>
        <time>2010-07-29T09:16:38Z</time>
      </trkpt>
      <trkpt lat="48.14282" lon="-1.36012">
        <ele>104</ele>
        <time>2010-07-29T09:16:40Z</time>
      </trkpt>
      <trkpt lat="48.14277" lon="-1.36014">
        <ele>104</ele>
        <time>2010-07-29T09:16:42Z</time>
      </trkpt>
      <trkpt lat="48.14267" lon="-1.36023">
        <ele>104</ele>
        <time>2010-07-29T09:16:47Z</time>
      </trkpt>
      <trkpt lat="48.14251" lon="-1.36032">
        <ele>105</ele>
        <time>2010-07-29T09:16:52Z</time>
      </trkpt>
      <trkpt lat="48.14239" lon="-1.36045">
        <ele>106</ele>
        <time>2010-07-29T09:16:58Z</time>
      </trkpt>
      <trkpt lat="48.14231" lon="-1.36052">
        <ele>106</ele>
        <time>2010-07-29T09:17:02Z</time>
      </trkpt>
      <trkpt lat="48.14228" lon="-1.36057">
        <ele>106</ele>
        <time>2010-07-29T09:17:04Z</time>
      </trkpt>
      <trkpt lat="48.14224" lon="-1.36062">
        <ele>107</ele>
        <time>2010-07-29T09:17:06Z</time>
      </trkpt>
      <trkpt lat="48.14218" lon="-1.36067">
        <ele>107</ele>
        <time>2010-07-29T09:17:08Z</time>
      </trkpt>
      <trkpt lat="48.14214" lon="-1.36069">
        <ele>107</ele>
        <time>2010-07-29T09:17:10Z</time>
      </trkpt>
      <trkpt lat="48.14209" lon="-1.36073">
        <ele>107</ele>
        <time>2010-07-29T09:17:12Z</time>
      </trkpt>
      <trkpt lat="48.14198" lon="-1.36082">
        <ele>108</ele>
        <time>2010-07-29T09:17:17Z</time>
      </trkpt>
      <trkpt lat="48.14185" lon="-1.36095">
        <ele>108</ele>
        <time>2010-07-29T09:17:22Z</time>
      </trkpt>
      <trkpt lat="48.14181" lon="-1.361">
        <ele>108</ele>
        <time>2010-07-29T09:17:24Z</time>
      </trkpt>
      <trkpt lat="48.1418" lon="-1.36115">
        <ele>108</ele>
        <time>2010-07-29T09:17:29Z</time>
      </trkpt>
      <trkpt lat="48.14181" lon="-1.36118">
        <ele>108</ele>
        <time>2010-07-29T09:17:30Z</time>
      </trkpt>
      <trkpt lat="48.14181" lon="-1.36139">
        <ele>108</ele>
        <time>2010-07-29T09:17:35Z</time>
      </trkpt>
      <trkpt lat="48.14182" lon="-1.36144">
        <ele>108</ele>
        <time>2010-07-29T09:17:36Z</time>
      </trkpt>
      <trkpt lat="48.14181" lon="-1.3616">
        <ele>107</ele>
        <time>2010-07-29T09:17:39Z</time>
      </trkpt>
      <trkpt lat="48.14177" lon="-1.36194">
        <ele>107</ele>
        <time>2010-07-29T09:17:46Z</time>
      </trkpt>
      <trkpt lat="48.14169" lon="-1.36217">
        <ele>107</ele>
        <time>2010-07-29T09:17:51Z</time>
      </trkpt>
      <trkpt lat="48.14159" lon="-1.36232">
        <ele>107</ele>
        <time>2010-07-29T09:17:55Z</time>
      </trkpt>
      <trkpt lat="48.14148" lon="-1.3624">
        <ele>107</ele>
        <time>2010-07-29T09:17:59Z</time>
      </trkpt>
      <trkpt lat="48.14133" lon="-1.36242">
        <ele>107</ele>
        <time>2010-07-29T09:18:04Z</time>
      </trkpt>
      <trkpt lat="48.1413" lon="-1.36242">
        <ele>107</ele>
        <time>2010-07-29T09:18:05Z</time>
      </trkpt>
      <trkpt lat="48.14128" lon="-1.36244">
        <ele>107</ele>
        <time>2010-07-29T09:18:06Z</time>
      </trkpt>
      <trkpt lat="48.14125" lon="-1.36264">
        <ele>106</ele>
        <time>2010-07-29T09:18:11Z</time>
      </trkpt>
      <trkpt lat="48.14124" lon="-1.36293">
        <ele>106</ele>
        <time>2010-07-29T09:18:16Z</time>
      </trkpt>
      <trkpt lat="48.14121" lon="-1.36327">
        <ele>105</ele>
        <time>2010-07-29T09:18:22Z</time>
      </trkpt>
      <trkpt lat="48.14122" lon="-1.36354">
        <ele>104</ele>
        <time>2010-07-29T09:18:27Z</time>
      </trkpt>
      <trkpt lat="48.14121" lon="-1.36359">
        <ele>104</ele>
        <time>2010-07-29T09:18:28Z</time>
      </trkpt>
      <trkpt lat="48.14119" lon="-1.36369">
        <ele>104</ele>
        <time>2010-07-29T09:18:30Z</time>
      </trkpt>
      <trkpt lat="48.14114" lon="-1.36377">
        <ele>103</ele>
        <time>2010-07-29T09:18:32Z</time>
      </trkpt>
      <trkpt lat="48.14112" lon="-1.36381">
        <ele>103</ele>
        <time>2010-07-29T09:18:33Z</time>
      </trkpt>
      <trkpt lat="48.14109" lon="-1.36385">
        <ele>103</ele>
        <time>2010-07-29T09:18:34Z</time>
      </trkpt>
      <trkpt lat="48.14104" lon="-1.36391">
        <ele>103</ele>
        <time>2010-07-29T09:18:36Z</time>
      </trkpt>
      <trkpt lat="48.14101" lon="-1.36393">
        <ele>103</ele>
        <time>2010-07-29T09:18:37Z</time>
      </trkpt>
      <trkpt lat="48.14084" lon="-1.36408">
        <ele>102</ele>
        <time>2010-07-29T09:18:41Z</time>
      </trkpt>
      <trkpt lat="48.14077" lon="-1.36417">
        <ele>101</ele>
        <time>2010-07-29T09:18:43Z</time>
      </trkpt>
      <trkpt lat="48.14072" lon="-1.36423">
        <ele>101</ele>
        <time>2010-07-29T09:18:45Z</time>
      </trkpt>
      <trkpt lat="48.14067" lon="-1.36426">
        <ele>101</ele>
        <time>2010-07-29T09:18:47Z</time>
      </trkpt>
      <trkpt lat="48.14065" lon="-1.36429">
        <ele>101</ele>
        <time>2010-07-29T09:18:48Z</time>
      </trkpt>
      <trkpt lat="48.14062" lon="-1.3643">
        <ele>101</ele>
        <time>2010-07-29T09:18:49Z</time>
      </trkpt>
      <trkpt lat="48.14057" lon="-1.36434">
        <ele>100</ele>
        <time>2010-07-29T09:18:51Z</time>
      </trkpt>
      <trkpt lat="48.14052" lon="-1.3644">
        <ele>100</ele>
        <time>2010-07-29T09:18:53Z</time>
      </trkpt>
      <trkpt lat="48.14047" lon="-1.36448">
        <ele>100</ele>
        <time>2010-07-29T09:18:55Z</time>
      </trkpt>
      <trkpt lat="48.14041" lon="-1.36472">
        <ele>100</ele>
        <time>2010-07-29T09:18:59Z</time>
      </trkpt>
      <trkpt lat="48.14042" lon="-1.36483">
        <ele>100</ele>
        <time>2010-07-29T09:19:01Z</time>
      </trkpt>
      <trkpt lat="48.14043" lon="-1.36495">
        <ele>100</ele>
        <time>2010-07-29T09:19:03Z</time>
      </trkpt>
      <trkpt lat="48.14044" lon="-1.36507">
        <ele>100</ele>
        <time>2010-07-29T09:19:05Z</time>
      </trkpt>
      <trkpt lat="48.14045" lon="-1.3652">
        <ele>100</ele>
        <time>2010-07-29T09:19:07Z</time>
      </trkpt>
      <trkpt lat="48.14045" lon="-1.36533">
        <ele>100</ele>
        <time>2010-07-29T09:19:09Z</time>
      </trkpt>
      <trkpt lat="48.14047" lon="-1.36564">
        <ele>100</ele>
        <time>2010-07-29T09:19:14Z</time>
      </trkpt>
      <trkpt lat="48.14048" lon="-1.36581">
        <ele>100</ele>
        <time>2010-07-29T09:19:16Z</time>
      </trkpt>
      <trkpt lat="48.14043" lon="-1.36636">
        <ele>98</ele>
        <time>2010-07-29T09:19:20Z</time>
      </trkpt>
      <trkpt lat="48.14035" lon="-1.36687">
        <ele>96</ele>
        <time>2010-07-29T09:19:24Z</time>
      </trkpt>
      <trkpt lat="48.14032" lon="-1.36699">
        <ele>96</ele>
        <time>2010-07-29T09:19:25Z</time>
      </trkpt>
      <trkpt lat="48.14029" lon="-1.36711">
        <ele>95</ele>
        <time>2010-07-29T09:19:26Z</time>
      </trkpt>
      <trkpt lat="48.14025" lon="-1.36722">
        <ele>94</ele>
        <time>2010-07-29T09:19:27Z</time>
      </trkpt>
      <trkpt lat="48.1402" lon="-1.36734">
        <ele>93</ele>
        <time>2010-07-29T09:19:28Z</time>
      </trkpt>
      <trkpt lat="48.14007" lon="-1.36757">
        <ele>92</ele>
        <time>2010-07-29T09:19:30Z</time>
      </trkpt>
      <trkpt lat="48.14001" lon="-1.36769">
        <ele>91</ele>
        <time>2010-07-29T09:19:31Z</time>
      </trkpt>
      <trkpt lat="48.13989" lon="-1.36789">
        <ele>89</ele>
        <time>2010-07-29T09:19:33Z</time>
      </trkpt>
      <trkpt lat="48.13982" lon="-1.36801">
        <ele>89</ele>
        <time>2010-07-29T09:19:34Z</time>
      </trkpt>
      <trkpt lat="48.13977" lon="-1.36811">
        <ele>88</ele>
        <time>2010-07-29T09:19:35Z</time>
      </trkpt>
      <trkpt lat="48.13972" lon="-1.36834">
        <ele>86</ele>
        <time>2010-07-29T09:19:37Z</time>
      </trkpt>
      <trkpt lat="48.13972" lon="-1.36855">
        <ele>85</ele>
        <time>2010-07-29T09:19:39Z</time>
      </trkpt>
      <trkpt lat="48.13975" lon="-1.36867">
        <ele>85</ele>
        <time>2010-07-29T09:19:40Z</time>
      </trkpt>
      <trkpt lat="48.13977" lon="-1.36877">
        <ele>84</ele>
        <time>2010-07-29T09:19:41Z</time>
      </trkpt>
      <trkpt lat="48.1398" lon="-1.36887">
        <ele>83</ele>
        <time>2010-07-29T09:19:42Z</time>
      </trkpt>
      <trkpt lat="48.13986" lon="-1.36905">
        <ele>82</ele>
        <time>2010-07-29T09:19:44Z</time>
      </trkpt>
      <trkpt lat="48.13997" lon="-1.36921">
        <ele>82</ele>
        <time>2010-07-29T09:19:46Z</time>
      </trkpt>
      <trkpt lat="48.14001" lon="-1.36929">
        <ele>81</ele>
        <time>2010-07-29T09:19:48Z</time>
      </trkpt>
      <trkpt lat="48.14002" lon="-1.36936">
        <ele>81</ele>
        <time>2010-07-29T09:19:50Z</time>
      </trkpt>
      <trkpt lat="48.14003" lon="-1.36941">
        <ele>81</ele>
        <time>2010-07-29T09:19:52Z</time>
      </trkpt>
      <trkpt lat="48.14006" lon="-1.36946">
        <ele>81</ele>
        <time>2010-07-29T09:19:54Z</time>
      </trkpt>
      <trkpt lat="48.14008" lon="-1.36948">
        <ele>81</ele>
        <time>2010-07-29T09:19:55Z</time>
      </trkpt>
      <trkpt lat="48.14012" lon="-1.36944">
        <ele>81</ele>
        <time>2010-07-29T09:19:58Z</time>
      </trkpt>
      <trkpt lat="48.14013" lon="-1.36938">
        <ele>82</ele>
        <time>2010-07-29T09:20:00Z</time>
      </trkpt>
      <trkpt lat="48.14015" lon="-1.3693">
        <ele>82</ele>
        <time>2010-07-29T09:20:02Z</time>
      </trkpt>
      <trkpt lat="48.14023" lon="-1.36918">
        <ele>84</ele>
        <time>2010-07-29T09:20:07Z</time>
      </trkpt>
      <trkpt lat="48.14026" lon="-1.36915">
        <ele>84</ele>
        <time>2010-07-29T09:20:09Z</time>
      </trkpt>
      <trkpt lat="48.14028" lon="-1.36912">
        <ele>85</ele>
        <time>2010-07-29T09:20:11Z</time>
      </trkpt>
      <trkpt lat="48.14031" lon="-1.36908">
        <ele>85</ele>
        <time>2010-07-29T09:20:13Z</time>
      </trkpt>
      <trkpt lat="48.14033" lon="-1.36906">
        <ele>85</ele>
        <time>2010-07-29T09:20:15Z</time>
      </trkpt>
      <trkpt lat="48.14036" lon="-1.36902">
        <ele>86</ele>
        <time>2010-07-29T09:20:17Z</time>
      </trkpt>
      <trkpt lat="48.14038" lon="-1.36901">
        <ele>86</ele>
        <time>2010-07-29T09:20:18Z</time>
      </trkpt>
      <trkpt lat="48.1404" lon="-1.36898">
        <ele>86</ele>
        <time>2010-07-29T09:20:19Z</time>
      </trkpt>
      <trkpt lat="48.14043" lon="-1.36892">
        <ele>87</ele>
        <time>2010-07-29T09:20:21Z</time>
      </trkpt>
      <trkpt lat="48.14046" lon="-1.36888">
        <ele>88</ele>
        <time>2010-07-29T09:20:23Z</time>
      </trkpt>
      <trkpt lat="48.14047" lon="-1.36887">
        <ele>88</ele>
        <time>2010-07-29T09:20:24Z</time>
      </trkpt>
      <trkpt lat="48.14049" lon="-1.36885">
        <ele>88</ele>
        <time>2010-07-29T09:20:25Z</time>
      </trkpt>
      <trkpt lat="48.14051" lon="-1.36884">
        <ele>88</ele>
        <time>2010-07-29T09:20:26Z</time>
      </trkpt>
      <trkpt lat="48.14055" lon="-1.36879">
        <ele>89</ele>
        <time>2010-07-29T09:20:28Z</time>
      </trkpt>
      <trkpt lat="48.14057" lon="-1.36873">
        <ele>89</ele>
        <time>2010-07-29T09:20:30Z</time>
      </trkpt>
      <trkpt lat="48.14059" lon="-1.36871">
        <ele>89</ele>
        <time>2010-07-29T09:20:31Z</time>
      </trkpt>
      <trkpt lat="48.14061" lon="-1.36869">
        <ele>90</ele>
        <time>2010-07-29T09:20:32Z</time>
      </trkpt>
      <trkpt lat="48.14065" lon="-1.36865">
        <ele>90</ele>
        <time>2010-07-29T09:20:34Z</time>
      </trkpt>
      <trkpt lat="48.14071" lon="-1.36858">
        <ele>90</ele>
        <time>2010-07-29T09:20:37Z</time>
      </trkpt>
      <trkpt lat="48.14074" lon="-1.36853">
        <ele>90</ele>
        <time>2010-07-29T09:20:39Z</time>
      </trkpt>
      <trkpt lat="48.14076" lon="-1.36851">
        <ele>90</ele>
        <time>2010-07-29T09:20:40Z</time>
      </trkpt>
      <trkpt lat="48.14078" lon="-1.36848">
        <ele>90</ele>
        <time>2010-07-29T09:20:41Z</time>
      </trkpt>
      <trkpt lat="48.1408" lon="-1.36844">
        <ele>91</ele>
        <time>2010-07-29T09:20:43Z</time>
      </trkpt>
      <trkpt lat="48.14083" lon="-1.36841">
        <ele>91</ele>
        <time>2010-07-29T09:20:45Z</time>
      </trkpt>
      <trkpt lat="48.14086" lon="-1.36835">
        <ele>91</ele>
        <time>2010-07-29T09:20:48Z</time>
      </trkpt>
      <trkpt lat="48.14088" lon="-1.36829">
        <ele>91</ele>
        <time>2010-07-29T09:20:50Z</time>
      </trkpt>
      <trkpt lat="48.1409" lon="-1.36827">
        <ele>91</ele>
        <time>2010-07-29T09:20:51Z</time>
      </trkpt>
      <trkpt lat="48.1409" lon="-1.36825">
        <ele>92</ele>
        <time>2010-07-29T09:20:52Z</time>
      </trkpt>
      <trkpt lat="48.14092" lon="-1.36824">
        <ele>92</ele>
        <time>2010-07-29T09:20:53Z</time>
      </trkpt>
      <trkpt lat="48.14093" lon="-1.36822">
        <ele>92</ele>
        <time>2010-07-29T09:20:54Z</time>
      </trkpt>
      <trkpt lat="48.141" lon="-1.36818">
        <ele>92</ele>
        <time>2010-07-29T09:20:57Z</time>
      </trkpt>
      <trkpt lat="48.14104" lon="-1.36814">
        <ele>92</ele>
        <time>2010-07-29T09:20:59Z</time>
      </trkpt>
      <trkpt lat="48.14105" lon="-1.3681">
        <ele>92</ele>
        <time>2010-07-29T09:21:01Z</time>
      </trkpt>
      <trkpt lat="48.14113" lon="-1.36801">
        <ele>92</ele>
        <time>2010-07-29T09:21:06Z</time>
      </trkpt>
      <trkpt lat="48.14117" lon="-1.36797">
        <ele>93</ele>
        <time>2010-07-29T09:21:08Z</time>
      </trkpt>
      <trkpt lat="48.1412" lon="-1.36793">
        <ele>93</ele>
        <time>2010-07-29T09:21:10Z</time>
      </trkpt>
      <trkpt lat="48.14124" lon="-1.3679">
        <ele>93</ele>
        <time>2010-07-29T09:21:12Z</time>
      </trkpt>
      <trkpt lat="48.14127" lon="-1.36786">
        <ele>93</ele>
        <time>2010-07-29T09:21:14Z</time>
      </trkpt>
      <trkpt lat="48.14128" lon="-1.36784">
        <ele>93</ele>
        <time>2010-07-29T09:21:15Z</time>
      </trkpt>
      <trkpt lat="48.14129" lon="-1.36782">
        <ele>93</ele>
        <time>2010-07-29T09:21:16Z</time>
      </trkpt>
      <trkpt lat="48.14135" lon="-1.36777">
        <ele>93</ele>
        <time>2010-07-29T09:21:19Z</time>
      </trkpt>
      <trkpt lat="48.14141" lon="-1.36768">
        <ele>93</ele>
        <time>2010-07-29T09:21:21Z</time>
      </trkpt>
      <trkpt lat="48.1415" lon="-1.36756">
        <ele>94</ele>
        <time>2010-07-29T09:21:25Z</time>
      </trkpt>
      <trkpt lat="48.14163" lon="-1.36746">
        <ele>94</ele>
        <time>2010-07-29T09:21:30Z</time>
      </trkpt>
      <trkpt lat="48.14176" lon="-1.36748">
        <ele>93</ele>
        <time>2010-07-29T09:21:35Z</time>
      </trkpt>
      <trkpt lat="48.14182" lon="-1.36749">
        <ele>93</ele>
        <time>2010-07-29T09:21:38Z</time>
      </trkpt>
      <trkpt lat="48.14198" lon="-1.36742">
        <ele>93</ele>
        <time>2010-07-29T09:27:02Z</time>
      </trkpt>
      <trkpt lat="48.14199" lon="-1.36742">
        <ele>93</ele>
        <time>2010-07-29T09:27:03Z</time>
      </trkpt>
      <trkpt lat="48.142" lon="-1.36742">
        <ele>93</ele>
        <time>2010-07-29T09:27:04Z</time>
      </trkpt>
      <trkpt lat="48.14201" lon="-1.36742">
        <ele>93</ele>
        <time>2010-07-29T09:27:05Z</time>
      </trkpt>
      <trkpt lat="48.14205" lon="-1.36741">
        <ele>92</ele>
        <time>2010-07-29T09:27:07Z</time>
      </trkpt>
      <trkpt lat="48.14206" lon="-1.36741">
        <ele>92</ele>
        <time>2010-07-29T09:27:08Z</time>
      </trkpt>
      <trkpt lat="48.1421" lon="-1.36742">
        <ele>92</ele>
        <time>2010-07-29T09:27:10Z</time>
      </trkpt>
      <trkpt lat="48.14215" lon="-1.36751">
        <ele>90</ele>
        <time>2010-07-29T09:27:13Z</time>
      </trkpt>
      <trkpt lat="48.14219" lon="-1.36759">
        <ele>89</ele>
        <time>2010-07-29T09:27:15Z</time>
      </trkpt>
      <trkpt lat="48.14224" lon="-1.36767">
        <ele>88</ele>
        <time>2010-07-29T09:27:17Z</time>
      </trkpt>
      <trkpt lat="48.14226" lon="-1.36771">
        <ele>87</ele>
        <time>2010-07-29T09:27:18Z</time>
      </trkpt>
      <trkpt lat="48.14229" lon="-1.36775">
        <ele>86</ele>
        <time>2010-07-29T09:27:19Z</time>
      </trkpt>
      <trkpt lat="48.14233" lon="-1.36781">
        <ele>85</ele>
        <time>2010-07-29T09:27:21Z</time>
      </trkpt>
      <trkpt lat="48.14236" lon="-1.36783">
        <ele>85</ele>
        <time>2010-07-29T09:27:24Z</time>
      </trkpt>
      <trkpt lat="48.14238" lon="-1.36782">
        <ele>84</ele>
        <time>2010-07-29T09:27:26Z</time>
      </trkpt>
      <trkpt lat="48.14238" lon="-1.36779">
        <ele>85</ele>
        <time>2010-07-29T09:27:28Z</time>
      </trkpt>
      <trkpt lat="48.14239" lon="-1.36776">
        <ele>85</ele>
        <time>2010-07-29T09:27:30Z</time>
      </trkpt>
      <trkpt lat="48.14239" lon="-1.36774">
        <ele>85</ele>
        <time>2010-07-29T09:27:32Z</time>
      </trkpt>
      <trkpt lat="48.14246" lon="-1.36768">
        <ele>85</ele>
        <time>2010-07-29T09:27:38Z</time>
      </trkpt>
      <trkpt lat="48.14248" lon="-1.36767">
        <ele>86</ele>
        <time>2010-07-29T09:27:39Z</time>
      </trkpt>
      <trkpt lat="48.14266" lon="-1.36758">
        <ele>85</ele>
        <time>2010-07-29T09:27:46Z</time>
      </trkpt>
      <trkpt lat="48.14268" lon="-1.36756">
        <ele>85</ele>
        <time>2010-07-29T09:27:47Z</time>
      </trkpt>
      <trkpt lat="48.14274" lon="-1.36744">
        <ele>85</ele>
        <time>2010-07-29T09:27:52Z</time>
      </trkpt>
      <trkpt lat="48.14275" lon="-1.36735">
        <ele>86</ele>
        <time>2010-07-29T09:27:56Z</time>
      </trkpt>
      <trkpt lat="48.14275" lon="-1.36731">
        <ele>86</ele>
        <time>2010-07-29T09:27:58Z</time>
      </trkpt>
      <trkpt lat="48.14276" lon="-1.36725">
        <ele>86</ele>
        <time>2010-07-29T09:28:00Z</time>
      </trkpt>
      <trkpt lat="48.14276" lon="-1.36719">
        <ele>87</ele>
        <time>2010-07-29T09:28:02Z</time>
      </trkpt>
      <trkpt lat="48.14277" lon="-1.36714">
        <ele>87</ele>
        <time>2010-07-29T09:28:04Z</time>
      </trkpt>
      <trkpt lat="48.14277" lon="-1.36712">
        <ele>87</ele>
        <time>2010-07-29T09:28:05Z</time>
      </trkpt>
      <trkpt lat="48.14277" lon="-1.36708">
        <ele>87</ele>
        <time>2010-07-29T09:28:07Z</time>
      </trkpt>
      <trkpt lat="48.14277" lon="-1.36703">
        <ele>88</ele>
        <time>2010-07-29T09:28:09Z</time>
      </trkpt>
      <trkpt lat="48.14276" lon="-1.36698">
        <ele>88</ele>
        <time>2010-07-29T09:28:11Z</time>
      </trkpt>
      <trkpt lat="48.14274" lon="-1.36693">
        <ele>89</ele>
        <time>2010-07-29T09:28:13Z</time>
      </trkpt>
      <trkpt lat="48.14273" lon="-1.36688">
        <ele>89</ele>
        <time>2010-07-29T09:28:15Z</time>
      </trkpt>
      <trkpt lat="48.14271" lon="-1.36681">
        <ele>89</ele>
        <time>2010-07-29T09:28:18Z</time>
      </trkpt>
      <trkpt lat="48.14271" lon="-1.36679">
        <ele>90</ele>
        <time>2010-07-29T09:28:19Z</time>
      </trkpt>
      <trkpt lat="48.1427" lon="-1.36676">
        <ele>90</ele>
        <time>2010-07-29T09:28:20Z</time>
      </trkpt>
      <trkpt lat="48.1427" lon="-1.36671">
        <ele>90</ele>
        <time>2010-07-29T09:28:22Z</time>
      </trkpt>
      <trkpt lat="48.14271" lon="-1.36666">
        <ele>90</ele>
        <time>2010-07-29T09:28:24Z</time>
      </trkpt>
      <trkpt lat="48.14273" lon="-1.36662">
        <ele>90</ele>
        <time>2010-07-29T09:28:26Z</time>
      </trkpt>
      <trkpt lat="48.14277" lon="-1.36654">
        <ele>90</ele>
        <time>2010-07-29T09:28:29Z</time>
      </trkpt>
      <trkpt lat="48.14279" lon="-1.36649">
        <ele>90</ele>
        <time>2010-07-29T09:28:31Z</time>
      </trkpt>
      <trkpt lat="48.14279" lon="-1.36643">
        <ele>90</ele>
        <time>2010-07-29T09:28:33Z</time>
      </trkpt>
      <trkpt lat="48.14273" lon="-1.36627">
        <ele>91</ele>
        <time>2010-07-29T09:28:40Z</time>
      </trkpt>
      <trkpt lat="48.14272" lon="-1.36625">
        <ele>91</ele>
        <time>2010-07-29T09:28:41Z</time>
      </trkpt>
      <trkpt lat="48.1427" lon="-1.36617">
        <ele>92</ele>
        <time>2010-07-29T09:28:46Z</time>
      </trkpt>
      <trkpt lat="48.1427" lon="-1.36611">
        <ele>92</ele>
        <time>2010-07-29T09:28:49Z</time>
      </trkpt>
      <trkpt lat="48.14269" lon="-1.36607">
        <ele>92</ele>
        <time>2010-07-29T09:28:51Z</time>
      </trkpt>
      <trkpt lat="48.14268" lon="-1.36603">
        <ele>92</ele>
        <time>2010-07-29T09:28:53Z</time>
      </trkpt>
      <trkpt lat="48.14267" lon="-1.36598">
        <ele>93</ele>
        <time>2010-07-29T09:28:55Z</time>
      </trkpt>
      <trkpt lat="48.14265" lon="-1.36592">
        <ele>93</ele>
        <time>2010-07-29T09:28:57Z</time>
      </trkpt>
      <trkpt lat="48.14265" lon="-1.36589">
        <ele>93</ele>
        <time>2010-07-29T09:28:58Z</time>
      </trkpt>
      <trkpt lat="48.14263" lon="-1.36579">
        <ele>94</ele>
        <time>2010-07-29T09:29:02Z</time>
      </trkpt>
      <trkpt lat="48.14264" lon="-1.36573">
        <ele>94</ele>
        <time>2010-07-29T09:29:04Z</time>
      </trkpt>
      <trkpt lat="48.14265" lon="-1.36559">
        <ele>94</ele>
        <time>2010-07-29T09:29:09Z</time>
      </trkpt>
      <trkpt lat="48.14266" lon="-1.36556">
        <ele>94</ele>
        <time>2010-07-29T09:29:10Z</time>
      </trkpt>
      <trkpt lat="48.14266" lon="-1.36553">
        <ele>95</ele>
        <time>2010-07-29T09:29:11Z</time>
      </trkpt>
      <trkpt lat="48.14266" lon="-1.36548">
        <ele>95</ele>
        <time>2010-07-29T09:29:13Z</time>
      </trkpt>
      <trkpt lat="48.14266" lon="-1.36543">
        <ele>95</ele>
        <time>2010-07-29T09:29:15Z</time>
      </trkpt>
      <trkpt lat="48.14265" lon="-1.36539">
        <ele>95</ele>
        <time>2010-07-29T09:29:17Z</time>
      </trkpt>
      <trkpt lat="48.1426" lon="-1.36526">
        <ele>96</ele>
        <time>2010-07-29T09:29:24Z</time>
      </trkpt>
      <trkpt lat="48.14257" lon="-1.36522">
        <ele>97</ele>
        <time>2010-07-29T09:29:26Z</time>
      </trkpt>
      <trkpt lat="48.14257" lon="-1.3652">
        <ele>97</ele>
        <time>2010-07-29T09:29:27Z</time>
      </trkpt>
      <trkpt lat="48.14256" lon="-1.36518">
        <ele>97</ele>
        <time>2010-07-29T09:29:28Z</time>
      </trkpt>
      <trkpt lat="48.14254" lon="-1.36515">
        <ele>97</ele>
        <time>2010-07-29T09:29:30Z</time>
      </trkpt>
      <trkpt lat="48.14252" lon="-1.36512">
        <ele>98</ele>
        <time>2010-07-29T09:29:32Z</time>
      </trkpt>
      <trkpt lat="48.1425" lon="-1.36509">
        <ele>98</ele>
        <time>2010-07-29T09:29:34Z</time>
      </trkpt>
      <trkpt lat="48.14247" lon="-1.36505">
        <ele>98</ele>
        <time>2010-07-29T09:29:37Z</time>
      </trkpt>
      <trkpt lat="48.14245" lon="-1.365">
        <ele>99</ele>
        <time>2010-07-29T09:29:40Z</time>
      </trkpt>
      <trkpt lat="48.14243" lon="-1.36497">
        <ele>99</ele>
        <time>2010-07-29T09:29:42Z</time>
      </trkpt>
      <trkpt lat="48.1424" lon="-1.36494">
        <ele>99</ele>
        <time>2010-07-29T09:29:44Z</time>
      </trkpt>
      <trkpt lat="48.14238" lon="-1.36492">
        <ele>99</ele>
        <time>2010-07-29T09:29:46Z</time>
      </trkpt>
      <trkpt lat="48.14237" lon="-1.36491">
        <ele>99</ele>
        <time>2010-07-29T09:29:47Z</time>
      </trkpt>
      <trkpt lat="48.14233" lon="-1.36492">
        <ele>99</ele>
        <time>2010-07-29T09:29:51Z</time>
      </trkpt>
      <trkpt lat="48.14232" lon="-1.36495">
        <ele>99</ele>
        <time>2010-07-29T09:29:53Z</time>
      </trkpt>
      <trkpt lat="48.14232" lon="-1.36498">
        <ele>99</ele>
        <time>2010-07-29T09:29:55Z</time>
      </trkpt>
      <trkpt lat="48.14232" lon="-1.36502">
        <ele>99</ele>
        <time>2010-07-29T09:29:57Z</time>
      </trkpt>
      <trkpt lat="48.14232" lon="-1.36504">
        <ele>99</ele>
        <time>2010-07-29T09:29:59Z</time>
      </trkpt>
      <trkpt lat="48.14232" lon="-1.36505">
        <ele>99</ele>
        <time>2010-07-29T09:30:00Z</time>
      </trkpt>
      <trkpt lat="48.14227" lon="-1.36504">
        <ele>99</ele>
        <time>2010-07-29T09:30:14Z</time>
      </trkpt>
      <trkpt lat="48.14227" lon="-1.36504">
        <ele>99</ele>
        <time>2010-07-29T09:30:15Z</time>
      </trkpt>
      <trkpt lat="48.14227" lon="-1.36503">
        <ele>99</ele>
        <time>2010-07-29T09:30:16Z</time>
      </trkpt>
      <trkpt lat="48.14227" lon="-1.36502">
        <ele>99</ele>
        <time>2010-07-29T09:30:17Z</time>
      </trkpt>
      <trkpt lat="48.14226" lon="-1.36501">
        <ele>99</ele>
        <time>2010-07-29T09:30:18Z</time>
      </trkpt>
      <trkpt lat="48.14224" lon="-1.36501">
        <ele>99</ele>
        <time>2010-07-29T09:30:19Z</time>
      </trkpt>
      <trkpt lat="48.14222" lon="-1.365">
        <ele>99</ele>
        <time>2010-07-29T09:30:20Z</time>
      </trkpt>
      <trkpt lat="48.14219" lon="-1.365">
        <ele>100</ele>
        <time>2010-07-29T09:30:22Z</time>
      </trkpt>
      <trkpt lat="48.14218" lon="-1.36502">
        <ele>100</ele>
        <time>2010-07-29T09:30:23Z</time>
      </trkpt>
      <trkpt lat="48.14215" lon="-1.36505">
        <ele>100</ele>
        <time>2010-07-29T09:30:24Z</time>
      </trkpt>
      <trkpt lat="48.1421" lon="-1.36509">
        <ele>100</ele>
        <time>2010-07-29T09:30:26Z</time>
      </trkpt>
      <trkpt lat="48.14207" lon="-1.36513">
        <ele>100</ele>
        <time>2010-07-29T09:30:28Z</time>
      </trkpt>
      <trkpt lat="48.14205" lon="-1.36516">
        <ele>100</ele>
        <time>2010-07-29T09:30:30Z</time>
      </trkpt>
      <trkpt lat="48.14203" lon="-1.36517">
        <ele>100</ele>
        <time>2010-07-29T09:30:32Z</time>
      </trkpt>
      <trkpt lat="48.14199" lon="-1.36518">
        <ele>100</ele>
        <time>2010-07-29T09:30:38Z</time>
      </trkpt>
      <trkpt lat="48.14196" lon="-1.36516">
        <ele>100</ele>
        <time>2010-07-29T09:30:46Z</time>
      </trkpt>
      <trkpt lat="48.14194" lon="-1.36518">
        <ele>100</ele>
        <time>2010-07-29T09:30:48Z</time>
      </trkpt>
      <trkpt lat="48.14191" lon="-1.36524">
        <ele>100</ele>
        <time>2010-07-29T09:30:49Z</time>
      </trkpt>
      <trkpt lat="48.14189" lon="-1.36539">
        <ele>100</ele>
        <time>2010-07-29T09:30:52Z</time>
      </trkpt>
      <trkpt lat="48.14188" lon="-1.36551">
        <ele>100</ele>
        <time>2010-07-29T09:30:55Z</time>
      </trkpt>
      <trkpt lat="48.14192" lon="-1.36557">
        <ele>100</ele>
        <time>2010-07-29T09:30:59Z</time>
      </trkpt>
      <trkpt lat="48.14194" lon="-1.3656">
        <ele>100</ele>
        <time>2010-07-29T09:31:01Z</time>
      </trkpt>
      <trkpt lat="48.14195" lon="-1.36562">
        <ele>100</ele>
        <time>2010-07-29T09:31:02Z</time>
      </trkpt>
      <trkpt lat="48.14195" lon="-1.36569">
        <ele>100</ele>
        <time>2010-07-29T09:31:07Z</time>
      </trkpt>
      <trkpt lat="48.14194" lon="-1.36576">
        <ele>100</ele>
        <time>2010-07-29T09:31:29Z</time>
      </trkpt>
      <trkpt lat="48.14194" lon="-1.36577">
        <ele>100</ele>
        <time>2010-07-29T09:31:30Z</time>
      </trkpt>
      <trkpt lat="48.14194" lon="-1.36579">
        <ele>100</ele>
        <time>2010-07-29T09:31:31Z</time>
      </trkpt>
      <trkpt lat="48.14194" lon="-1.36583">
        <ele>99</ele>
        <time>2010-07-29T09:31:32Z</time>
      </trkpt>
      <trkpt lat="48.14194" lon="-1.36591">
        <ele>99</ele>
        <time>2010-07-29T09:31:33Z</time>
      </trkpt>
      <trkpt lat="48.14195" lon="-1.36596">
        <ele>99</ele>
        <time>2010-07-29T09:31:34Z</time>
      </trkpt>
      <trkpt lat="48.14196" lon="-1.36604">
        <ele>99</ele>
        <time>2010-07-29T09:31:35Z</time>
      </trkpt>
      <trkpt lat="48.142" lon="-1.36629">
        <ele>99</ele>
        <time>2010-07-29T09:31:36Z</time>
      </trkpt>
      <trkpt lat="48.14202" lon="-1.36645">
        <ele>98</ele>
        <time>2010-07-29T09:31:39Z</time>
      </trkpt>
      <trkpt lat="48.142" lon="-1.36648">
        <ele>98</ele>
        <time>2010-07-29T09:31:40Z</time>
      </trkpt>
      <trkpt lat="48.14199" lon="-1.3665">
        <ele>98</ele>
        <time>2010-07-29T09:31:41Z</time>
      </trkpt>
      <trkpt lat="48.14199" lon="-1.36654">
        <ele>98</ele>
        <time>2010-07-29T09:31:42Z</time>
      </trkpt>
      <trkpt lat="48.14198" lon="-1.36654">
        <ele>98</ele>
        <time>2010-07-29T09:31:43Z</time>
      </trkpt>
      <trkpt lat="48.14199" lon="-1.36657">
        <ele>98</ele>
        <time>2010-07-29T09:31:44Z</time>
      </trkpt>
      <trkpt lat="48.14198" lon="-1.36665">
        <ele>98</ele>
        <time>2010-07-29T09:31:46Z</time>
      </trkpt>
      <trkpt lat="48.14199" lon="-1.36668">
        <ele>98</ele>
        <time>2010-07-29T09:31:47Z</time>
      </trkpt>
      <trkpt lat="48.14199" lon="-1.3667">
        <ele>98</ele>
        <time>2010-07-29T09:31:48Z</time>
      </trkpt>
      <trkpt lat="48.142" lon="-1.3667">
        <ele>98</ele>
        <time>2010-07-29T09:31:50Z</time>
      </trkpt>
      <trkpt lat="48.14196" lon="-1.36671">
        <ele>97</ele>
        <time>2010-07-29T09:32:13Z</time>
      </trkpt>
      <trkpt lat="48.14195" lon="-1.36672">
        <ele>97</ele>
        <time>2010-07-29T09:32:14Z</time>
      </trkpt>
      <trkpt lat="48.14195" lon="-1.36672">
        <ele>97</ele>
        <time>2010-07-29T09:32:15Z</time>
      </trkpt>
      <trkpt lat="48.14195" lon="-1.36673">
        <ele>97</ele>
        <time>2010-07-29T09:32:16Z</time>
      </trkpt>
      <trkpt lat="48.14193" lon="-1.36674">
        <ele>97</ele>
        <time>2010-07-29T09:32:18Z</time>
      </trkpt>
      <trkpt lat="48.14192" lon="-1.36674">
        <ele>97</ele>
        <time>2010-07-29T09:32:20Z</time>
      </trkpt>
      <trkpt lat="48.14191" lon="-1.36673">
        <ele>97</ele>
        <time>2010-07-29T09:32:22Z</time>
      </trkpt>
      <trkpt lat="48.14186" lon="-1.3667">
        <ele>97</ele>
        <time>2010-07-29T09:32:30Z</time>
      </trkpt>
      <trkpt lat="48.14184" lon="-1.36671">
        <ele>97</ele>
        <time>2010-07-29T09:32:32Z</time>
      </trkpt>
      <trkpt lat="48.14183" lon="-1.36672">
        <ele>97</ele>
        <time>2010-07-29T09:32:34Z</time>
      </trkpt>
      <trkpt lat="48.14183" lon="-1.36672">
        <ele>97</ele>
        <time>2010-07-29T09:32:35Z</time>
      </trkpt>
      <trkpt lat="48.14183" lon="-1.36674">
        <ele>97</ele>
        <time>2010-07-29T09:32:38Z</time>
      </trkpt>
      <trkpt lat="48.14183" lon="-1.36674">
        <ele>97</ele>
        <time>2010-07-29T09:32:39Z</time>
      </trkpt>
      <trkpt lat="48.14184" lon="-1.36676">
        <ele>97</ele>
        <time>2010-07-29T09:32:41Z</time>
      </trkpt>
      <trkpt lat="48.14185" lon="-1.36676">
        <ele>97</ele>
        <time>2010-07-29T09:32:42Z</time>
      </trkpt>
      <trkpt lat="48.14186" lon="-1.36677">
        <ele>97</ele>
        <time>2010-07-29T09:32:44Z</time>
      </trkpt>
      <trkpt lat="48.14186" lon="-1.36678">
        <ele>97</ele>
        <time>2010-07-29T09:32:45Z</time>
      </trkpt>
      <trkpt lat="48.14186" lon="-1.36681">
        <ele>97</ele>
        <time>2010-07-29T09:32:46Z</time>
      </trkpt>
      <trkpt lat="48.14186" lon="-1.36683">
        <ele>97</ele>
        <time>2010-07-29T09:32:47Z</time>
      </trkpt>
      <trkpt lat="48.14186" lon="-1.36688">
        <ele>96</ele>
        <time>2010-07-29T09:32:49Z</time>
      </trkpt>
      <trkpt lat="48.14184" lon="-1.3669">
        <ele>96</ele>
        <time>2010-07-29T09:32:51Z</time>
      </trkpt>
      <trkpt lat="48.14181" lon="-1.36693">
        <ele>96</ele>
        <time>2010-07-29T09:32:53Z</time>
      </trkpt>
      <trkpt lat="48.14181" lon="-1.36698">
        <ele>96</ele>
        <time>2010-07-29T09:32:55Z</time>
      </trkpt>
      <trkpt lat="48.14184" lon="-1.36714">
        <ele>95</ele>
        <time>2010-07-29T09:33:03Z</time>
      </trkpt>
      <trkpt lat="48.14188" lon="-1.36726">
        <ele>94</ele>
        <time>2010-07-29T09:33:06Z</time>
      </trkpt>
      <trkpt lat="48.1419" lon="-1.36727">
        <ele>94</ele>
        <time>2010-07-29T09:33:07Z</time>
      </trkpt>
      <trkpt lat="48.14194" lon="-1.36729">
        <ele>94</ele>
        <time>2010-07-29T09:33:08Z</time>
      </trkpt>
      <trkpt lat="48.14201" lon="-1.3673">
        <ele>94</ele>
        <time>2010-07-29T09:33:10Z</time>
      </trkpt>
      <trkpt lat="48.14204" lon="-1.36728">
        <ele>93</ele>
        <time>2010-07-29T09:33:11Z</time>
      </trkpt>
      <trkpt lat="48.14208" lon="-1.36727">
        <ele>93</ele>
        <time>2010-07-29T09:33:12Z</time>
      </trkpt>
      <trkpt lat="48.14214" lon="-1.36717">
        <ele>93</ele>
        <time>2010-07-29T09:33:15Z</time>
      </trkpt>
      <trkpt lat="48.14215" lon="-1.36714">
        <ele>93</ele>
        <time>2010-07-29T09:33:16Z</time>
      </trkpt>
      <trkpt lat="48.14214" lon="-1.36713">
        <ele>93</ele>
        <time>2010-07-29T09:33:18Z</time>
      </trkpt>
      <trkpt lat="48.14214" lon="-1.36713">
        <ele>93</ele>
        <time>2010-07-29T09:33:20Z</time>
      </trkpt>
      <trkpt lat="48.1421" lon="-1.36708">
        <ele>94</ele>
        <time>2010-07-29T09:33:25Z</time>
      </trkpt>
      <trkpt lat="48.14209" lon="-1.36707">
        <ele>94</ele>
        <time>2010-07-29T09:33:27Z</time>
      </trkpt>
      <trkpt lat="48.1421" lon="-1.36707">
        <ele>94</ele>
        <time>2010-07-29T09:33:28Z</time>
      </trkpt>
      <trkpt lat="48.14211" lon="-1.36707">
        <ele>94</ele>
        <time>2010-07-29T09:33:44Z</time>
      </trkpt>
      <trkpt lat="48.14211" lon="-1.36707">
        <ele>94</ele>
        <time>2010-07-29T09:33:45Z</time>
      </trkpt>
      <trkpt lat="48.14212" lon="-1.36707">
        <ele>94</ele>
        <time>2010-07-29T09:33:46Z</time>
      </trkpt>
      <trkpt lat="48.14213" lon="-1.36708">
        <ele>94</ele>
        <time>2010-07-29T09:33:47Z</time>
      </trkpt>
      <trkpt lat="48.14214" lon="-1.36708">
        <ele>94</ele>
        <time>2010-07-29T09:33:48Z</time>
      </trkpt>
      <trkpt lat="48.14219" lon="-1.36714">
        <ele>93</ele>
        <time>2010-07-29T09:33:51Z</time>
      </trkpt>
      <trkpt lat="48.14222" lon="-1.36718">
        <ele>92</ele>
        <time>2010-07-29T09:33:54Z</time>
      </trkpt>
      <trkpt lat="48.14221" lon="-1.36719">
        <ele>92</ele>
        <time>2010-07-29T09:33:56Z</time>
      </trkpt>
      <trkpt lat="48.14221" lon="-1.36721">
        <ele>92</ele>
        <time>2010-07-29T09:33:57Z</time>
      </trkpt>
      <trkpt lat="48.1422" lon="-1.36721">
        <ele>92</ele>
        <time>2010-07-29T09:33:58Z</time>
      </trkpt>
      <trkpt lat="48.1422" lon="-1.36725">
        <ele>92</ele>
        <time>2010-07-29T09:34:01Z</time>
      </trkpt>
      <trkpt lat="48.1422" lon="-1.36727">
        <ele>92</ele>
        <time>2010-07-29T09:34:02Z</time>
      </trkpt>
      <trkpt lat="48.14218" lon="-1.3673">
        <ele>92</ele>
        <time>2010-07-29T09:34:04Z</time>
      </trkpt>
      <trkpt lat="48.14216" lon="-1.36733">
        <ele>92</ele>
        <time>2010-07-29T09:34:06Z</time>
      </trkpt>
      <trkpt lat="48.14216" lon="-1.36735">
        <ele>92</ele>
        <time>2010-07-29T09:34:08Z</time>
      </trkpt>
      <trkpt lat="48.14219" lon="-1.36743">
        <ele>91</ele>
        <time>2010-07-29T09:34:11Z</time>
      </trkpt>
      <trkpt lat="48.14225" lon="-1.36756">
        <ele>89</ele>
        <time>2010-07-29T09:34:13Z</time>
      </trkpt>
      <trkpt lat="48.14229" lon="-1.36761">
        <ele>88</ele>
        <time>2010-07-29T09:34:14Z</time>
      </trkpt>
      <trkpt lat="48.14232" lon="-1.36764">
        <ele>87</ele>
        <time>2010-07-29T09:34:15Z</time>
      </trkpt>
      <trkpt lat="48.14235" lon="-1.3677">
        <ele>86</ele>
        <time>2010-07-29T09:34:16Z</time>
      </trkpt>
      <trkpt lat="48.14236" lon="-1.36773">
        <ele>86</ele>
        <time>2010-07-29T09:34:17Z</time>
      </trkpt>
      <trkpt lat="48.14234" lon="-1.36779">
        <ele>85</ele>
        <time>2010-07-29T09:34:19Z</time>
      </trkpt>
      <trkpt lat="48.14232" lon="-1.36783">
        <ele>85</ele>
        <time>2010-07-29T09:34:20Z</time>
      </trkpt>
      <trkpt lat="48.14229" lon="-1.36786">
        <ele>85</ele>
        <time>2010-07-29T09:34:22Z</time>
      </trkpt>
      <trkpt lat="48.14226" lon="-1.36791">
        <ele>85</ele>
        <time>2010-07-29T09:34:31Z</time>
      </trkpt>
      <trkpt lat="48.14222" lon="-1.36798">
        <ele>84</ele>
        <time>2010-07-29T09:34:33Z</time>
      </trkpt>
      <trkpt lat="48.14218" lon="-1.36808">
        <ele>84</ele>
        <time>2010-07-29T09:34:35Z</time>
      </trkpt>
      <trkpt lat="48.14214" lon="-1.36818">
        <ele>83</ele>
        <time>2010-07-29T09:34:37Z</time>
      </trkpt>
      <trkpt lat="48.1421" lon="-1.3682">
        <ele>83</ele>
        <time>2010-07-29T09:34:38Z</time>
      </trkpt>
      <trkpt lat="48.14208" lon="-1.36823">
        <ele>83</ele>
        <time>2010-07-29T09:34:39Z</time>
      </trkpt>
      <trkpt lat="48.14204" lon="-1.36828">
        <ele>83</ele>
        <time>2010-07-29T09:34:43Z</time>
      </trkpt>
      <trkpt lat="48.14198" lon="-1.36836">
        <ele>83</ele>
        <time>2010-07-29T09:34:47Z</time>
      </trkpt>
      <trkpt lat="48.14186" lon="-1.36849">
        <ele>83</ele>
        <time>2010-07-29T09:34:53Z</time>
      </trkpt>
      <trkpt lat="48.14183" lon="-1.36851">
        <ele>83</ele>
        <time>2010-07-29T09:34:54Z</time>
      </trkpt>
      <trkpt lat="48.1418" lon="-1.36855">
        <ele>83</ele>
        <time>2010-07-29T09:34:56Z</time>
      </trkpt>
      <trkpt lat="48.14173" lon="-1.36865">
        <ele>83</ele>
        <time>2010-07-29T09:35:01Z</time>
      </trkpt>
      <trkpt lat="48.14163" lon="-1.36872">
        <ele>83</ele>
        <time>2010-07-29T09:35:04Z</time>
      </trkpt>
      <trkpt lat="48.14162" lon="-1.36882">
        <ele>82</ele>
        <time>2010-07-29T09:35:09Z</time>
      </trkpt>
      <trkpt lat="48.14155" lon="-1.369">
        <ele>81</ele>
        <time>2010-07-29T09:35:12Z</time>
      </trkpt>
      <trkpt lat="48.14152" lon="-1.36909">
        <ele>81</ele>
        <time>2010-07-29T09:35:13Z</time>
      </trkpt>
      <trkpt lat="48.14144" lon="-1.3692">
        <ele>81</ele>
        <time>2010-07-29T09:35:15Z</time>
      </trkpt>
      <trkpt lat="48.14141" lon="-1.36925">
        <ele>81</ele>
        <time>2010-07-29T09:35:17Z</time>
      </trkpt>
      <trkpt lat="48.14141" lon="-1.36926">
        <ele>81</ele>
        <time>2010-07-29T09:35:18Z</time>
      </trkpt>
      <trkpt lat="48.1414" lon="-1.36928">
        <ele>80</ele>
        <time>2010-07-29T09:35:19Z</time>
      </trkpt>
      <trkpt lat="48.14141" lon="-1.36929">
        <ele>80</ele>
        <time>2010-07-29T09:35:20Z</time>
      </trkpt>
      <trkpt lat="48.14142" lon="-1.3693">
        <ele>80</ele>
        <time>2010-07-29T09:36:14Z</time>
      </trkpt>
      <trkpt lat="48.14142" lon="-1.3693">
        <ele>80</ele>
        <time>2010-07-29T09:36:15Z</time>
      </trkpt>
      <trkpt lat="48.14143" lon="-1.36931">
        <ele>80</ele>
        <time>2010-07-29T09:36:16Z</time>
      </trkpt>
      <trkpt lat="48.14146" lon="-1.36936">
        <ele>79</ele>
        <time>2010-07-29T09:36:17Z</time>
      </trkpt>
      <trkpt lat="48.14149" lon="-1.3695">
        <ele>78</ele>
        <time>2010-07-29T09:36:20Z</time>
      </trkpt>
      <trkpt lat="48.14144" lon="-1.36959">
        <ele>78</ele>
        <time>2010-07-29T09:36:22Z</time>
      </trkpt>
      <trkpt lat="48.14135" lon="-1.36977">
        <ele>78</ele>
        <time>2010-07-29T09:36:26Z</time>
      </trkpt>
      <trkpt lat="48.14127" lon="-1.36983">
        <ele>78</ele>
        <time>2010-07-29T09:36:30Z</time>
      </trkpt>
      <trkpt lat="48.14119" lon="-1.36985">
        <ele>79</ele>
        <time>2010-07-29T09:36:34Z</time>
      </trkpt>
      <trkpt lat="48.14116" lon="-1.36986">
        <ele>79</ele>
        <time>2010-07-29T09:36:35Z</time>
      </trkpt>
      <trkpt lat="48.14107" lon="-1.36992">
        <ele>79</ele>
        <time>2010-07-29T09:36:38Z</time>
      </trkpt>
      <trkpt lat="48.14103" lon="-1.36995">
        <ele>79</ele>
        <time>2010-07-29T09:36:40Z</time>
      </trkpt>
      <trkpt lat="48.14102" lon="-1.36996">
        <ele>79</ele>
        <time>2010-07-29T09:36:42Z</time>
      </trkpt>
      <trkpt lat="48.14098" lon="-1.36994">
        <ele>79</ele>
        <time>2010-07-29T09:36:51Z</time>
      </trkpt>
      <trkpt lat="48.14097" lon="-1.36995">
        <ele>79</ele>
        <time>2010-07-29T09:36:52Z</time>
      </trkpt>
      <trkpt lat="48.14088" lon="-1.36999">
        <ele>79</ele>
        <time>2010-07-29T09:36:55Z</time>
      </trkpt>
      <trkpt lat="48.14085" lon="-1.36998">
        <ele>79</ele>
        <time>2010-07-29T09:36:56Z</time>
      </trkpt>
      <trkpt lat="48.14082" lon="-1.36999">
        <ele>79</ele>
        <time>2010-07-29T09:36:57Z</time>
      </trkpt>
      <trkpt lat="48.14076" lon="-1.36998">
        <ele>79</ele>
        <time>2010-07-29T09:36:59Z</time>
      </trkpt>
      <trkpt lat="48.14072" lon="-1.36995">
        <ele>79</ele>
        <time>2010-07-29T09:37:01Z</time>
      </trkpt>
      <trkpt lat="48.14064" lon="-1.36996">
        <ele>79</ele>
        <time>2010-07-29T09:37:05Z</time>
      </trkpt>
      <trkpt lat="48.14052" lon="-1.3699">
        <ele>80</ele>
        <time>2010-07-29T09:37:09Z</time>
      </trkpt>
      <trkpt lat="48.14046" lon="-1.36988">
        <ele>80</ele>
        <time>2010-07-29T09:37:10Z</time>
      </trkpt>
      <trkpt lat="48.14043" lon="-1.36987">
        <ele>80</ele>
        <time>2010-07-29T09:37:11Z</time>
      </trkpt>
      <trkpt lat="48.14035" lon="-1.36984">
        <ele>80</ele>
        <time>2010-07-29T09:37:13Z</time>
      </trkpt>
      <trkpt lat="48.14032" lon="-1.3698">
        <ele>80</ele>
        <time>2010-07-29T09:37:15Z</time>
      </trkpt>
      <trkpt lat="48.14029" lon="-1.36972">
        <ele>80</ele>
        <time>2010-07-29T09:37:17Z</time>
      </trkpt>
      <trkpt lat="48.14027" lon="-1.3697">
        <ele>80</ele>
        <time>2010-07-29T09:37:18Z</time>
      </trkpt>
      <trkpt lat="48.1402" lon="-1.36977">
        <ele>80</ele>
        <time>2010-07-29T09:37:26Z</time>
      </trkpt>
      <trkpt lat="48.14006" lon="-1.36994">
        <ele>78</ele>
        <time>2010-07-29T09:37:32Z</time>
      </trkpt>
      <trkpt lat="48.13995" lon="-1.37016">
        <ele>76</ele>
        <time>2010-07-29T09:37:38Z</time>
      </trkpt>
      <trkpt lat="48.13982" lon="-1.37034">
        <ele>76</ele>
        <time>2010-07-29T09:37:44Z</time>
      </trkpt>
      <trkpt lat="48.13979" lon="-1.37036">
        <ele>76</ele>
        <time>2010-07-29T09:37:45Z</time>
      </trkpt>
      <trkpt lat="48.13972" lon="-1.37051">
        <ele>76</ele>
        <time>2010-07-29T09:37:49Z</time>
      </trkpt>
      <trkpt lat="48.13959" lon="-1.37078">
        <ele>77</ele>
        <time>2010-07-29T09:37:54Z</time>
      </trkpt>
      <trkpt lat="48.13953" lon="-1.37099">
        <ele>77</ele>
        <time>2010-07-29T09:37:58Z</time>
      </trkpt>
      <trkpt lat="48.13938" lon="-1.37126">
        <ele>77</ele>
        <time>2010-07-29T09:38:03Z</time>
      </trkpt>
      <trkpt lat="48.13936" lon="-1.37131">
        <ele>77</ele>
        <time>2010-07-29T09:38:04Z</time>
      </trkpt>
      <trkpt lat="48.1392" lon="-1.37162">
        <ele>78</ele>
        <time>2010-07-29T09:38:10Z</time>
      </trkpt>
      <trkpt lat="48.13919" lon="-1.37172">
        <ele>79</ele>
        <time>2010-07-29T09:38:14Z</time>
      </trkpt>
      <trkpt lat="48.13917" lon="-1.37181">
        <ele>79</ele>
        <time>2010-07-29T09:38:17Z</time>
      </trkpt>
      <trkpt lat="48.13906" lon="-1.37183">
        <ele>80</ele>
        <time>2010-07-29T09:38:21Z</time>
      </trkpt>
      <trkpt lat="48.13898" lon="-1.37183">
        <ele>81</ele>
        <time>2010-07-29T09:38:26Z</time>
      </trkpt>
      <trkpt lat="48.13884" lon="-1.37187">
        <ele>82</ele>
        <time>2010-07-29T09:38:30Z</time>
      </trkpt>
      <trkpt lat="48.13877" lon="-1.37187">
        <ele>83</ele>
        <time>2010-07-29T09:38:32Z</time>
      </trkpt>
      <trkpt lat="48.13873" lon="-1.37188">
        <ele>83</ele>
        <time>2010-07-29T09:38:34Z</time>
      </trkpt>
      <trkpt lat="48.1387" lon="-1.37189">
        <ele>84</ele>
        <time>2010-07-29T09:38:36Z</time>
      </trkpt>
      <trkpt lat="48.13866" lon="-1.3719">
        <ele>84</ele>
        <time>2010-07-29T09:38:38Z</time>
      </trkpt>
      <trkpt lat="48.13857" lon="-1.3719">
        <ele>85</ele>
        <time>2010-07-29T09:38:42Z</time>
      </trkpt>
      <trkpt lat="48.13851" lon="-1.3719">
        <ele>85</ele>
        <time>2010-07-29T09:38:44Z</time>
      </trkpt>
      <trkpt lat="48.13847" lon="-1.37189">
        <ele>85</ele>
        <time>2010-07-29T09:38:46Z</time>
      </trkpt>
      <trkpt lat="48.13841" lon="-1.37187">
        <ele>86</ele>
        <time>2010-07-29T09:38:48Z</time>
      </trkpt>
      <trkpt lat="48.13838" lon="-1.37188">
        <ele>86</ele>
        <time>2010-07-29T09:38:50Z</time>
      </trkpt>
      <trkpt lat="48.13835" lon="-1.3719">
        <ele>86</ele>
        <time>2010-07-29T09:38:52Z</time>
      </trkpt>
      <trkpt lat="48.13822" lon="-1.37193">
        <ele>87</ele>
        <time>2010-07-29T09:38:59Z</time>
      </trkpt>
      <trkpt lat="48.13806" lon="-1.372">
        <ele>88</ele>
        <time>2010-07-29T09:39:04Z</time>
      </trkpt>
      <trkpt lat="48.13799" lon="-1.37214">
        <ele>88</ele>
        <time>2010-07-29T09:39:09Z</time>
      </trkpt>
      <trkpt lat="48.13797" lon="-1.37216">
        <ele>89</ele>
        <time>2010-07-29T09:39:10Z</time>
      </trkpt>
      <trkpt lat="48.1378" lon="-1.3723">
        <ele>89</ele>
        <time>2010-07-29T09:39:15Z</time>
      </trkpt>
      <trkpt lat="48.13764" lon="-1.37242">
        <ele>89</ele>
        <time>2010-07-29T09:39:20Z</time>
      </trkpt>
      <trkpt lat="48.13744" lon="-1.37257">
        <ele>89</ele>
        <time>2010-07-29T09:39:24Z</time>
      </trkpt>
      <trkpt lat="48.13733" lon="-1.3727">
        <ele>88</ele>
        <time>2010-07-29T09:39:26Z</time>
      </trkpt>
      <trkpt lat="48.13727" lon="-1.37277">
        <ele>88</ele>
        <time>2010-07-29T09:39:27Z</time>
      </trkpt>
      <trkpt lat="48.13724" lon="-1.37282">
        <ele>88</ele>
        <time>2010-07-29T09:39:28Z</time>
      </trkpt>
      <trkpt lat="48.13713" lon="-1.37296">
        <ele>88</ele>
        <time>2010-07-29T09:39:30Z</time>
      </trkpt>
      <trkpt lat="48.13701" lon="-1.37304">
        <ele>87</ele>
        <time>2010-07-29T09:39:32Z</time>
      </trkpt>
      <trkpt lat="48.13691" lon="-1.37311">
        <ele>86</ele>
        <time>2010-07-29T09:39:34Z</time>
      </trkpt>
      <trkpt lat="48.13689" lon="-1.37313">
        <ele>86</ele>
        <time>2010-07-29T09:39:35Z</time>
      </trkpt>
      <trkpt lat="48.13687" lon="-1.37315">
        <ele>86</ele>
        <time>2010-07-29T09:39:36Z</time>
      </trkpt>
      <trkpt lat="48.13684" lon="-1.37314">
        <ele>86</ele>
        <time>2010-07-29T09:39:37Z</time>
      </trkpt>
      <trkpt lat="48.13676" lon="-1.37305">
        <ele>84</ele>
        <time>2010-07-29T09:39:39Z</time>
      </trkpt>
      <trkpt lat="48.13666" lon="-1.37289">
        <ele>82</ele>
        <time>2010-07-29T09:39:41Z</time>
      </trkpt>
      <trkpt lat="48.13659" lon="-1.37275">
        <ele>81</ele>
        <time>2010-07-29T09:39:43Z</time>
      </trkpt>
      <trkpt lat="48.1366" lon="-1.37263">
        <ele>80</ele>
        <time>2010-07-29T09:39:45Z</time>
      </trkpt>
      <trkpt lat="48.1366" lon="-1.37258">
        <ele>80</ele>
        <time>2010-07-29T09:39:46Z</time>
      </trkpt>
      <trkpt lat="48.13661" lon="-1.37252">
        <ele>80</ele>
        <time>2010-07-29T09:39:47Z</time>
      </trkpt>
      <trkpt lat="48.13661" lon="-1.37247">
        <ele>80</ele>
        <time>2010-07-29T09:39:48Z</time>
      </trkpt>
      <trkpt lat="48.13662" lon="-1.37242">
        <ele>80</ele>
        <time>2010-07-29T09:39:49Z</time>
      </trkpt>
      <trkpt lat="48.13663" lon="-1.37236">
        <ele>79</ele>
        <time>2010-07-29T09:39:50Z</time>
      </trkpt>
      <trkpt lat="48.13664" lon="-1.37224">
        <ele>79</ele>
        <time>2010-07-29T09:39:52Z</time>
      </trkpt>
      <trkpt lat="48.13667" lon="-1.37212">
        <ele>79</ele>
        <time>2010-07-29T09:39:54Z</time>
      </trkpt>
      <trkpt lat="48.13669" lon="-1.3718">
        <ele>77</ele>
        <time>2010-07-29T09:39:59Z</time>
      </trkpt>
      <trkpt lat="48.13671" lon="-1.37174">
        <ele>77</ele>
        <time>2010-07-29T09:40:00Z</time>
      </trkpt>
      <trkpt lat="48.13678" lon="-1.37144">
        <ele>76</ele>
        <time>2010-07-29T09:40:04Z</time>
      </trkpt>
      <trkpt lat="48.13685" lon="-1.37107">
        <ele>74</ele>
        <time>2010-07-29T09:40:09Z</time>
      </trkpt>
      <trkpt lat="48.13685" lon="-1.371">
        <ele>73</ele>
        <time>2010-07-29T09:40:10Z</time>
      </trkpt>
      <trkpt lat="48.13689" lon="-1.37085">
        <ele>73</ele>
        <time>2010-07-29T09:40:12Z</time>
      </trkpt>
      <trkpt lat="48.13693" lon="-1.37068">
        <ele>72</ele>
        <time>2010-07-29T09:40:14Z</time>
      </trkpt>
      <trkpt lat="48.13697" lon="-1.37051">
        <ele>71</ele>
        <time>2010-07-29T09:40:16Z</time>
      </trkpt>
      <trkpt lat="48.13702" lon="-1.37034">
        <ele>71</ele>
        <time>2010-07-29T09:40:18Z</time>
      </trkpt>
      <trkpt lat="48.13706" lon="-1.37018">
        <ele>71</ele>
        <time>2010-07-29T09:40:20Z</time>
      </trkpt>
      <trkpt lat="48.13715" lon="-1.36984">
        <ele>70</ele>
        <time>2010-07-29T09:40:24Z</time>
      </trkpt>
      <trkpt lat="48.13734" lon="-1.36908">
        <ele>70</ele>
        <time>2010-07-29T09:40:33Z</time>
      </trkpt>
      <trkpt lat="48.13736" lon="-1.36901">
        <ele>70</ele>
        <time>2010-07-29T09:40:34Z</time>
      </trkpt>
      <trkpt lat="48.13739" lon="-1.36879">
        <ele>71</ele>
        <time>2010-07-29T09:40:37Z</time>
      </trkpt>
      <trkpt lat="48.1375" lon="-1.3683">
        <ele>72</ele>
        <time>2010-07-29T09:40:44Z</time>
      </trkpt>
      <trkpt lat="48.13752" lon="-1.36824">
        <ele>72</ele>
        <time>2010-07-29T09:40:45Z</time>
      </trkpt>
      <trkpt lat="48.1376" lon="-1.36789">
        <ele>73</ele>
        <time>2010-07-29T09:40:51Z</time>
      </trkpt>
      <trkpt lat="48.13769" lon="-1.36747">
        <ele>74</ele>
        <time>2010-07-29T09:40:58Z</time>
      </trkpt>
      <trkpt lat="48.1378" lon="-1.3672">
        <ele>76</ele>
        <time>2010-07-29T09:41:04Z</time>
      </trkpt>
      <trkpt lat="48.13783" lon="-1.36711">
        <ele>76</ele>
        <time>2010-07-29T09:41:06Z</time>
      </trkpt>
      <trkpt lat="48.13784" lon="-1.367">
        <ele>76</ele>
        <time>2010-07-29T09:41:08Z</time>
      </trkpt>
      <trkpt lat="48.13786" lon="-1.3669">
        <ele>77</ele>
        <time>2010-07-29T09:41:10Z</time>
      </trkpt>
      <trkpt lat="48.13789" lon="-1.3668">
        <ele>77</ele>
        <time>2010-07-29T09:41:12Z</time>
      </trkpt>
      <trkpt lat="48.13791" lon="-1.36672">
        <ele>77</ele>
        <time>2010-07-29T09:41:14Z</time>
      </trkpt>
      <trkpt lat="48.13794" lon="-1.36663">
        <ele>78</ele>
        <time>2010-07-29T09:41:16Z</time>
      </trkpt>
      <trkpt lat="48.13797" lon="-1.36654">
        <ele>78</ele>
        <time>2010-07-29T09:41:18Z</time>
      </trkpt>
      <trkpt lat="48.13801" lon="-1.36645">
        <ele>79</ele>
        <time>2010-07-29T09:41:20Z</time>
      </trkpt>
      <trkpt lat="48.13803" lon="-1.36636">
        <ele>79</ele>
        <time>2010-07-29T09:41:22Z</time>
      </trkpt>
      <trkpt lat="48.13805" lon="-1.36628">
        <ele>80</ele>
        <time>2010-07-29T09:41:24Z</time>
      </trkpt>
      <trkpt lat="48.13806" lon="-1.36622">
        <ele>80</ele>
        <time>2010-07-29T09:41:26Z</time>
      </trkpt>
      <trkpt lat="48.13805" lon="-1.36613">
        <ele>80</ele>
        <time>2010-07-29T09:41:29Z</time>
      </trkpt>
      <trkpt lat="48.13803" lon="-1.3661">
        <ele>80</ele>
        <time>2010-07-29T09:41:30Z</time>
      </trkpt>
      <trkpt lat="48.13802" lon="-1.36607">
        <ele>79</ele>
        <time>2010-07-29T09:41:32Z</time>
      </trkpt>
      <trkpt lat="48.13801" lon="-1.36607">
        <ele>79</ele>
        <time>2010-07-29T09:41:33Z</time>
      </trkpt>
      <trkpt lat="48.13796" lon="-1.36608">
        <ele>79</ele>
        <time>2010-07-29T09:41:35Z</time>
      </trkpt>
      <trkpt lat="48.13779" lon="-1.3661">
        <ele>78</ele>
        <time>2010-07-29T09:41:38Z</time>
      </trkpt>
      <trkpt lat="48.13769" lon="-1.36612">
        <ele>78</ele>
        <time>2010-07-29T09:41:40Z</time>
      </trkpt>
      <trkpt lat="48.13758" lon="-1.36613">
        <ele>77</ele>
        <time>2010-07-29T09:41:42Z</time>
      </trkpt>
      <trkpt lat="48.13754" lon="-1.36613">
        <ele>77</ele>
        <time>2010-07-29T09:41:43Z</time>
      </trkpt>
      <trkpt lat="48.13749" lon="-1.36612">
        <ele>77</ele>
        <time>2010-07-29T09:41:44Z</time>
      </trkpt>
      <trkpt lat="48.13747" lon="-1.36613">
        <ele>77</ele>
        <time>2010-07-29T09:41:45Z</time>
      </trkpt>
      <trkpt lat="48.13744" lon="-1.36609">
        <ele>77</ele>
        <time>2010-07-29T09:41:48Z</time>
      </trkpt>
      <trkpt lat="48.13743" lon="-1.36607">
        <ele>77</ele>
        <time>2010-07-29T09:41:49Z</time>
      </trkpt>
      <trkpt lat="48.13733" lon="-1.3657">
        <ele>79</ele>
        <time>2010-07-29T09:41:55Z</time>
      </trkpt>
      <trkpt lat="48.13725" lon="-1.36537">
        <ele>79</ele>
        <time>2010-07-29T09:42:00Z</time>
      </trkpt>
      <trkpt lat="48.13723" lon="-1.3653">
        <ele>80</ele>
        <time>2010-07-29T09:42:01Z</time>
      </trkpt>
      <trkpt lat="48.13721" lon="-1.36519">
        <ele>80</ele>
        <time>2010-07-29T09:42:03Z</time>
      </trkpt>
      <trkpt lat="48.13719" lon="-1.36512">
        <ele>80</ele>
        <time>2010-07-29T09:42:05Z</time>
      </trkpt>
      <trkpt lat="48.13716" lon="-1.36506">
        <ele>80</ele>
        <time>2010-07-29T09:42:06Z</time>
      </trkpt>
      <trkpt lat="48.13715" lon="-1.36503">
        <ele>80</ele>
        <time>2010-07-29T09:42:07Z</time>
      </trkpt>
      <trkpt lat="48.13711" lon="-1.36493">
        <ele>80</ele>
        <time>2010-07-29T09:42:09Z</time>
      </trkpt>
      <trkpt lat="48.13709" lon="-1.36485">
        <ele>81</ele>
        <time>2010-07-29T09:42:11Z</time>
      </trkpt>
      <trkpt lat="48.13708" lon="-1.3648">
        <ele>81</ele>
        <time>2010-07-29T09:42:12Z</time>
      </trkpt>
      <trkpt lat="48.13706" lon="-1.36472">
        <ele>81</ele>
        <time>2010-07-29T09:42:14Z</time>
      </trkpt>
      <trkpt lat="48.13707" lon="-1.36467">
        <ele>81</ele>
        <time>2010-07-29T09:42:15Z</time>
      </trkpt>
      <trkpt lat="48.13708" lon="-1.36462">
        <ele>81</ele>
        <time>2010-07-29T09:42:16Z</time>
      </trkpt>
      <trkpt lat="48.13709" lon="-1.36449">
        <ele>81</ele>
        <time>2010-07-29T09:42:18Z</time>
      </trkpt>
      <trkpt lat="48.13706" lon="-1.36434">
        <ele>81</ele>
        <time>2010-07-29T09:42:20Z</time>
      </trkpt>
      <trkpt lat="48.13697" lon="-1.36398">
        <ele>82</ele>
        <time>2010-07-29T09:42:25Z</time>
      </trkpt>
      <trkpt lat="48.1369" lon="-1.36371">
        <ele>82</ele>
        <time>2010-07-29T09:42:29Z</time>
      </trkpt>
      <trkpt lat="48.13685" lon="-1.36346">
        <ele>82</ele>
        <time>2010-07-29T09:42:33Z</time>
      </trkpt>
      <trkpt lat="48.13684" lon="-1.36339">
        <ele>83</ele>
        <time>2010-07-29T09:42:34Z</time>
      </trkpt>
      <trkpt lat="48.13679" lon="-1.36302">
        <ele>83</ele>
        <time>2010-07-29T09:42:39Z</time>
      </trkpt>
      <trkpt lat="48.13673" lon="-1.36275">
        <ele>83</ele>
        <time>2010-07-29T09:42:44Z</time>
      </trkpt>
      <trkpt lat="48.13672" lon="-1.36271">
        <ele>83</ele>
        <time>2010-07-29T09:42:45Z</time>
      </trkpt>
      <trkpt lat="48.13665" lon="-1.36269">
        <ele>83</ele>
        <time>2010-07-29T09:42:48Z</time>
      </trkpt>
      <trkpt lat="48.13662" lon="-1.3627">
        <ele>83</ele>
        <time>2010-07-29T09:42:49Z</time>
      </trkpt>
      <trkpt lat="48.13647" lon="-1.36277">
        <ele>84</ele>
        <time>2010-07-29T09:42:56Z</time>
      </trkpt>
      <trkpt lat="48.13637" lon="-1.36283">
        <ele>85</ele>
        <time>2010-07-29T09:43:00Z</time>
      </trkpt>
      <trkpt lat="48.13633" lon="-1.36287">
        <ele>85</ele>
        <time>2010-07-29T09:43:02Z</time>
      </trkpt>
      <trkpt lat="48.1363" lon="-1.36288">
        <ele>85</ele>
        <time>2010-07-29T09:43:03Z</time>
      </trkpt>
      <trkpt lat="48.13628" lon="-1.36289">
        <ele>85</ele>
        <time>2010-07-29T09:43:04Z</time>
      </trkpt>
      <trkpt lat="48.13624" lon="-1.36291">
        <ele>85</ele>
        <time>2010-07-29T09:43:06Z</time>
      </trkpt>
      <trkpt lat="48.13619" lon="-1.36293">
        <ele>85</ele>
        <time>2010-07-29T09:43:08Z</time>
      </trkpt>
      <trkpt lat="48.13604" lon="-1.36299">
        <ele>86</ele>
        <time>2010-07-29T09:43:14Z</time>
      </trkpt>
      <trkpt lat="48.13596" lon="-1.36304">
        <ele>87</ele>
        <time>2010-07-29T09:43:17Z</time>
      </trkpt>
      <trkpt lat="48.13597" lon="-1.36307">
        <ele>87</ele>
        <time>2010-07-29T09:43:19Z</time>
      </trkpt>
      <trkpt lat="48.13593" lon="-1.36306">
        <ele>87</ele>
        <time>2010-07-29T09:43:21Z</time>
      </trkpt>
      <trkpt lat="48.1359" lon="-1.36302">
        <ele>87</ele>
        <time>2010-07-29T09:43:22Z</time>
      </trkpt>
      <trkpt lat="48.13586" lon="-1.36299">
        <ele>88</ele>
        <time>2010-07-29T09:43:23Z</time>
      </trkpt>
      <trkpt lat="48.13584" lon="-1.36291">
        <ele>88</ele>
        <time>2010-07-29T09:43:25Z</time>
      </trkpt>
      <trkpt lat="48.1358" lon="-1.3628">
        <ele>88</ele>
        <time>2010-07-29T09:43:28Z</time>
      </trkpt>
      <trkpt lat="48.13572" lon="-1.36255">
        <ele>89</ele>
        <time>2010-07-29T09:43:34Z</time>
      </trkpt>
      <trkpt lat="48.13568" lon="-1.36247">
        <ele>89</ele>
        <time>2010-07-29T09:43:36Z</time>
      </trkpt>
      <trkpt lat="48.13566" lon="-1.36238">
        <ele>89</ele>
        <time>2010-07-29T09:43:38Z</time>
      </trkpt>
      <trkpt lat="48.13564" lon="-1.36228">
        <ele>89</ele>
        <time>2010-07-29T09:43:40Z</time>
      </trkpt>
      <trkpt lat="48.13562" lon="-1.36219">
        <ele>89</ele>
        <time>2010-07-29T09:43:42Z</time>
      </trkpt>
      <trkpt lat="48.13557" lon="-1.36196">
        <ele>90</ele>
        <time>2010-07-29T09:43:48Z</time>
      </trkpt>
      <trkpt lat="48.13546" lon="-1.36163">
        <ele>91</ele>
        <time>2010-07-29T09:43:57Z</time>
      </trkpt>
      <trkpt lat="48.13546" lon="-1.36158">
        <ele>91</ele>
        <time>2010-07-29T09:43:58Z</time>
      </trkpt>
      <trkpt lat="48.13545" lon="-1.36155">
        <ele>91</ele>
        <time>2010-07-29T09:43:59Z</time>
      </trkpt>
      <trkpt lat="48.13544" lon="-1.36151">
        <ele>91</ele>
        <time>2010-07-29T09:44:00Z</time>
      </trkpt>
      <trkpt lat="48.13542" lon="-1.36144">
        <ele>92</ele>
        <time>2010-07-29T09:44:02Z</time>
      </trkpt>
      <trkpt lat="48.13541" lon="-1.36137">
        <ele>92</ele>
        <time>2010-07-29T09:44:04Z</time>
      </trkpt>
      <trkpt lat="48.13539" lon="-1.36131">
        <ele>92</ele>
        <time>2010-07-29T09:44:06Z</time>
      </trkpt>
      <trkpt lat="48.13537" lon="-1.36127">
        <ele>93</ele>
        <time>2010-07-29T09:44:07Z</time>
      </trkpt>
      <trkpt lat="48.13532" lon="-1.36112">
        <ele>93</ele>
        <time>2010-07-29T09:44:11Z</time>
      </trkpt>
      <trkpt lat="48.13529" lon="-1.36106">
        <ele>94</ele>
        <time>2010-07-29T09:44:13Z</time>
      </trkpt>
      <trkpt lat="48.13528" lon="-1.36102">
        <ele>94</ele>
        <time>2010-07-29T09:44:14Z</time>
      </trkpt>
      <trkpt lat="48.13528" lon="-1.36098">
        <ele>94</ele>
        <time>2010-07-29T09:44:15Z</time>
      </trkpt>
      <trkpt lat="48.13531" lon="-1.36088">
        <ele>94</ele>
        <time>2010-07-29T09:44:17Z</time>
      </trkpt>
      <trkpt lat="48.13536" lon="-1.36081">
        <ele>94</ele>
        <time>2010-07-29T09:44:18Z</time>
      </trkpt>
      <trkpt lat="48.1354" lon="-1.36076">
        <ele>94</ele>
        <time>2010-07-29T09:44:19Z</time>
      </trkpt>
      <trkpt lat="48.13577" lon="-1.3603">
        <ele>93</ele>
        <time>2010-07-29T09:44:27Z</time>
      </trkpt>
      <trkpt lat="48.13586" lon="-1.36018">
        <ele>93</ele>
        <time>2010-07-29T09:44:29Z</time>
      </trkpt>
      <trkpt lat="48.13615" lon="-1.35983">
        <ele>93</ele>
        <time>2010-07-29T09:44:36Z</time>
      </trkpt>
      <trkpt lat="48.13619" lon="-1.35962">
        <ele>93</ele>
        <time>2010-07-29T09:44:40Z</time>
      </trkpt>
      <trkpt lat="48.13618" lon="-1.35958">
        <ele>93</ele>
        <time>2010-07-29T09:44:41Z</time>
      </trkpt>
      <trkpt lat="48.1362" lon="-1.3593">
        <ele>94</ele>
        <time>2010-07-29T09:44:49Z</time>
      </trkpt>
      <trkpt lat="48.13623" lon="-1.35896">
        <ele>95</ele>
        <time>2010-07-29T09:44:55Z</time>
      </trkpt>
      <trkpt lat="48.13626" lon="-1.35847">
        <ele>96</ele>
        <time>2010-07-29T09:45:02Z</time>
      </trkpt>
      <trkpt lat="48.13627" lon="-1.35833">
        <ele>96</ele>
        <time>2010-07-29T09:45:04Z</time>
      </trkpt>
      <trkpt lat="48.13627" lon="-1.35826">
        <ele>96</ele>
        <time>2010-07-29T09:45:05Z</time>
      </trkpt>
      <trkpt lat="48.13624" lon="-1.35819">
        <ele>96</ele>
        <time>2010-07-29T09:45:06Z</time>
      </trkpt>
      <trkpt lat="48.13618" lon="-1.35812">
        <ele>96</ele>
        <time>2010-07-29T09:45:08Z</time>
      </trkpt>
      <trkpt lat="48.13614" lon="-1.35812">
        <ele>96</ele>
        <time>2010-07-29T09:45:09Z</time>
      </trkpt>
      <trkpt lat="48.13589" lon="-1.35812">
        <ele>97</ele>
        <time>2010-07-29T09:45:16Z</time>
      </trkpt>
      <trkpt lat="48.13582" lon="-1.35811">
        <ele>98</ele>
        <time>2010-07-29T09:45:18Z</time>
      </trkpt>
      <trkpt lat="48.13578" lon="-1.35811">
        <ele>98</ele>
        <time>2010-07-29T09:45:20Z</time>
      </trkpt>
      <trkpt lat="48.13572" lon="-1.35811">
        <ele>98</ele>
        <time>2010-07-29T09:45:22Z</time>
      </trkpt>
      <trkpt lat="48.13566" lon="-1.35811">
        <ele>98</ele>
        <time>2010-07-29T09:45:24Z</time>
      </trkpt>
      <trkpt lat="48.13548" lon="-1.3581">
        <ele>99</ele>
        <time>2010-07-29T09:45:30Z</time>
      </trkpt>
      <trkpt lat="48.13531" lon="-1.3581">
        <ele>100</ele>
        <time>2010-07-29T09:45:37Z</time>
      </trkpt>
      <trkpt lat="48.13528" lon="-1.35809">
        <ele>100</ele>
        <time>2010-07-29T09:45:38Z</time>
      </trkpt>
      <trkpt lat="48.13525" lon="-1.35808">
        <ele>100</ele>
        <time>2010-07-29T09:45:40Z</time>
      </trkpt>
      <trkpt lat="48.1352" lon="-1.35808">
        <ele>101</ele>
        <time>2010-07-29T09:45:42Z</time>
      </trkpt>
      <trkpt lat="48.13516" lon="-1.35806">
        <ele>101</ele>
        <time>2010-07-29T09:45:44Z</time>
      </trkpt>
      <trkpt lat="48.1351" lon="-1.35805">
        <ele>101</ele>
        <time>2010-07-29T09:45:46Z</time>
      </trkpt>
      <trkpt lat="48.13492" lon="-1.35805">
        <ele>102</ele>
        <time>2010-07-29T09:45:53Z</time>
      </trkpt>
      <trkpt lat="48.13482" lon="-1.35807">
        <ele>102</ele>
        <time>2010-07-29T09:45:58Z</time>
      </trkpt>
      <trkpt lat="48.13478" lon="-1.35807">
        <ele>103</ele>
        <time>2010-07-29T09:46:00Z</time>
      </trkpt>
      <trkpt lat="48.13474" lon="-1.35807">
        <ele>103</ele>
        <time>2010-07-29T09:46:02Z</time>
      </trkpt>
      <trkpt lat="48.1347" lon="-1.35807">
        <ele>103</ele>
        <time>2010-07-29T09:46:04Z</time>
      </trkpt>
      <trkpt lat="48.13467" lon="-1.35807">
        <ele>103</ele>
        <time>2010-07-29T09:46:05Z</time>
      </trkpt>
      <trkpt lat="48.13465" lon="-1.35807">
        <ele>103</ele>
        <time>2010-07-29T09:46:06Z</time>
      </trkpt>
      <trkpt lat="48.13448" lon="-1.35806">
        <ele>104</ele>
        <time>2010-07-29T09:46:14Z</time>
      </trkpt>
      <trkpt lat="48.13435" lon="-1.35806">
        <ele>104</ele>
        <time>2010-07-29T09:46:20Z</time>
      </trkpt>
      <trkpt lat="48.13433" lon="-1.35805">
        <ele>104</ele>
        <time>2010-07-29T09:46:21Z</time>
      </trkpt>
      <trkpt lat="48.13428" lon="-1.35805">
        <ele>104</ele>
        <time>2010-07-29T09:46:23Z</time>
      </trkpt>
      <trkpt lat="48.13424" lon="-1.35804">
        <ele>104</ele>
        <time>2010-07-29T09:46:25Z</time>
      </trkpt>
      <trkpt lat="48.1342" lon="-1.35804">
        <ele>105</ele>
        <time>2010-07-29T09:46:27Z</time>
      </trkpt>
      <trkpt lat="48.13415" lon="-1.35803">
        <ele>105</ele>
        <time>2010-07-29T09:46:29Z</time>
      </trkpt>
      <trkpt lat="48.13394" lon="-1.35803">
        <ele>106</ele>
        <time>2010-07-29T09:46:38Z</time>
      </trkpt>
      <trkpt lat="48.13377" lon="-1.35802">
        <ele>106</ele>
        <time>2010-07-29T09:46:45Z</time>
      </trkpt>
      <trkpt lat="48.13365" lon="-1.35801">
        <ele>107</ele>
        <time>2010-07-29T09:46:50Z</time>
      </trkpt>
      <trkpt lat="48.13353" lon="-1.35799">
        <ele>107</ele>
        <time>2010-07-29T09:46:56Z</time>
      </trkpt>
      <trkpt lat="48.13351" lon="-1.35799">
        <ele>107</ele>
        <time>2010-07-29T09:46:57Z</time>
      </trkpt>
      <trkpt lat="48.13347" lon="-1.35798">
        <ele>107</ele>
        <time>2010-07-29T09:46:59Z</time>
      </trkpt>
      <trkpt lat="48.13342" lon="-1.35798">
        <ele>108</ele>
        <time>2010-07-29T09:47:01Z</time>
      </trkpt>
      <trkpt lat="48.13338" lon="-1.35798">
        <ele>108</ele>
        <time>2010-07-29T09:47:03Z</time>
      </trkpt>
      <trkpt lat="48.13333" lon="-1.35797">
        <ele>108</ele>
        <time>2010-07-29T09:47:05Z</time>
      </trkpt>
      <trkpt lat="48.13319" lon="-1.35795">
        <ele>108</ele>
        <time>2010-07-29T09:47:12Z</time>
      </trkpt>
      <trkpt lat="48.13306" lon="-1.35795">
        <ele>108</ele>
        <time>2010-07-29T09:47:18Z</time>
      </trkpt>
      <trkpt lat="48.13287" lon="-1.35791">
        <ele>109</ele>
        <time>2010-07-29T09:47:26Z</time>
      </trkpt>
      <trkpt lat="48.13284" lon="-1.35791">
        <ele>109</ele>
        <time>2010-07-29T09:47:28Z</time>
      </trkpt>
      <trkpt lat="48.13282" lon="-1.35791">
        <ele>109</ele>
        <time>2010-07-29T09:47:29Z</time>
      </trkpt>
      <trkpt lat="48.1328" lon="-1.35791">
        <ele>109</ele>
        <time>2010-07-29T09:47:30Z</time>
      </trkpt>
      <trkpt lat="48.13275" lon="-1.35791">
        <ele>109</ele>
        <time>2010-07-29T09:47:32Z</time>
      </trkpt>
      <trkpt lat="48.1327" lon="-1.35791">
        <ele>109</ele>
        <time>2010-07-29T09:47:34Z</time>
      </trkpt>
      <trkpt lat="48.13256" lon="-1.35792">
        <ele>109</ele>
        <time>2010-07-29T09:47:40Z</time>
      </trkpt>
      <trkpt lat="48.13235" lon="-1.35793">
        <ele>110</ele>
        <time>2010-07-29T09:47:48Z</time>
      </trkpt>
      <trkpt lat="48.13222" lon="-1.35794">
        <ele>110</ele>
        <time>2010-07-29T09:47:53Z</time>
      </trkpt>
      <trkpt lat="48.13208" lon="-1.35794">
        <ele>110</ele>
        <time>2010-07-29T09:47:59Z</time>
      </trkpt>
      <trkpt lat="48.13196" lon="-1.35795">
        <ele>110</ele>
        <time>2010-07-29T09:48:03Z</time>
      </trkpt>
      <trkpt lat="48.13191" lon="-1.35795">
        <ele>110</ele>
        <time>2010-07-29T09:48:05Z</time>
      </trkpt>
      <trkpt lat="48.13185" lon="-1.35795">
        <ele>110</ele>
        <time>2010-07-29T09:48:07Z</time>
      </trkpt>
      <trkpt lat="48.13181" lon="-1.35795">
        <ele>110</ele>
        <time>2010-07-29T09:48:09Z</time>
      </trkpt>
      <trkpt lat="48.13176" lon="-1.35795">
        <ele>110</ele>
        <time>2010-07-29T09:48:11Z</time>
      </trkpt>
      <trkpt lat="48.13166" lon="-1.35794">
        <ele>111</ele>
        <time>2010-07-29T09:48:15Z</time>
      </trkpt>
      <trkpt lat="48.13151" lon="-1.35794">
        <ele>111</ele>
        <time>2010-07-29T09:48:21Z</time>
      </trkpt>
      <trkpt lat="48.13135" lon="-1.35801">
        <ele>111</ele>
        <time>2010-07-29T09:48:27Z</time>
      </trkpt>
      <trkpt lat="48.13111" lon="-1.3581">
        <ele>111</ele>
        <time>2010-07-29T09:48:34Z</time>
      </trkpt>
      <trkpt lat="48.13082" lon="-1.35811">
        <ele>111</ele>
        <time>2010-07-29T09:48:42Z</time>
      </trkpt>
      <trkpt lat="48.13075" lon="-1.35805">
        <ele>111</ele>
        <time>2010-07-29T09:48:45Z</time>
      </trkpt>
      <trkpt lat="48.13077" lon="-1.35786">
        <ele>111</ele>
        <time>2010-07-29T09:48:51Z</time>
      </trkpt>
      <trkpt lat="48.13078" lon="-1.35782">
        <ele>111</ele>
        <time>2010-07-29T09:48:52Z</time>
      </trkpt>
      <trkpt lat="48.13086" lon="-1.35747">
        <ele>111</ele>
        <time>2010-07-29T09:49:01Z</time>
      </trkpt>
      <trkpt lat="48.13092" lon="-1.35723">
        <ele>111</ele>
        <time>2010-07-29T09:49:07Z</time>
      </trkpt>
      <trkpt lat="48.131" lon="-1.35683">
        <ele>111</ele>
        <time>2010-07-29T09:49:16Z</time>
      </trkpt>
      <trkpt lat="48.13101" lon="-1.35676">
        <ele>111</ele>
        <time>2010-07-29T09:49:18Z</time>
      </trkpt>
      <trkpt lat="48.131" lon="-1.35669">
        <ele>111</ele>
        <time>2010-07-29T09:49:20Z</time>
      </trkpt>
      <trkpt lat="48.13098" lon="-1.35661">
        <ele>111</ele>
        <time>2010-07-29T09:49:22Z</time>
      </trkpt>
      <trkpt lat="48.13093" lon="-1.35651">
        <ele>111</ele>
        <time>2010-07-29T09:49:24Z</time>
      </trkpt>
      <trkpt lat="48.13089" lon="-1.35627">
        <ele>111</ele>
        <time>2010-07-29T09:49:30Z</time>
      </trkpt>
      <trkpt lat="48.13084" lon="-1.35601">
        <ele>111</ele>
        <time>2010-07-29T09:49:35Z</time>
      </trkpt>
      <trkpt lat="48.13079" lon="-1.35572">
        <ele>111</ele>
        <time>2010-07-29T09:49:40Z</time>
      </trkpt>
      <trkpt lat="48.13076" lon="-1.35536">
        <ele>111</ele>
        <time>2010-07-29T09:49:46Z</time>
      </trkpt>
      <trkpt lat="48.13075" lon="-1.35513">
        <ele>111</ele>
        <time>2010-07-29T09:49:51Z</time>
      </trkpt>
      <trkpt lat="48.13068" lon="-1.355">
        <ele>111</ele>
        <time>2010-07-29T09:49:55Z</time>
      </trkpt>
      <trkpt lat="48.13066" lon="-1.35498">
        <ele>111</ele>
        <time>2010-07-29T09:49:56Z</time>
      </trkpt>
      <trkpt lat="48.13057" lon="-1.35491">
        <ele>111</ele>
        <time>2010-07-29T09:49:59Z</time>
      </trkpt>
      <trkpt lat="48.13044" lon="-1.35483">
        <ele>111</ele>
        <time>2010-07-29T09:50:02Z</time>
      </trkpt>
      <trkpt lat="48.13035" lon="-1.35478">
        <ele>110</ele>
        <time>2010-07-29T09:50:04Z</time>
      </trkpt>
      <trkpt lat="48.13026" lon="-1.35473">
        <ele>110</ele>
        <time>2010-07-29T09:50:06Z</time>
      </trkpt>
      <trkpt lat="48.13021" lon="-1.3547">
        <ele>110</ele>
        <time>2010-07-29T09:50:07Z</time>
      </trkpt>
      <trkpt lat="48.13016" lon="-1.35467">
        <ele>110</ele>
        <time>2010-07-29T09:50:08Z</time>
      </trkpt>
      <trkpt lat="48.13004" lon="-1.35461">
        <ele>110</ele>
        <time>2010-07-29T09:50:10Z</time>
      </trkpt>
      <trkpt lat="48.12996" lon="-1.35456">
        <ele>109</ele>
        <time>2010-07-29T09:50:11Z</time>
      </trkpt>
      <trkpt lat="48.12987" lon="-1.35453">
        <ele>109</ele>
        <time>2010-07-29T09:50:12Z</time>
      </trkpt>
      <trkpt lat="48.12974" lon="-1.3545">
        <ele>109</ele>
        <time>2010-07-29T09:50:14Z</time>
      </trkpt>
      <trkpt lat="48.12969" lon="-1.35449">
        <ele>109</ele>
        <time>2010-07-29T09:50:15Z</time>
      </trkpt>
      <trkpt lat="48.12953" lon="-1.35447">
        <ele>108</ele>
        <time>2010-07-29T09:50:18Z</time>
      </trkpt>
      <trkpt lat="48.12942" lon="-1.35442">
        <ele>107</ele>
        <time>2010-07-29T09:50:20Z</time>
      </trkpt>
      <trkpt lat="48.12936" lon="-1.3544">
        <ele>107</ele>
        <time>2010-07-29T09:50:21Z</time>
      </trkpt>
      <trkpt lat="48.12922" lon="-1.35437">
        <ele>107</ele>
        <time>2010-07-29T09:50:24Z</time>
      </trkpt>
      <trkpt lat="48.12914" lon="-1.35431">
        <ele>106</ele>
        <time>2010-07-29T09:50:26Z</time>
      </trkpt>
      <trkpt lat="48.12909" lon="-1.35426">
        <ele>106</ele>
        <time>2010-07-29T09:50:27Z</time>
      </trkpt>
      <trkpt lat="48.129" lon="-1.35416">
        <ele>106</ele>
        <time>2010-07-29T09:50:29Z</time>
      </trkpt>
      <trkpt lat="48.12881" lon="-1.35392">
        <ele>105</ele>
        <time>2010-07-29T09:50:33Z</time>
      </trkpt>
      <trkpt lat="48.12876" lon="-1.35387">
        <ele>104</ele>
        <time>2010-07-29T09:50:34Z</time>
      </trkpt>
      <trkpt lat="48.12858" lon="-1.35382">
        <ele>104</ele>
        <time>2010-07-29T09:50:37Z</time>
      </trkpt>
      <trkpt lat="48.12852" lon="-1.35381">
        <ele>103</ele>
        <time>2010-07-29T09:50:38Z</time>
      </trkpt>
      <trkpt lat="48.12834" lon="-1.35385">
        <ele>103</ele>
        <time>2010-07-29T09:50:41Z</time>
      </trkpt>
      <trkpt lat="48.12828" lon="-1.35387">
        <ele>102</ele>
        <time>2010-07-29T09:50:42Z</time>
      </trkpt>
      <trkpt lat="48.12816" lon="-1.3539">
        <ele>102</ele>
        <time>2010-07-29T09:50:44Z</time>
      </trkpt>
      <trkpt lat="48.12804" lon="-1.35394">
        <ele>101</ele>
        <time>2010-07-29T09:50:46Z</time>
      </trkpt>
      <trkpt lat="48.128" lon="-1.35396">
        <ele>101</ele>
        <time>2010-07-29T09:50:47Z</time>
      </trkpt>
      <trkpt lat="48.12795" lon="-1.35395">
        <ele>101</ele>
        <time>2010-07-29T09:50:48Z</time>
      </trkpt>
      <trkpt lat="48.12792" lon="-1.35391">
        <ele>101</ele>
        <time>2010-07-29T09:50:50Z</time>
      </trkpt>
      <trkpt lat="48.12792" lon="-1.35386">
        <ele>101</ele>
        <time>2010-07-29T09:50:51Z</time>
      </trkpt>
      <trkpt lat="48.12792" lon="-1.35371">
        <ele>101</ele>
        <time>2010-07-29T09:50:54Z</time>
      </trkpt>
      <trkpt lat="48.12791" lon="-1.35361">
        <ele>101</ele>
        <time>2010-07-29T09:50:56Z</time>
      </trkpt>
      <trkpt lat="48.12789" lon="-1.35353">
        <ele>101</ele>
        <time>2010-07-29T09:50:58Z</time>
      </trkpt>
      <trkpt lat="48.12788" lon="-1.35346">
        <ele>101</ele>
        <time>2010-07-29T09:51:00Z</time>
      </trkpt>
      <trkpt lat="48.12789" lon="-1.35343">
        <ele>101</ele>
        <time>2010-07-29T09:51:01Z</time>
      </trkpt>
      <trkpt lat="48.1279" lon="-1.35329">
        <ele>101</ele>
        <time>2010-07-29T09:51:04Z</time>
      </trkpt>
      <trkpt lat="48.1279" lon="-1.35324">
        <ele>101</ele>
        <time>2010-07-29T09:51:05Z</time>
      </trkpt>
      <trkpt lat="48.12789" lon="-1.35286">
        <ele>101</ele>
        <time>2010-07-29T09:51:12Z</time>
      </trkpt>
      <trkpt lat="48.12793" lon="-1.35259">
        <ele>102</ele>
        <time>2010-07-29T09:51:17Z</time>
      </trkpt>
      <trkpt lat="48.12796" lon="-1.35248">
        <ele>102</ele>
        <time>2010-07-29T09:51:19Z</time>
      </trkpt>
      <trkpt lat="48.12798" lon="-1.35212">
        <ele>102</ele>
        <time>2010-07-29T09:51:25Z</time>
      </trkpt>
      <trkpt lat="48.12797" lon="-1.35185">
        <ele>102</ele>
        <time>2010-07-29T09:51:30Z</time>
      </trkpt>
      <trkpt lat="48.12798" lon="-1.35179">
        <ele>102</ele>
        <time>2010-07-29T09:51:31Z</time>
      </trkpt>
      <trkpt lat="48.12802" lon="-1.3516">
        <ele>102</ele>
        <time>2010-07-29T09:51:34Z</time>
      </trkpt>
      <trkpt lat="48.12801" lon="-1.35111">
        <ele>101</ele>
        <time>2010-07-29T09:51:41Z</time>
      </trkpt>
      <trkpt lat="48.128" lon="-1.35104">
        <ele>101</ele>
        <time>2010-07-29T09:51:42Z</time>
      </trkpt>
      <trkpt lat="48.12797" lon="-1.35084">
        <ele>101</ele>
        <time>2010-07-29T09:51:45Z</time>
      </trkpt>
      <trkpt lat="48.12792" lon="-1.35055">
        <ele>100</ele>
        <time>2010-07-29T09:51:49Z</time>
      </trkpt>
      <trkpt lat="48.12787" lon="-1.35017">
        <ele>100</ele>
        <time>2010-07-29T09:51:54Z</time>
      </trkpt>
      <trkpt lat="48.12785" lon="-1.35011">
        <ele>100</ele>
        <time>2010-07-29T09:51:55Z</time>
      </trkpt>
      <trkpt lat="48.12784" lon="-1.35006">
        <ele>100</ele>
        <time>2010-07-29T09:51:56Z</time>
      </trkpt>
      <trkpt lat="48.12781" lon="-1.34981">
        <ele>100</ele>
        <time>2010-07-29T09:52:01Z</time>
      </trkpt>
      <trkpt lat="48.12779" lon="-1.34953">
        <ele>100</ele>
        <time>2010-07-29T09:52:06Z</time>
      </trkpt>
      <trkpt lat="48.12777" lon="-1.34927">
        <ele>99</ele>
        <time>2010-07-29T09:52:11Z</time>
      </trkpt>
      <trkpt lat="48.12776" lon="-1.34921">
        <ele>99</ele>
        <time>2010-07-29T09:52:12Z</time>
      </trkpt>
      <trkpt lat="48.12766" lon="-1.34887">
        <ele>99</ele>
        <time>2010-07-29T09:52:18Z</time>
      </trkpt>
      <trkpt lat="48.12752" lon="-1.34862">
        <ele>99</ele>
        <time>2010-07-29T09:52:23Z</time>
      </trkpt>
      <trkpt lat="48.12744" lon="-1.34824">
        <ele>100</ele>
        <time>2010-07-29T09:52:29Z</time>
      </trkpt>
      <trkpt lat="48.12741" lon="-1.34783">
        <ele>100</ele>
        <time>2010-07-29T09:52:35Z</time>
      </trkpt>
      <trkpt lat="48.12733" lon="-1.34746">
        <ele>101</ele>
        <time>2010-07-29T09:52:41Z</time>
      </trkpt>
      <trkpt lat="48.12727" lon="-1.34722">
        <ele>101</ele>
        <time>2010-07-29T09:52:44Z</time>
      </trkpt>
      <trkpt lat="48.12725" lon="-1.34707">
        <ele>102</ele>
        <time>2010-07-29T09:52:46Z</time>
      </trkpt>
      <trkpt lat="48.12719" lon="-1.34674">
        <ele>102</ele>
        <time>2010-07-29T09:52:51Z</time>
      </trkpt>
      <trkpt lat="48.12718" lon="-1.34667">
        <ele>103</ele>
        <time>2010-07-29T09:52:52Z</time>
      </trkpt>
      <trkpt lat="48.12718" lon="-1.3466">
        <ele>103</ele>
        <time>2010-07-29T09:52:53Z</time>
      </trkpt>
      <trkpt lat="48.12712" lon="-1.34645">
        <ele>103</ele>
        <time>2010-07-29T09:52:56Z</time>
      </trkpt>
      <trkpt lat="48.12704" lon="-1.34648">
        <ele>102</ele>
        <time>2010-07-29T09:52:59Z</time>
      </trkpt>
      <trkpt lat="48.12699" lon="-1.34654">
        <ele>102</ele>
        <time>2010-07-29T09:53:01Z</time>
      </trkpt>
      <trkpt lat="48.12687" lon="-1.34664">
        <ele>102</ele>
        <time>2010-07-29T09:53:05Z</time>
      </trkpt>
      <trkpt lat="48.12674" lon="-1.34668">
        <ele>101</ele>
        <time>2010-07-29T09:53:08Z</time>
      </trkpt>
      <trkpt lat="48.12642" lon="-1.34677">
        <ele>100</ele>
        <time>2010-07-29T09:53:12Z</time>
      </trkpt>
      <trkpt lat="48.12634" lon="-1.34681">
        <ele>100</ele>
        <time>2010-07-29T09:53:13Z</time>
      </trkpt>
      <trkpt lat="48.12597" lon="-1.34704">
        <ele>98</ele>
        <time>2010-07-29T09:53:18Z</time>
      </trkpt>
      <trkpt lat="48.12591" lon="-1.34707">
        <ele>98</ele>
        <time>2010-07-29T09:53:19Z</time>
      </trkpt>
      <trkpt lat="48.12571" lon="-1.3471">
        <ele>97</ele>
        <time>2010-07-29T09:53:22Z</time>
      </trkpt>
      <trkpt lat="48.12559" lon="-1.3471">
        <ele>97</ele>
        <time>2010-07-29T09:53:24Z</time>
      </trkpt>
      <trkpt lat="48.12554" lon="-1.34712">
        <ele>97</ele>
        <time>2010-07-29T09:53:25Z</time>
      </trkpt>
      <trkpt lat="48.12547" lon="-1.34714">
        <ele>97</ele>
        <time>2010-07-29T09:53:26Z</time>
      </trkpt>
      <trkpt lat="48.12515" lon="-1.34718">
        <ele>96</ele>
        <time>2010-07-29T09:53:30Z</time>
      </trkpt>
      <trkpt lat="48.12504" lon="-1.3472">
        <ele>95</ele>
        <time>2010-07-29T09:53:32Z</time>
      </trkpt>
      <trkpt lat="48.12489" lon="-1.34721">
        <ele>95</ele>
        <time>2010-07-29T09:53:34Z</time>
      </trkpt>
      <trkpt lat="48.12475" lon="-1.34721">
        <ele>94</ele>
        <time>2010-07-29T09:53:36Z</time>
      </trkpt>
      <trkpt lat="48.12466" lon="-1.34722">
        <ele>94</ele>
        <time>2010-07-29T09:53:37Z</time>
      </trkpt>
      <trkpt lat="48.12445" lon="-1.34731">
        <ele>93</ele>
        <time>2010-07-29T09:53:40Z</time>
      </trkpt>
      <trkpt lat="48.12424" lon="-1.34741">
        <ele>92</ele>
        <time>2010-07-29T09:53:43Z</time>
      </trkpt>
      <trkpt lat="48.12417" lon="-1.34746">
        <ele>91</ele>
        <time>2010-07-29T09:53:44Z</time>
      </trkpt>
      <trkpt lat="48.1241" lon="-1.34749">
        <ele>91</ele>
        <time>2010-07-29T09:53:45Z</time>
      </trkpt>
      <trkpt lat="48.12398" lon="-1.34757">
        <ele>90</ele>
        <time>2010-07-29T09:53:47Z</time>
      </trkpt>
      <trkpt lat="48.12384" lon="-1.34764">
        <ele>89</ele>
        <time>2010-07-29T09:53:49Z</time>
      </trkpt>
      <trkpt lat="48.12375" lon="-1.34767">
        <ele>89</ele>
        <time>2010-07-29T09:53:50Z</time>
      </trkpt>
      <trkpt lat="48.12367" lon="-1.34769">
        <ele>88</ele>
        <time>2010-07-29T09:53:51Z</time>
      </trkpt>
      <trkpt lat="48.12359" lon="-1.34772">
        <ele>88</ele>
        <time>2010-07-29T09:53:52Z</time>
      </trkpt>
      <trkpt lat="48.12353" lon="-1.34778">
        <ele>87</ele>
        <time>2010-07-29T09:53:53Z</time>
      </trkpt>
      <trkpt lat="48.12349" lon="-1.34784">
        <ele>87</ele>
        <time>2010-07-29T09:53:54Z</time>
      </trkpt>
      <trkpt lat="48.12341" lon="-1.34798">
        <ele>86</ele>
        <time>2010-07-29T09:53:56Z</time>
      </trkpt>
      <trkpt lat="48.12339" lon="-1.34803">
        <ele>86</ele>
        <time>2010-07-29T09:53:57Z</time>
      </trkpt>
      <trkpt lat="48.12339" lon="-1.34809">
        <ele>86</ele>
        <time>2010-07-29T09:53:58Z</time>
      </trkpt>
      <trkpt lat="48.12339" lon="-1.34813">
        <ele>86</ele>
        <time>2010-07-29T09:54:00Z</time>
      </trkpt>
      <trkpt lat="48.12341" lon="-1.34818">
        <ele>86</ele>
        <time>2010-07-29T09:54:02Z</time>
      </trkpt>
      <trkpt lat="48.1234" lon="-1.34822">
        <ele>86</ele>
        <time>2010-07-29T09:54:03Z</time>
      </trkpt>
      <trkpt lat="48.12338" lon="-1.34826">
        <ele>86</ele>
        <time>2010-07-29T09:54:06Z</time>
      </trkpt>
      <trkpt lat="48.12335" lon="-1.34826">
        <ele>86</ele>
        <time>2010-07-29T09:54:13Z</time>
      </trkpt>
      <trkpt lat="48.12335" lon="-1.34826">
        <ele>86</ele>
        <time>2010-07-29T09:54:15Z</time>
      </trkpt>
      <trkpt lat="48.12334" lon="-1.34827">
        <ele>86</ele>
        <time>2010-07-29T09:54:16Z</time>
      </trkpt>
      <trkpt lat="48.12322" lon="-1.34833">
        <ele>86</ele>
        <time>2010-07-29T09:54:20Z</time>
      </trkpt>
      <trkpt lat="48.12304" lon="-1.34847">
        <ele>86</ele>
        <time>2010-07-29T09:54:26Z</time>
      </trkpt>
      <trkpt lat="48.12282" lon="-1.3486">
        <ele>87</ele>
        <time>2010-07-29T09:54:32Z</time>
      </trkpt>
      <trkpt lat="48.12267" lon="-1.34869">
        <ele>87</ele>
        <time>2010-07-29T09:54:36Z</time>
      </trkpt>
      <trkpt lat="48.12266" lon="-1.3487">
        <ele>87</ele>
        <time>2010-07-29T09:54:37Z</time>
      </trkpt>
      <trkpt lat="48.12261" lon="-1.3486">
        <ele>87</ele>
        <time>2010-07-29T09:54:42Z</time>
      </trkpt>
      <trkpt lat="48.12255" lon="-1.34858">
        <ele>87</ele>
        <time>2010-07-29T09:54:44Z</time>
      </trkpt>
      <trkpt lat="48.12235" lon="-1.34865">
        <ele>88</ele>
        <time>2010-07-29T09:54:49Z</time>
      </trkpt>
      <trkpt lat="48.12227" lon="-1.34869">
        <ele>88</ele>
        <time>2010-07-29T09:54:51Z</time>
      </trkpt>
      <trkpt lat="48.12202" lon="-1.34886">
        <ele>89</ele>
        <time>2010-07-29T09:54:57Z</time>
      </trkpt>
      <trkpt lat="48.12187" lon="-1.34889">
        <ele>89</ele>
        <time>2010-07-29T09:55:01Z</time>
      </trkpt>
      <trkpt lat="48.12177" lon="-1.34893">
        <ele>89</ele>
        <time>2010-07-29T09:55:04Z</time>
      </trkpt>
      <trkpt lat="48.12165" lon="-1.34901">
        <ele>90</ele>
        <time>2010-07-29T09:55:08Z</time>
      </trkpt>
      <trkpt lat="48.12157" lon="-1.34907">
        <ele>90</ele>
        <time>2010-07-29T09:55:10Z</time>
      </trkpt>
      <trkpt lat="48.12151" lon="-1.3491">
        <ele>90</ele>
        <time>2010-07-29T09:55:12Z</time>
      </trkpt>
      <trkpt lat="48.12145" lon="-1.34911">
        <ele>90</ele>
        <time>2010-07-29T09:55:14Z</time>
      </trkpt>
      <trkpt lat="48.12144" lon="-1.34911">
        <ele>90</ele>
        <time>2010-07-29T09:55:15Z</time>
      </trkpt>
      <trkpt lat="48.12139" lon="-1.34911">
        <ele>90</ele>
        <time>2010-07-29T09:55:42Z</time>
      </trkpt>
      <trkpt lat="48.12138" lon="-1.34911">
        <ele>90</ele>
        <time>2010-07-29T09:55:43Z</time>
      </trkpt>
      <trkpt lat="48.12136" lon="-1.34913">
        <ele>90</ele>
        <time>2010-07-29T09:55:44Z</time>
      </trkpt>
      <trkpt lat="48.12119" lon="-1.34924">
        <ele>90</ele>
        <time>2010-07-29T09:55:48Z</time>
      </trkpt>
      <trkpt lat="48.12112" lon="-1.34927">
        <ele>90</ele>
        <time>2010-07-29T09:55:49Z</time>
      </trkpt>
      <trkpt lat="48.12079" lon="-1.34944">
        <ele>91</ele>
        <time>2010-07-29T09:55:55Z</time>
      </trkpt>
      <trkpt lat="48.1205" lon="-1.34952">
        <ele>91</ele>
        <time>2010-07-29T09:56:00Z</time>
      </trkpt>
      <trkpt lat="48.12039" lon="-1.34956">
        <ele>92</ele>
        <time>2010-07-29T09:56:02Z</time>
      </trkpt>
      <trkpt lat="48.12034" lon="-1.34959">
        <ele>92</ele>
        <time>2010-07-29T09:56:03Z</time>
      </trkpt>
      <trkpt lat="48.12028" lon="-1.34962">
        <ele>92</ele>
        <time>2010-07-29T09:56:04Z</time>
      </trkpt>
      <trkpt lat="48.12017" lon="-1.34968">
        <ele>92</ele>
        <time>2010-07-29T09:56:06Z</time>
      </trkpt>
      <trkpt lat="48.12007" lon="-1.34975">
        <ele>93</ele>
        <time>2010-07-29T09:56:08Z</time>
      </trkpt>
      <trkpt lat="48.11998" lon="-1.34981">
        <ele>93</ele>
        <time>2010-07-29T09:56:10Z</time>
      </trkpt>
      <trkpt lat="48.11974" lon="-1.35002">
        <ele>93</ele>
        <time>2010-07-29T09:56:16Z</time>
      </trkpt>
      <trkpt lat="48.11949" lon="-1.35019">
        <ele>94</ele>
        <time>2010-07-29T09:56:23Z</time>
      </trkpt>
      <trkpt lat="48.11938" lon="-1.35028">
        <ele>94</ele>
        <time>2010-07-29T09:56:26Z</time>
      </trkpt>
      <trkpt lat="48.11917" lon="-1.35027">
        <ele>94</ele>
        <time>2010-07-29T09:56:31Z</time>
      </trkpt>
      <trkpt lat="48.119" lon="-1.35022">
        <ele>94</ele>
        <time>2010-07-29T09:56:35Z</time>
      </trkpt>
      <trkpt lat="48.11895" lon="-1.35023">
        <ele>94</ele>
        <time>2010-07-29T09:56:36Z</time>
      </trkpt>
      <trkpt lat="48.11874" lon="-1.35032">
        <ele>94</ele>
        <time>2010-07-29T09:56:41Z</time>
      </trkpt>
      <trkpt lat="48.11847" lon="-1.35051">
        <ele>94</ele>
        <time>2010-07-29T09:56:47Z</time>
      </trkpt>
      <trkpt lat="48.11839" lon="-1.35059">
        <ele>94</ele>
        <time>2010-07-29T09:56:49Z</time>
      </trkpt>
      <trkpt lat="48.1183" lon="-1.35068">
        <ele>94</ele>
        <time>2010-07-29T09:56:51Z</time>
      </trkpt>
      <trkpt lat="48.11821" lon="-1.35077">
        <ele>95</ele>
        <time>2010-07-29T09:56:53Z</time>
      </trkpt>
      <trkpt lat="48.11817" lon="-1.35081">
        <ele>95</ele>
        <time>2010-07-29T09:56:54Z</time>
      </trkpt>
      <trkpt lat="48.11808" lon="-1.35096">
        <ele>95</ele>
        <time>2010-07-29T09:56:57Z</time>
      </trkpt>
      <trkpt lat="48.11802" lon="-1.35106">
        <ele>95</ele>
        <time>2010-07-29T09:56:59Z</time>
      </trkpt>
      <trkpt lat="48.11783" lon="-1.35126">
        <ele>95</ele>
        <time>2010-07-29T09:57:04Z</time>
      </trkpt>
      <trkpt lat="48.11781" lon="-1.35131">
        <ele>95</ele>
        <time>2010-07-29T09:57:05Z</time>
      </trkpt>
      <trkpt lat="48.1178" lon="-1.35136">
        <ele>95</ele>
        <time>2010-07-29T09:57:06Z</time>
      </trkpt>
      <trkpt lat="48.11779" lon="-1.35148">
        <ele>95</ele>
        <time>2010-07-29T09:57:08Z</time>
      </trkpt>
      <trkpt lat="48.1178" lon="-1.35155">
        <ele>95</ele>
        <time>2010-07-29T09:57:09Z</time>
      </trkpt>
      <trkpt lat="48.11782" lon="-1.35162">
        <ele>95</ele>
        <time>2010-07-29T09:57:10Z</time>
      </trkpt>
      <trkpt lat="48.11783" lon="-1.35175">
        <ele>95</ele>
        <time>2010-07-29T09:57:12Z</time>
      </trkpt>
      <trkpt lat="48.11788" lon="-1.35215">
        <ele>96</ele>
        <time>2010-07-29T09:57:18Z</time>
      </trkpt>
      <trkpt lat="48.11782" lon="-1.35239">
        <ele>96</ele>
        <time>2010-07-29T09:57:22Z</time>
      </trkpt>
      <trkpt lat="48.11779" lon="-1.35241">
        <ele>96</ele>
        <time>2010-07-29T09:57:23Z</time>
      </trkpt>
      <trkpt lat="48.11775" lon="-1.35242">
        <ele>96</ele>
        <time>2010-07-29T09:57:26Z</time>
      </trkpt>
      <trkpt lat="48.11774" lon="-1.35241">
        <ele>96</ele>
        <time>2010-07-29T09:57:34Z</time>
      </trkpt>
      <trkpt lat="48.11772" lon="-1.35242">
        <ele>96</ele>
        <time>2010-07-29T09:57:35Z</time>
      </trkpt>
      <trkpt lat="48.11756" lon="-1.35253">
        <ele>96</ele>
        <time>2010-07-29T09:57:39Z</time>
      </trkpt>
      <trkpt lat="48.11747" lon="-1.35259">
        <ele>96</ele>
        <time>2010-07-29T09:57:41Z</time>
      </trkpt>
      <trkpt lat="48.11709" lon="-1.35291">
        <ele>95</ele>
        <time>2010-07-29T09:57:48Z</time>
      </trkpt>
      <trkpt lat="48.11704" lon="-1.35295">
        <ele>95</ele>
        <time>2010-07-29T09:57:49Z</time>
      </trkpt>
      <trkpt lat="48.11677" lon="-1.3531">
        <ele>95</ele>
        <time>2010-07-29T09:57:54Z</time>
      </trkpt>
      <trkpt lat="48.11635" lon="-1.35336">
        <ele>95</ele>
        <time>2010-07-29T09:58:02Z</time>
      </trkpt>
      <trkpt lat="48.1163" lon="-1.35341">
        <ele>95</ele>
        <time>2010-07-29T09:58:03Z</time>
      </trkpt>
      <trkpt lat="48.11625" lon="-1.35347">
        <ele>95</ele>
        <time>2010-07-29T09:58:04Z</time>
      </trkpt>
      <trkpt lat="48.11616" lon="-1.3536">
        <ele>94</ele>
        <time>2010-07-29T09:58:06Z</time>
      </trkpt>
      <trkpt lat="48.11612" lon="-1.35367">
        <ele>94</ele>
        <time>2010-07-29T09:58:07Z</time>
      </trkpt>
      <trkpt lat="48.11608" lon="-1.35376">
        <ele>94</ele>
        <time>2010-07-29T09:58:08Z</time>
      </trkpt>
      <trkpt lat="48.116" lon="-1.35393">
        <ele>94</ele>
        <time>2010-07-29T09:58:10Z</time>
      </trkpt>
      <trkpt lat="48.11591" lon="-1.35409">
        <ele>94</ele>
        <time>2010-07-29T09:58:12Z</time>
      </trkpt>
      <trkpt lat="48.1157" lon="-1.35425">
        <ele>93</ele>
        <time>2010-07-29T09:58:15Z</time>
      </trkpt>
      <trkpt lat="48.1155" lon="-1.35433">
        <ele>92</ele>
        <time>2010-07-29T09:58:17Z</time>
      </trkpt>
      <trkpt lat="48.1153" lon="-1.35442">
        <ele>92</ele>
        <time>2010-07-29T09:58:19Z</time>
      </trkpt>
      <trkpt lat="48.11514" lon="-1.35451">
        <ele>91</ele>
        <time>2010-07-29T09:58:21Z</time>
      </trkpt>
      <trkpt lat="48.11506" lon="-1.35455">
        <ele>91</ele>
        <time>2010-07-29T09:58:22Z</time>
      </trkpt>
      <trkpt lat="48.11498" lon="-1.35459">
        <ele>90</ele>
        <time>2010-07-29T09:58:23Z</time>
      </trkpt>
      <trkpt lat="48.1149" lon="-1.35462">
        <ele>90</ele>
        <time>2010-07-29T09:58:24Z</time>
      </trkpt>
      <trkpt lat="48.11483" lon="-1.35465">
        <ele>90</ele>
        <time>2010-07-29T09:58:25Z</time>
      </trkpt>
      <trkpt lat="48.11468" lon="-1.35471">
        <ele>89</ele>
        <time>2010-07-29T09:58:27Z</time>
      </trkpt>
      <trkpt lat="48.11455" lon="-1.35476">
        <ele>88</ele>
        <time>2010-07-29T09:58:29Z</time>
      </trkpt>
      <trkpt lat="48.11449" lon="-1.35477">
        <ele>88</ele>
        <time>2010-07-29T09:58:30Z</time>
      </trkpt>
      <trkpt lat="48.11443" lon="-1.35479">
        <ele>88</ele>
        <time>2010-07-29T09:58:31Z</time>
      </trkpt>
      <trkpt lat="48.11437" lon="-1.35481">
        <ele>87</ele>
        <time>2010-07-29T09:58:32Z</time>
      </trkpt>
      <trkpt lat="48.11432" lon="-1.35484">
        <ele>87</ele>
        <time>2010-07-29T09:58:33Z</time>
      </trkpt>
      <trkpt lat="48.11431" lon="-1.35488">
        <ele>87</ele>
        <time>2010-07-29T09:58:34Z</time>
      </trkpt>
      <trkpt lat="48.1143" lon="-1.35495">
        <ele>87</ele>
        <time>2010-07-29T09:58:36Z</time>
      </trkpt>
      <trkpt lat="48.11433" lon="-1.35503">
        <ele>87</ele>
        <time>2010-07-29T09:58:38Z</time>
      </trkpt>
      <trkpt lat="48.11435" lon="-1.35511">
        <ele>87</ele>
        <time>2010-07-29T09:58:40Z</time>
      </trkpt>
      <trkpt lat="48.1144" lon="-1.35538">
        <ele>87</ele>
        <time>2010-07-29T09:58:47Z</time>
      </trkpt>
      <trkpt lat="48.11441" lon="-1.35545">
        <ele>87</ele>
        <time>2010-07-29T09:58:49Z</time>
      </trkpt>
      <trkpt lat="48.11442" lon="-1.35563">
        <ele>87</ele>
        <time>2010-07-29T09:58:54Z</time>
      </trkpt>
      <trkpt lat="48.11447" lon="-1.35595">
        <ele>87</ele>
        <time>2010-07-29T09:59:00Z</time>
      </trkpt>
      <trkpt lat="48.11451" lon="-1.35616">
        <ele>87</ele>
        <time>2010-07-29T09:59:04Z</time>
      </trkpt>
      <trkpt lat="48.11453" lon="-1.3562">
        <ele>87</ele>
        <time>2010-07-29T09:59:05Z</time>
      </trkpt>
      <trkpt lat="48.11455" lon="-1.35643">
        <ele>86</ele>
        <time>2010-07-29T09:59:09Z</time>
      </trkpt>
      <trkpt lat="48.1146" lon="-1.35681">
        <ele>86</ele>
        <time>2010-07-29T09:59:15Z</time>
      </trkpt>
      <trkpt lat="48.11462" lon="-1.35693">
        <ele>86</ele>
        <time>2010-07-29T09:59:17Z</time>
      </trkpt>
      <trkpt lat="48.11475" lon="-1.35731">
        <ele>86</ele>
        <time>2010-07-29T09:59:24Z</time>
      </trkpt>
      <trkpt lat="48.11482" lon="-1.35744">
        <ele>86</ele>
        <time>2010-07-29T09:59:27Z</time>
      </trkpt>
      <trkpt lat="48.11494" lon="-1.35764">
        <ele>86</ele>
        <time>2010-07-29T09:59:33Z</time>
      </trkpt>
      <trkpt lat="48.115" lon="-1.3578">
        <ele>86</ele>
        <time>2010-07-29T09:59:36Z</time>
      </trkpt>
      <trkpt lat="48.11504" lon="-1.35794">
        <ele>86</ele>
        <time>2010-07-29T09:59:38Z</time>
      </trkpt>
      <trkpt lat="48.11507" lon="-1.35808">
        <ele>86</ele>
        <time>2010-07-29T09:59:40Z</time>
      </trkpt>
      <trkpt lat="48.11514" lon="-1.35843">
        <ele>85</ele>
        <time>2010-07-29T09:59:44Z</time>
      </trkpt>
      <trkpt lat="48.11519" lon="-1.3586">
        <ele>84</ele>
        <time>2010-07-29T09:59:46Z</time>
      </trkpt>
      <trkpt lat="48.11524" lon="-1.35879">
        <ele>84</ele>
        <time>2010-07-29T09:59:48Z</time>
      </trkpt>
      <trkpt lat="48.11529" lon="-1.35896">
        <ele>83</ele>
        <time>2010-07-29T09:59:50Z</time>
      </trkpt>
      <trkpt lat="48.11532" lon="-1.35911">
        <ele>82</ele>
        <time>2010-07-29T09:59:52Z</time>
      </trkpt>
      <trkpt lat="48.11535" lon="-1.35916">
        <ele>82</ele>
        <time>2010-07-29T09:59:53Z</time>
      </trkpt>
      <trkpt lat="48.11541" lon="-1.35924">
        <ele>82</ele>
        <time>2010-07-29T09:59:55Z</time>
      </trkpt>
      <trkpt lat="48.11548" lon="-1.35926">
        <ele>82</ele>
        <time>2010-07-29T09:59:57Z</time>
      </trkpt>
      <trkpt lat="48.11552" lon="-1.35926">
        <ele>82</ele>
        <time>2010-07-29T09:59:58Z</time>
      </trkpt>
      <trkpt lat="48.11555" lon="-1.35925">
        <ele>82</ele>
        <time>2010-07-29T09:59:59Z</time>
      </trkpt>
      <trkpt lat="48.1156" lon="-1.35926">
        <ele>82</ele>
        <time>2010-07-29T10:00:01Z</time>
      </trkpt>
      <trkpt lat="48.11559" lon="-1.35932">
        <ele>82</ele>
        <time>2010-07-29T10:00:05Z</time>
      </trkpt>
      <trkpt lat="48.11563" lon="-1.35951">
        <ele>81</ele>
        <time>2010-07-29T10:00:09Z</time>
      </trkpt>
      <trkpt lat="48.11565" lon="-1.35958">
        <ele>80</ele>
        <time>2010-07-29T10:00:10Z</time>
      </trkpt>
      <trkpt lat="48.11571" lon="-1.35984">
        <ele>79</ele>
        <time>2010-07-29T10:00:13Z</time>
      </trkpt>
      <trkpt lat="48.11574" lon="-1.36003">
        <ele>78</ele>
        <time>2010-07-29T10:00:15Z</time>
      </trkpt>
      <trkpt lat="48.11577" lon="-1.36023">
        <ele>77</ele>
        <time>2010-07-29T10:00:17Z</time>
      </trkpt>
      <trkpt lat="48.11578" lon="-1.36034">
        <ele>77</ele>
        <time>2010-07-29T10:00:18Z</time>
      </trkpt>
      <trkpt lat="48.11578" lon="-1.36046">
        <ele>76</ele>
        <time>2010-07-29T10:00:19Z</time>
      </trkpt>
      <trkpt lat="48.11578" lon="-1.36058">
        <ele>76</ele>
        <time>2010-07-29T10:00:20Z</time>
      </trkpt>
      <trkpt lat="48.11578" lon="-1.36071">
        <ele>75</ele>
        <time>2010-07-29T10:00:21Z</time>
      </trkpt>
      <trkpt lat="48.11583" lon="-1.36094">
        <ele>74</ele>
        <time>2010-07-29T10:00:23Z</time>
      </trkpt>
      <trkpt lat="48.11592" lon="-1.36112">
        <ele>73</ele>
        <time>2010-07-29T10:00:25Z</time>
      </trkpt>
      <trkpt lat="48.11597" lon="-1.36118">
        <ele>72</ele>
        <time>2010-07-29T10:00:26Z</time>
      </trkpt>
      <trkpt lat="48.11601" lon="-1.36124">
        <ele>72</ele>
        <time>2010-07-29T10:00:28Z</time>
      </trkpt>
      <trkpt lat="48.11602" lon="-1.36129">
        <ele>72</ele>
        <time>2010-07-29T10:00:30Z</time>
      </trkpt>
      <trkpt lat="48.116" lon="-1.36132">
        <ele>72</ele>
        <time>2010-07-29T10:00:31Z</time>
      </trkpt>
      <trkpt lat="48.11598" lon="-1.36137">
        <ele>71</ele>
        <time>2010-07-29T10:00:32Z</time>
      </trkpt>
      <trkpt lat="48.11589" lon="-1.36149">
        <ele>70</ele>
        <time>2010-07-29T10:00:34Z</time>
      </trkpt>
      <trkpt lat="48.11583" lon="-1.36156">
        <ele>70</ele>
        <time>2010-07-29T10:00:35Z</time>
      </trkpt>
      <trkpt lat="48.11577" lon="-1.36163">
        <ele>69</ele>
        <time>2010-07-29T10:00:36Z</time>
      </trkpt>
      <trkpt lat="48.11571" lon="-1.3617">
        <ele>68</ele>
        <time>2010-07-29T10:00:37Z</time>
      </trkpt>
      <trkpt lat="48.11558" lon="-1.36184">
        <ele>67</ele>
        <time>2010-07-29T10:00:39Z</time>
      </trkpt>
      <trkpt lat="48.11552" lon="-1.36192">
        <ele>67</ele>
        <time>2010-07-29T10:00:40Z</time>
      </trkpt>
      <trkpt lat="48.11546" lon="-1.362">
        <ele>66</ele>
        <time>2010-07-29T10:00:41Z</time>
      </trkpt>
      <trkpt lat="48.11524" lon="-1.36225">
        <ele>62</ele>
        <time>2010-07-29T10:00:44Z</time>
      </trkpt>
      <trkpt lat="48.11516" lon="-1.36231">
        <ele>61</ele>
        <time>2010-07-29T10:00:45Z</time>
      </trkpt>
      <trkpt lat="48.1149" lon="-1.36239">
        <ele>59</ele>
        <time>2010-07-29T10:00:48Z</time>
      </trkpt>
      <trkpt lat="48.11471" lon="-1.36232">
        <ele>58</ele>
        <time>2010-07-29T10:00:50Z</time>
      </trkpt>
      <trkpt lat="48.11463" lon="-1.36225">
        <ele>57</ele>
        <time>2010-07-29T10:00:51Z</time>
      </trkpt>
      <trkpt lat="48.11456" lon="-1.36217">
        <ele>57</ele>
        <time>2010-07-29T10:00:52Z</time>
      </trkpt>
      <trkpt lat="48.11443" lon="-1.36203">
        <ele>56</ele>
        <time>2010-07-29T10:00:54Z</time>
      </trkpt>
      <trkpt lat="48.1144" lon="-1.36199">
        <ele>55</ele>
        <time>2010-07-29T10:00:55Z</time>
      </trkpt>
      <trkpt lat="48.11435" lon="-1.36196">
        <ele>55</ele>
        <time>2010-07-29T10:00:56Z</time>
      </trkpt>
      <trkpt lat="48.11433" lon="-1.36195">
        <ele>54</ele>
        <time>2010-07-29T10:00:57Z</time>
      </trkpt>
      <trkpt lat="48.11432" lon="-1.36194">
        <ele>54</ele>
        <time>2010-07-29T10:00:58Z</time>
      </trkpt>
      <trkpt lat="48.11431" lon="-1.36193">
        <ele>54</ele>
        <time>2010-07-29T10:00:59Z</time>
      </trkpt>
      <trkpt lat="48.11431" lon="-1.36191">
        <ele>54</ele>
        <time>2010-07-29T10:01:01Z</time>
      </trkpt>
      <trkpt lat="48.11432" lon="-1.36189">
        <ele>55</ele>
        <time>2010-07-29T10:01:02Z</time>
      </trkpt>
      <trkpt lat="48.11432" lon="-1.36187">
        <ele>55</ele>
        <time>2010-07-29T10:01:03Z</time>
      </trkpt>
      <trkpt lat="48.11434" lon="-1.36184">
        <ele>56</ele>
        <time>2010-07-29T10:01:05Z</time>
      </trkpt>
      <trkpt lat="48.11435" lon="-1.36182">
        <ele>56</ele>
        <time>2010-07-29T10:01:06Z</time>
      </trkpt>
      <trkpt lat="48.11433" lon="-1.36175">
        <ele>56</ele>
        <time>2010-07-29T10:01:11Z</time>
      </trkpt>
      <trkpt lat="48.1142" lon="-1.36163">
        <ele>55</ele>
        <time>2010-07-29T10:01:16Z</time>
      </trkpt>
      <trkpt lat="48.11417" lon="-1.36159">
        <ele>54</ele>
        <time>2010-07-29T10:01:17Z</time>
      </trkpt>
      <trkpt lat="48.11413" lon="-1.36155">
        <ele>54</ele>
        <time>2010-07-29T10:01:18Z</time>
      </trkpt>
      <trkpt lat="48.11404" lon="-1.36145">
        <ele>51</ele>
        <time>2010-07-29T10:01:20Z</time>
      </trkpt>
      <trkpt lat="48.11399" lon="-1.36141">
        <ele>50</ele>
        <time>2010-07-29T10:01:21Z</time>
      </trkpt>
      <trkpt lat="48.11393" lon="-1.36139">
        <ele>48</ele>
        <time>2010-07-29T10:01:22Z</time>
      </trkpt>
      <trkpt lat="48.1138" lon="-1.36141">
        <ele>44</ele>
        <time>2010-07-29T10:01:24Z</time>
      </trkpt>
      <trkpt lat="48.11374" lon="-1.36143">
        <ele>44</ele>
        <time>2010-07-29T10:01:25Z</time>
      </trkpt>
      <trkpt lat="48.11368" lon="-1.36147">
        <ele>44</ele>
        <time>2010-07-29T10:01:26Z</time>
      </trkpt>
      <trkpt lat="48.11357" lon="-1.36153">
        <ele>43</ele>
        <time>2010-07-29T10:01:28Z</time>
      </trkpt>
      <trkpt lat="48.11346" lon="-1.36156">
        <ele>43</ele>
        <time>2010-07-29T10:01:30Z</time>
      </trkpt>
      <trkpt lat="48.11335" lon="-1.3616">
        <ele>43</ele>
        <time>2010-07-29T10:01:32Z</time>
      </trkpt>
      <trkpt lat="48.11323" lon="-1.36165">
        <ele>43</ele>
        <time>2010-07-29T10:01:34Z</time>
      </trkpt>
      <trkpt lat="48.11311" lon="-1.36171">
        <ele>43</ele>
        <time>2010-07-29T10:01:36Z</time>
      </trkpt>
      <trkpt lat="48.11298" lon="-1.36178">
        <ele>43</ele>
        <time>2010-07-29T10:01:38Z</time>
      </trkpt>
      <trkpt lat="48.11285" lon="-1.36184">
        <ele>43</ele>
        <time>2010-07-29T10:01:40Z</time>
      </trkpt>
      <trkpt lat="48.11261" lon="-1.36192">
        <ele>43</ele>
        <time>2010-07-29T10:01:43Z</time>
      </trkpt>
      <trkpt lat="48.11248" lon="-1.36197">
        <ele>43</ele>
        <time>2010-07-29T10:01:45Z</time>
      </trkpt>
      <trkpt lat="48.1123" lon="-1.36204">
        <ele>44</ele>
        <time>2010-07-29T10:01:47Z</time>
      </trkpt>
      <trkpt lat="48.11211" lon="-1.36211">
        <ele>45</ele>
        <time>2010-07-29T10:01:49Z</time>
      </trkpt>
      <trkpt lat="48.11195" lon="-1.36217">
        <ele>46</ele>
        <time>2010-07-29T10:01:51Z</time>
      </trkpt>
      <trkpt lat="48.11187" lon="-1.3622">
        <ele>47</ele>
        <time>2010-07-29T10:01:52Z</time>
      </trkpt>
      <trkpt lat="48.11163" lon="-1.36229">
        <ele>50</ele>
        <time>2010-07-29T10:01:55Z</time>
      </trkpt>
      <trkpt lat="48.11157" lon="-1.3623">
        <ele>50</ele>
        <time>2010-07-29T10:01:56Z</time>
      </trkpt>
      <trkpt lat="48.1115" lon="-1.36231">
        <ele>51</ele>
        <time>2010-07-29T10:01:57Z</time>
      </trkpt>
      <trkpt lat="48.11138" lon="-1.36234">
        <ele>53</ele>
        <time>2010-07-29T10:01:59Z</time>
      </trkpt>
      <trkpt lat="48.11133" lon="-1.36239">
        <ele>53</ele>
        <time>2010-07-29T10:02:00Z</time>
      </trkpt>
      <trkpt lat="48.11129" lon="-1.36242">
        <ele>54</ele>
        <time>2010-07-29T10:02:01Z</time>
      </trkpt>
      <trkpt lat="48.11118" lon="-1.36249">
        <ele>55</ele>
        <time>2010-07-29T10:02:03Z</time>
      </trkpt>
      <trkpt lat="48.11114" lon="-1.36254">
        <ele>56</ele>
        <time>2010-07-29T10:02:04Z</time>
      </trkpt>
      <trkpt lat="48.11109" lon="-1.36256">
        <ele>56</ele>
        <time>2010-07-29T10:02:05Z</time>
      </trkpt>
      <trkpt lat="48.11101" lon="-1.3626">
        <ele>57</ele>
        <time>2010-07-29T10:02:07Z</time>
      </trkpt>
      <trkpt lat="48.11096" lon="-1.36262">
        <ele>58</ele>
        <time>2010-07-29T10:02:08Z</time>
      </trkpt>
      <trkpt lat="48.11092" lon="-1.36263">
        <ele>58</ele>
        <time>2010-07-29T10:02:09Z</time>
      </trkpt>
      <trkpt lat="48.11083" lon="-1.36265">
        <ele>59</ele>
        <time>2010-07-29T10:02:11Z</time>
      </trkpt>
      <trkpt lat="48.11073" lon="-1.36267">
        <ele>59</ele>
        <time>2010-07-29T10:02:13Z</time>
      </trkpt>
      <trkpt lat="48.11067" lon="-1.36269">
        <ele>60</ele>
        <time>2010-07-29T10:02:14Z</time>
      </trkpt>
      <trkpt lat="48.11061" lon="-1.3627">
        <ele>60</ele>
        <time>2010-07-29T10:02:15Z</time>
      </trkpt>
      <trkpt lat="48.11053" lon="-1.36273">
        <ele>60</ele>
        <time>2010-07-29T10:02:17Z</time>
      </trkpt>
      <trkpt lat="48.11047" lon="-1.36276">
        <ele>61</ele>
        <time>2010-07-29T10:02:19Z</time>
      </trkpt>
      <trkpt lat="48.11044" lon="-1.36277">
        <ele>61</ele>
        <time>2010-07-29T10:02:20Z</time>
      </trkpt>
      <trkpt lat="48.1104" lon="-1.36277">
        <ele>61</ele>
        <time>2010-07-29T10:02:22Z</time>
      </trkpt>
      <trkpt lat="48.11038" lon="-1.36276">
        <ele>61</ele>
        <time>2010-07-29T10:02:24Z</time>
      </trkpt>
      <trkpt lat="48.11037" lon="-1.36274">
        <ele>61</ele>
        <time>2010-07-29T10:02:59Z</time>
      </trkpt>
      <trkpt lat="48.11035" lon="-1.36274">
        <ele>61</ele>
        <time>2010-07-29T10:03:01Z</time>
      </trkpt>
      <trkpt lat="48.11029" lon="-1.36275">
        <ele>62</ele>
        <time>2010-07-29T10:03:03Z</time>
      </trkpt>
      <trkpt lat="48.11012" lon="-1.36279">
        <ele>62</ele>
        <time>2010-07-29T10:03:10Z</time>
      </trkpt>
      <trkpt lat="48.11008" lon="-1.36282">
        <ele>62</ele>
        <time>2010-07-29T10:03:13Z</time>
      </trkpt>
      <trkpt lat="48.11003" lon="-1.36283">
        <ele>63</ele>
        <time>2010-07-29T10:03:15Z</time>
      </trkpt>
      <trkpt lat="48.10998" lon="-1.36283">
        <ele>63</ele>
        <time>2010-07-29T10:03:17Z</time>
      </trkpt>
      <trkpt lat="48.10991" lon="-1.36284">
        <ele>63</ele>
        <time>2010-07-29T10:03:19Z</time>
      </trkpt>
      <trkpt lat="48.10985" lon="-1.36285">
        <ele>63</ele>
        <time>2010-07-29T10:03:21Z</time>
      </trkpt>
      <trkpt lat="48.10973" lon="-1.36287">
        <ele>63</ele>
        <time>2010-07-29T10:03:27Z</time>
      </trkpt>
      <trkpt lat="48.10956" lon="-1.36291">
        <ele>64</ele>
        <time>2010-07-29T10:03:33Z</time>
      </trkpt>
      <trkpt lat="48.10939" lon="-1.36295">
        <ele>64</ele>
        <time>2010-07-29T10:03:38Z</time>
      </trkpt>
      <trkpt lat="48.10931" lon="-1.36297">
        <ele>64</ele>
        <time>2010-07-29T10:03:40Z</time>
      </trkpt>
      <trkpt lat="48.10923" lon="-1.36298">
        <ele>65</ele>
        <time>2010-07-29T10:03:42Z</time>
      </trkpt>
      <trkpt lat="48.10914" lon="-1.363">
        <ele>65</ele>
        <time>2010-07-29T10:03:44Z</time>
      </trkpt>
      <trkpt lat="48.10909" lon="-1.36302">
        <ele>65</ele>
        <time>2010-07-29T10:03:46Z</time>
      </trkpt>
      <trkpt lat="48.10902" lon="-1.36304">
        <ele>65</ele>
        <time>2010-07-29T10:03:48Z</time>
      </trkpt>
      <trkpt lat="48.1088" lon="-1.36309">
        <ele>66</ele>
        <time>2010-07-29T10:03:55Z</time>
      </trkpt>
      <trkpt lat="48.10848" lon="-1.36318">
        <ele>67</ele>
        <time>2010-07-29T10:04:03Z</time>
      </trkpt>
      <trkpt lat="48.1084" lon="-1.3632">
        <ele>67</ele>
        <time>2010-07-29T10:04:05Z</time>
      </trkpt>
      <trkpt lat="48.10831" lon="-1.36322">
        <ele>67</ele>
        <time>2010-07-29T10:04:07Z</time>
      </trkpt>
      <trkpt lat="48.10823" lon="-1.36324">
        <ele>67</ele>
        <time>2010-07-29T10:04:09Z</time>
      </trkpt>
      <trkpt lat="48.10815" lon="-1.36326">
        <ele>68</ele>
        <time>2010-07-29T10:04:11Z</time>
      </trkpt>
      <trkpt lat="48.10807" lon="-1.36329">
        <ele>68</ele>
        <time>2010-07-29T10:04:13Z</time>
      </trkpt>
      <trkpt lat="48.10774" lon="-1.36338">
        <ele>69</ele>
        <time>2010-07-29T10:04:21Z</time>
      </trkpt>
      <trkpt lat="48.10761" lon="-1.36341">
        <ele>70</ele>
        <time>2010-07-29T10:04:24Z</time>
      </trkpt>
      <trkpt lat="48.10753" lon="-1.36344">
        <ele>70</ele>
        <time>2010-07-29T10:04:26Z</time>
      </trkpt>
      <trkpt lat="48.10744" lon="-1.36345">
        <ele>70</ele>
        <time>2010-07-29T10:04:28Z</time>
      </trkpt>
      <trkpt lat="48.10737" lon="-1.36348">
        <ele>71</ele>
        <time>2010-07-29T10:04:30Z</time>
      </trkpt>
      <trkpt lat="48.10729" lon="-1.3635">
        <ele>71</ele>
        <time>2010-07-29T10:04:32Z</time>
      </trkpt>
      <trkpt lat="48.10696" lon="-1.36359">
        <ele>72</ele>
        <time>2010-07-29T10:04:40Z</time>
      </trkpt>
      <trkpt lat="48.10688" lon="-1.36361">
        <ele>72</ele>
        <time>2010-07-29T10:04:42Z</time>
      </trkpt>
      <trkpt lat="48.1068" lon="-1.36362">
        <ele>73</ele>
        <time>2010-07-29T10:04:44Z</time>
      </trkpt>
      <trkpt lat="48.10672" lon="-1.36364">
        <ele>73</ele>
        <time>2010-07-29T10:04:46Z</time>
      </trkpt>
      <trkpt lat="48.10665" lon="-1.36366">
        <ele>74</ele>
        <time>2010-07-29T10:04:48Z</time>
      </trkpt>
      <trkpt lat="48.1063" lon="-1.36372">
        <ele>75</ele>
        <time>2010-07-29T10:04:57Z</time>
      </trkpt>
      <trkpt lat="48.10622" lon="-1.36373">
        <ele>75</ele>
        <time>2010-07-29T10:04:59Z</time>
      </trkpt>
      <trkpt lat="48.10615" lon="-1.36374">
        <ele>76</ele>
        <time>2010-07-29T10:05:01Z</time>
      </trkpt>
      <trkpt lat="48.10607" lon="-1.36375">
        <ele>76</ele>
        <time>2010-07-29T10:05:03Z</time>
      </trkpt>
      <trkpt lat="48.10599" lon="-1.36376">
        <ele>76</ele>
        <time>2010-07-29T10:05:05Z</time>
      </trkpt>
      <trkpt lat="48.10579" lon="-1.36379">
        <ele>77</ele>
        <time>2010-07-29T10:05:10Z</time>
      </trkpt>
      <trkpt lat="48.10572" lon="-1.36379">
        <ele>77</ele>
        <time>2010-07-29T10:05:12Z</time>
      </trkpt>
      <trkpt lat="48.10564" lon="-1.3638">
        <ele>77</ele>
        <time>2010-07-29T10:05:14Z</time>
      </trkpt>
      <trkpt lat="48.10557" lon="-1.36381">
        <ele>77</ele>
        <time>2010-07-29T10:05:16Z</time>
      </trkpt>
      <trkpt lat="48.10549" lon="-1.36382">
        <ele>77</ele>
        <time>2010-07-29T10:05:18Z</time>
      </trkpt>
      <trkpt lat="48.10508" lon="-1.36385">
        <ele>78</ele>
        <time>2010-07-29T10:05:29Z</time>
      </trkpt>
      <trkpt lat="48.10485" lon="-1.36388">
        <ele>79</ele>
        <time>2010-07-29T10:05:35Z</time>
      </trkpt>
      <trkpt lat="48.10476" lon="-1.36389">
        <ele>79</ele>
        <time>2010-07-29T10:05:37Z</time>
      </trkpt>
      <trkpt lat="48.10468" lon="-1.3639">
        <ele>79</ele>
        <time>2010-07-29T10:05:39Z</time>
      </trkpt>
      <trkpt lat="48.1046" lon="-1.36391">
        <ele>80</ele>
        <time>2010-07-29T10:05:41Z</time>
      </trkpt>
      <trkpt lat="48.10451" lon="-1.36392">
        <ele>80</ele>
        <time>2010-07-29T10:05:43Z</time>
      </trkpt>
      <trkpt lat="48.1042" lon="-1.364">
        <ele>81</ele>
        <time>2010-07-29T10:05:51Z</time>
      </trkpt>
      <trkpt lat="48.10415" lon="-1.36401">
        <ele>81</ele>
        <time>2010-07-29T10:05:52Z</time>
      </trkpt>
      <trkpt lat="48.10408" lon="-1.36402">
        <ele>82</ele>
        <time>2010-07-29T10:05:54Z</time>
      </trkpt>
      <trkpt lat="48.10399" lon="-1.36404">
        <ele>82</ele>
        <time>2010-07-29T10:05:56Z</time>
      </trkpt>
      <trkpt lat="48.10392" lon="-1.36405">
        <ele>82</ele>
        <time>2010-07-29T10:05:58Z</time>
      </trkpt>
      <trkpt lat="48.10385" lon="-1.36407">
        <ele>82</ele>
        <time>2010-07-29T10:06:00Z</time>
      </trkpt>
      <trkpt lat="48.10351" lon="-1.36418">
        <ele>83</ele>
        <time>2010-07-29T10:06:10Z</time>
      </trkpt>
      <trkpt lat="48.10329" lon="-1.36425">
        <ele>84</ele>
        <time>2010-07-29T10:06:17Z</time>
      </trkpt>
      <trkpt lat="48.10322" lon="-1.36428">
        <ele>84</ele>
        <time>2010-07-29T10:06:19Z</time>
      </trkpt>
      <trkpt lat="48.10316" lon="-1.3643">
        <ele>84</ele>
        <time>2010-07-29T10:06:21Z</time>
      </trkpt>
      <trkpt lat="48.1031" lon="-1.36432">
        <ele>84</ele>
        <time>2010-07-29T10:06:23Z</time>
      </trkpt>
      <trkpt lat="48.10305" lon="-1.36434">
        <ele>84</ele>
        <time>2010-07-29T10:06:25Z</time>
      </trkpt>
      <trkpt lat="48.10302" lon="-1.36435">
        <ele>84</ele>
        <time>2010-07-29T10:06:26Z</time>
      </trkpt>
      <trkpt lat="48.10262" lon="-1.36453">
        <ele>85</ele>
        <time>2010-07-29T10:06:37Z</time>
      </trkpt>
      <trkpt lat="48.10241" lon="-1.36465">
        <ele>84</ele>
        <time>2010-07-29T10:06:41Z</time>
      </trkpt>
      <trkpt lat="48.10201" lon="-1.36484">
        <ele>84</ele>
        <time>2010-07-29T10:06:45Z</time>
      </trkpt>
      <trkpt lat="48.10187" lon="-1.36492">
        <ele>84</ele>
        <time>2010-07-29T10:06:47Z</time>
      </trkpt>
      <trkpt lat="48.10173" lon="-1.365">
        <ele>84</ele>
        <time>2010-07-29T10:06:49Z</time>
      </trkpt>
      <trkpt lat="48.1016" lon="-1.36507">
        <ele>84</ele>
        <time>2010-07-29T10:06:51Z</time>
      </trkpt>
      <trkpt lat="48.10148" lon="-1.36516">
        <ele>84</ele>
        <time>2010-07-29T10:06:53Z</time>
      </trkpt>
      <trkpt lat="48.10115" lon="-1.36545">
        <ele>82</ele>
        <time>2010-07-29T10:06:59Z</time>
      </trkpt>
      <trkpt lat="48.10109" lon="-1.36552">
        <ele>82</ele>
        <time>2010-07-29T10:07:00Z</time>
      </trkpt>
      <trkpt lat="48.10097" lon="-1.36565">
        <ele>81</ele>
        <time>2010-07-29T10:07:02Z</time>
      </trkpt>
      <trkpt lat="48.10085" lon="-1.36579">
        <ele>80</ele>
        <time>2010-07-29T10:07:04Z</time>
      </trkpt>
      <trkpt lat="48.1008" lon="-1.36585">
        <ele>79</ele>
        <time>2010-07-29T10:07:05Z</time>
      </trkpt>
      <trkpt lat="48.10066" lon="-1.36596">
        <ele>78</ele>
        <time>2010-07-29T10:07:08Z</time>
      </trkpt>
      <trkpt lat="48.10056" lon="-1.36602">
        <ele>78</ele>
        <time>2010-07-29T10:07:10Z</time>
      </trkpt>
      <trkpt lat="48.10043" lon="-1.36609">
        <ele>77</ele>
        <time>2010-07-29T10:07:12Z</time>
      </trkpt>
      <trkpt lat="48.10032" lon="-1.36616">
        <ele>76</ele>
        <time>2010-07-29T10:07:14Z</time>
      </trkpt>
      <trkpt lat="48.10023" lon="-1.36622">
        <ele>76</ele>
        <time>2010-07-29T10:07:16Z</time>
      </trkpt>
      <trkpt lat="48.10015" lon="-1.36627">
        <ele>76</ele>
        <time>2010-07-29T10:07:18Z</time>
      </trkpt>
      <trkpt lat="48.10006" lon="-1.36634">
        <ele>75</ele>
        <time>2010-07-29T10:07:20Z</time>
      </trkpt>
      <trkpt lat="48.10003" lon="-1.36638">
        <ele>75</ele>
        <time>2010-07-29T10:07:21Z</time>
      </trkpt>
      <trkpt lat="48.10001" lon="-1.36643">
        <ele>75</ele>
        <time>2010-07-29T10:07:23Z</time>
      </trkpt>
      <trkpt lat="48.10002" lon="-1.36644">
        <ele>75</ele>
        <time>2010-07-29T10:07:25Z</time>
      </trkpt>
      <trkpt lat="48.10004" lon="-1.36643">
        <ele>75</ele>
        <time>2010-07-29T10:07:51Z</time>
      </trkpt>
      <trkpt lat="48.10004" lon="-1.36643">
        <ele>75</ele>
        <time>2010-07-29T10:07:53Z</time>
      </trkpt>
      <trkpt lat="48.10004" lon="-1.36644">
        <ele>75</ele>
        <time>2010-07-29T10:08:16Z</time>
      </trkpt>
      <trkpt lat="48.10006" lon="-1.36646">
        <ele>75</ele>
        <time>2010-07-29T10:08:17Z</time>
      </trkpt>
      <trkpt lat="48.10007" lon="-1.36648">
        <ele>75</ele>
        <time>2010-07-29T10:08:18Z</time>
      </trkpt>
      <trkpt lat="48.10012" lon="-1.36657">
        <ele>74</ele>
        <time>2010-07-29T10:08:20Z</time>
      </trkpt>
      <trkpt lat="48.10019" lon="-1.36678">
        <ele>74</ele>
        <time>2010-07-29T10:08:23Z</time>
      </trkpt>
      <trkpt lat="48.1002" lon="-1.36686">
        <ele>74</ele>
        <time>2010-07-29T10:08:24Z</time>
      </trkpt>
      <trkpt lat="48.1003" lon="-1.36708">
        <ele>73</ele>
        <time>2010-07-29T10:08:27Z</time>
      </trkpt>
      <trkpt lat="48.10035" lon="-1.36722">
        <ele>72</ele>
        <time>2010-07-29T10:08:29Z</time>
      </trkpt>
      <trkpt lat="48.1004" lon="-1.36736">
        <ele>72</ele>
        <time>2010-07-29T10:08:31Z</time>
      </trkpt>
      <trkpt lat="48.10041" lon="-1.36744">
        <ele>71</ele>
        <time>2010-07-29T10:08:32Z</time>
      </trkpt>
      <trkpt lat="48.10043" lon="-1.36751">
        <ele>71</ele>
        <time>2010-07-29T10:08:33Z</time>
      </trkpt>
      <trkpt lat="48.10044" lon="-1.36759">
        <ele>71</ele>
        <time>2010-07-29T10:08:34Z</time>
      </trkpt>
      <trkpt lat="48.10051" lon="-1.36777">
        <ele>71</ele>
        <time>2010-07-29T10:08:37Z</time>
      </trkpt>
      <trkpt lat="48.10054" lon="-1.36781">
        <ele>71</ele>
        <time>2010-07-29T10:08:38Z</time>
      </trkpt>
      <trkpt lat="48.10063" lon="-1.36797">
        <ele>70</ele>
        <time>2010-07-29T10:08:41Z</time>
      </trkpt>
      <trkpt lat="48.10071" lon="-1.3682">
        <ele>69</ele>
        <time>2010-07-29T10:08:44Z</time>
      </trkpt>
      <trkpt lat="48.10077" lon="-1.36835">
        <ele>69</ele>
        <time>2010-07-29T10:08:46Z</time>
      </trkpt>
      <trkpt lat="48.10084" lon="-1.36851">
        <ele>68</ele>
        <time>2010-07-29T10:08:48Z</time>
      </trkpt>
      <trkpt lat="48.10085" lon="-1.36859">
        <ele>68</ele>
        <time>2010-07-29T10:08:49Z</time>
      </trkpt>
      <trkpt lat="48.1009" lon="-1.36879">
        <ele>67</ele>
        <time>2010-07-29T10:08:51Z</time>
      </trkpt>
      <trkpt lat="48.10094" lon="-1.36888">
        <ele>67</ele>
        <time>2010-07-29T10:08:52Z</time>
      </trkpt>
      <trkpt lat="48.10096" lon="-1.36895">
        <ele>66</ele>
        <time>2010-07-29T10:08:53Z</time>
      </trkpt>
      <trkpt lat="48.10102" lon="-1.36912">
        <ele>65</ele>
        <time>2010-07-29T10:08:55Z</time>
      </trkpt>
      <trkpt lat="48.10105" lon="-1.36919">
        <ele>65</ele>
        <time>2010-07-29T10:08:56Z</time>
      </trkpt>
      <trkpt lat="48.10107" lon="-1.36928">
        <ele>65</ele>
        <time>2010-07-29T10:08:57Z</time>
      </trkpt>
      <trkpt lat="48.10111" lon="-1.36939">
        <ele>64</ele>
        <time>2010-07-29T10:08:59Z</time>
      </trkpt>
      <trkpt lat="48.10112" lon="-1.36945">
        <ele>64</ele>
        <time>2010-07-29T10:09:00Z</time>
      </trkpt>
      <trkpt lat="48.10114" lon="-1.36951">
        <ele>63</ele>
        <time>2010-07-29T10:09:01Z</time>
      </trkpt>
      <trkpt lat="48.10116" lon="-1.36957">
        <ele>63</ele>
        <time>2010-07-29T10:09:02Z</time>
      </trkpt>
      <trkpt lat="48.10118" lon="-1.36965">
        <ele>62</ele>
        <time>2010-07-29T10:09:03Z</time>
      </trkpt>
      <trkpt lat="48.10119" lon="-1.36974">
        <ele>62</ele>
        <time>2010-07-29T10:09:04Z</time>
      </trkpt>
      <trkpt lat="48.10121" lon="-1.36982">
        <ele>62</ele>
        <time>2010-07-29T10:09:05Z</time>
      </trkpt>
      <trkpt lat="48.10123" lon="-1.36994">
        <ele>61</ele>
        <time>2010-07-29T10:09:07Z</time>
      </trkpt>
      <trkpt lat="48.10126" lon="-1.37002">
        <ele>61</ele>
        <time>2010-07-29T10:09:09Z</time>
      </trkpt>
      <trkpt lat="48.10129" lon="-1.37006">
        <ele>60</ele>
        <time>2010-07-29T10:09:10Z</time>
      </trkpt>
      <trkpt lat="48.10135" lon="-1.37013">
        <ele>60</ele>
        <time>2010-07-29T10:09:12Z</time>
      </trkpt>
      <trkpt lat="48.10143" lon="-1.3702">
        <ele>59</ele>
        <time>2010-07-29T10:09:14Z</time>
      </trkpt>
      <trkpt lat="48.1015" lon="-1.37027">
        <ele>58</ele>
        <time>2010-07-29T10:09:16Z</time>
      </trkpt>
      <trkpt lat="48.10154" lon="-1.37034">
        <ele>58</ele>
        <time>2010-07-29T10:09:17Z</time>
      </trkpt>
      <trkpt lat="48.10156" lon="-1.3704">
        <ele>57</ele>
        <time>2010-07-29T10:09:18Z</time>
      </trkpt>
      <trkpt lat="48.10162" lon="-1.37061">
        <ele>56</ele>
        <time>2010-07-29T10:09:20Z</time>
      </trkpt>
      <trkpt lat="48.10167" lon="-1.3708">
        <ele>55</ele>
        <time>2010-07-29T10:09:21Z</time>
      </trkpt>
      <trkpt lat="48.10171" lon="-1.37092">
        <ele>54</ele>
        <time>2010-07-29T10:09:22Z</time>
      </trkpt>
      <trkpt lat="48.1018" lon="-1.37111">
        <ele>52</ele>
        <time>2010-07-29T10:09:24Z</time>
      </trkpt>
      <trkpt lat="48.10186" lon="-1.3712">
        <ele>51</ele>
        <time>2010-07-29T10:09:25Z</time>
      </trkpt>
      <trkpt lat="48.10196" lon="-1.37133">
        <ele>50</ele>
        <time>2010-07-29T10:09:27Z</time>
      </trkpt>
      <trkpt lat="48.10201" lon="-1.37136">
        <ele>50</ele>
        <time>2010-07-29T10:09:29Z</time>
      </trkpt>
      <trkpt lat="48.10202" lon="-1.37137">
        <ele>50</ele>
        <time>2010-07-29T10:10:38Z</time>
      </trkpt>
      <trkpt lat="48.10203" lon="-1.37139">
        <ele>50</ele>
        <time>2010-07-29T10:10:39Z</time>
      </trkpt>
      <trkpt lat="48.10204" lon="-1.37142">
        <ele>49</ele>
        <time>2010-07-29T10:10:40Z</time>
      </trkpt>
      <trkpt lat="48.10205" lon="-1.37148">
        <ele>49</ele>
        <time>2010-07-29T10:10:41Z</time>
      </trkpt>
      <trkpt lat="48.10206" lon="-1.37158">
        <ele>49</ele>
        <time>2010-07-29T10:10:43Z</time>
      </trkpt>
      <trkpt lat="48.10206" lon="-1.37169">
        <ele>49</ele>
        <time>2010-07-29T10:10:45Z</time>
      </trkpt>
      <trkpt lat="48.10206" lon="-1.37173">
        <ele>49</ele>
        <time>2010-07-29T10:10:46Z</time>
      </trkpt>
      <trkpt lat="48.10215" lon="-1.37198">
        <ele>49</ele>
        <time>2010-07-29T10:10:51Z</time>
      </trkpt>
      <trkpt lat="48.10217" lon="-1.37203">
        <ele>49</ele>
        <time>2010-07-29T10:10:52Z</time>
      </trkpt>
      <trkpt lat="48.10221" lon="-1.37232">
        <ele>49</ele>
        <time>2010-07-29T10:10:58Z</time>
      </trkpt>
      <trkpt lat="48.10222" lon="-1.37264">
        <ele>50</ele>
        <time>2010-07-29T10:11:05Z</time>
      </trkpt>
      <trkpt lat="48.10216" lon="-1.37286">
        <ele>50</ele>
        <time>2010-07-29T10:11:11Z</time>
      </trkpt>
      <trkpt lat="48.10204" lon="-1.37327">
        <ele>50</ele>
        <time>2010-07-29T10:11:21Z</time>
      </trkpt>
      <trkpt lat="48.10199" lon="-1.37347">
        <ele>50</ele>
        <time>2010-07-29T10:11:27Z</time>
      </trkpt>
      <trkpt lat="48.10193" lon="-1.37369">
        <ele>49</ele>
        <time>2010-07-29T10:11:32Z</time>
      </trkpt>
      <trkpt lat="48.1019" lon="-1.37378">
        <ele>49</ele>
        <time>2010-07-29T10:11:34Z</time>
      </trkpt>
      <trkpt lat="48.10186" lon="-1.37386">
        <ele>49</ele>
        <time>2010-07-29T10:11:36Z</time>
      </trkpt>
      <trkpt lat="48.10182" lon="-1.37394">
        <ele>49</ele>
        <time>2010-07-29T10:11:38Z</time>
      </trkpt>
      <trkpt lat="48.10176" lon="-1.37403">
        <ele>49</ele>
        <time>2010-07-29T10:11:40Z</time>
      </trkpt>
      <trkpt lat="48.10171" lon="-1.37412">
        <ele>49</ele>
        <time>2010-07-29T10:11:42Z</time>
      </trkpt>
      <trkpt lat="48.10157" lon="-1.37449">
        <ele>49</ele>
        <time>2010-07-29T10:11:50Z</time>
      </trkpt>
      <trkpt lat="48.10155" lon="-1.37456">
        <ele>49</ele>
        <time>2010-07-29T10:11:53Z</time>
      </trkpt>
      <trkpt lat="48.10145" lon="-1.37462">
        <ele>50</ele>
        <time>2010-07-29T10:11:59Z</time>
      </trkpt>
      <trkpt lat="48.10142" lon="-1.37462">
        <ele>50</ele>
        <time>2010-07-29T10:12:02Z</time>
      </trkpt>
      <trkpt lat="48.1014" lon="-1.37461">
        <ele>50</ele>
        <time>2010-07-29T10:12:04Z</time>
      </trkpt>
      <trkpt lat="48.10136" lon="-1.37458">
        <ele>51</ele>
        <time>2010-07-29T10:12:07Z</time>
      </trkpt>
      <trkpt lat="48.10115" lon="-1.37452">
        <ele>53</ele>
        <time>2010-07-29T10:12:15Z</time>
      </trkpt>
      <trkpt lat="48.10104" lon="-1.37447">
        <ele>54</ele>
        <time>2010-07-29T10:12:20Z</time>
      </trkpt>
      <trkpt lat="48.10101" lon="-1.37446">
        <ele>55</ele>
        <time>2010-07-29T10:12:22Z</time>
      </trkpt>
      <trkpt lat="48.10097" lon="-1.37445">
        <ele>55</ele>
        <time>2010-07-29T10:12:24Z</time>
      </trkpt>
      <trkpt lat="48.10092" lon="-1.37445">
        <ele>55</ele>
        <time>2010-07-29T10:12:26Z</time>
      </trkpt>
      <trkpt lat="48.10087" lon="-1.37443">
        <ele>56</ele>
        <time>2010-07-29T10:12:28Z</time>
      </trkpt>
      <trkpt lat="48.10081" lon="-1.37441">
        <ele>56</ele>
        <time>2010-07-29T10:12:30Z</time>
      </trkpt>
      <trkpt lat="48.10076" lon="-1.37441">
        <ele>57</ele>
        <time>2010-07-29T10:12:32Z</time>
      </trkpt>
      <trkpt lat="48.10069" lon="-1.37441">
        <ele>57</ele>
        <time>2010-07-29T10:12:34Z</time>
      </trkpt>
      <trkpt lat="48.10065" lon="-1.37439">
        <ele>58</ele>
        <time>2010-07-29T10:12:36Z</time>
      </trkpt>
      <trkpt lat="48.1006" lon="-1.37437">
        <ele>58</ele>
        <time>2010-07-29T10:12:38Z</time>
      </trkpt>
      <trkpt lat="48.10054" lon="-1.37437">
        <ele>59</ele>
        <time>2010-07-29T10:12:40Z</time>
      </trkpt>
      <trkpt lat="48.10047" lon="-1.37436">
        <ele>59</ele>
        <time>2010-07-29T10:12:42Z</time>
      </trkpt>
      <trkpt lat="48.10042" lon="-1.37435">
        <ele>60</ele>
        <time>2010-07-29T10:12:44Z</time>
      </trkpt>
      <trkpt lat="48.10036" lon="-1.37434">
        <ele>60</ele>
        <time>2010-07-29T10:12:46Z</time>
      </trkpt>
      <trkpt lat="48.1003" lon="-1.37433">
        <ele>61</ele>
        <time>2010-07-29T10:12:48Z</time>
      </trkpt>
      <trkpt lat="48.10024" lon="-1.37432">
        <ele>61</ele>
        <time>2010-07-29T10:12:50Z</time>
      </trkpt>
      <trkpt lat="48.10018" lon="-1.3743">
        <ele>62</ele>
        <time>2010-07-29T10:12:52Z</time>
      </trkpt>
      <trkpt lat="48.10013" lon="-1.37429">
        <ele>63</ele>
        <time>2010-07-29T10:12:54Z</time>
      </trkpt>
      <trkpt lat="48.10007" lon="-1.37429">
        <ele>63</ele>
        <time>2010-07-29T10:12:56Z</time>
      </trkpt>
      <trkpt lat="48.10001" lon="-1.37427">
        <ele>64</ele>
        <time>2010-07-29T10:12:58Z</time>
      </trkpt>
      <trkpt lat="48.09995" lon="-1.37426">
        <ele>64</ele>
        <time>2010-07-29T10:13:00Z</time>
      </trkpt>
      <trkpt lat="48.09987" lon="-1.37425">
        <ele>65</ele>
        <time>2010-07-29T10:13:03Z</time>
      </trkpt>
      <trkpt lat="48.09982" lon="-1.37424">
        <ele>65</ele>
        <time>2010-07-29T10:13:05Z</time>
      </trkpt>
      <trkpt lat="48.09976" lon="-1.37423">
        <ele>66</ele>
        <time>2010-07-29T10:13:07Z</time>
      </trkpt>
      <trkpt lat="48.0997" lon="-1.37422">
        <ele>66</ele>
        <time>2010-07-29T10:13:09Z</time>
      </trkpt>
      <trkpt lat="48.09963" lon="-1.37419">
        <ele>67</ele>
        <time>2010-07-29T10:13:11Z</time>
      </trkpt>
      <trkpt lat="48.09955" lon="-1.37416">
        <ele>67</ele>
        <time>2010-07-29T10:13:13Z</time>
      </trkpt>
      <trkpt lat="48.09949" lon="-1.37414">
        <ele>68</ele>
        <time>2010-07-29T10:13:15Z</time>
      </trkpt>
      <trkpt lat="48.09944" lon="-1.37412">
        <ele>68</ele>
        <time>2010-07-29T10:13:17Z</time>
      </trkpt>
      <trkpt lat="48.09941" lon="-1.37409">
        <ele>68</ele>
        <time>2010-07-29T10:13:19Z</time>
      </trkpt>
      <trkpt lat="48.09939" lon="-1.37409">
        <ele>68</ele>
        <time>2010-07-29T10:13:20Z</time>
      </trkpt>
      <trkpt lat="48.09934" lon="-1.37408">
        <ele>69</ele>
        <time>2010-07-29T10:13:22Z</time>
      </trkpt>
      <trkpt lat="48.0993" lon="-1.37408">
        <ele>69</ele>
        <time>2010-07-29T10:13:24Z</time>
      </trkpt>
      <trkpt lat="48.09926" lon="-1.37408">
        <ele>69</ele>
        <time>2010-07-29T10:13:26Z</time>
      </trkpt>
      <trkpt lat="48.09921" lon="-1.37408">
        <ele>70</ele>
        <time>2010-07-29T10:13:28Z</time>
      </trkpt>
      <trkpt lat="48.09912" lon="-1.37406">
        <ele>70</ele>
        <time>2010-07-29T10:13:31Z</time>
      </trkpt>
      <trkpt lat="48.09907" lon="-1.37405">
        <ele>71</ele>
        <time>2010-07-29T10:13:33Z</time>
      </trkpt>
      <trkpt lat="48.09903" lon="-1.37406">
        <ele>71</ele>
        <time>2010-07-29T10:13:35Z</time>
      </trkpt>
      <trkpt lat="48.09899" lon="-1.37405">
        <ele>71</ele>
        <time>2010-07-29T10:13:37Z</time>
      </trkpt>
      <trkpt lat="48.09895" lon="-1.37404">
        <ele>71</ele>
        <time>2010-07-29T10:13:39Z</time>
      </trkpt>
      <trkpt lat="48.09892" lon="-1.37404">
        <ele>71</ele>
        <time>2010-07-29T10:13:40Z</time>
      </trkpt>
      <trkpt lat="48.09886" lon="-1.37402">
        <ele>71</ele>
        <time>2010-07-29T10:13:42Z</time>
      </trkpt>
      <trkpt lat="48.09879" lon="-1.37401">
        <ele>72</ele>
        <time>2010-07-29T10:13:44Z</time>
      </trkpt>
      <trkpt lat="48.09872" lon="-1.37399">
        <ele>72</ele>
        <time>2010-07-29T10:13:46Z</time>
      </trkpt>
      <trkpt lat="48.09865" lon="-1.37398">
        <ele>72</ele>
        <time>2010-07-29T10:13:48Z</time>
      </trkpt>
      <trkpt lat="48.09843" lon="-1.37393">
        <ele>72</ele>
        <time>2010-07-29T10:13:55Z</time>
      </trkpt>
      <trkpt lat="48.09828" lon="-1.3739">
        <ele>73</ele>
        <time>2010-07-29T10:14:00Z</time>
      </trkpt>
      <trkpt lat="48.09822" lon="-1.37389">
        <ele>73</ele>
        <time>2010-07-29T10:14:02Z</time>
      </trkpt>
      <trkpt lat="48.09815" lon="-1.37388">
        <ele>73</ele>
        <time>2010-07-29T10:14:04Z</time>
      </trkpt>
      <trkpt lat="48.09808" lon="-1.37386">
        <ele>73</ele>
        <time>2010-07-29T10:14:06Z</time>
      </trkpt>
      <trkpt lat="48.09801" lon="-1.37383">
        <ele>73</ele>
        <time>2010-07-29T10:14:08Z</time>
      </trkpt>
      <trkpt lat="48.09788" lon="-1.37381">
        <ele>73</ele>
        <time>2010-07-29T10:14:12Z</time>
      </trkpt>
      <trkpt lat="48.09776" lon="-1.37381">
        <ele>73</ele>
        <time>2010-07-29T10:14:16Z</time>
      </trkpt>
      <trkpt lat="48.09768" lon="-1.37377">
        <ele>73</ele>
        <time>2010-07-29T10:14:20Z</time>
      </trkpt>
      <trkpt lat="48.09759" lon="-1.37372">
        <ele>73</ele>
        <time>2010-07-29T10:14:26Z</time>
      </trkpt>
      <trkpt lat="48.09737" lon="-1.37368">
        <ele>72</ele>
        <time>2010-07-29T10:14:32Z</time>
      </trkpt>
      <trkpt lat="48.09722" lon="-1.37366">
        <ele>72</ele>
        <time>2010-07-29T10:14:36Z</time>
      </trkpt>
      <trkpt lat="48.09714" lon="-1.37364">
        <ele>71</ele>
        <time>2010-07-29T10:14:38Z</time>
      </trkpt>
      <trkpt lat="48.09706" lon="-1.37362">
        <ele>71</ele>
        <time>2010-07-29T10:14:40Z</time>
      </trkpt>
      <trkpt lat="48.09697" lon="-1.37361">
        <ele>71</ele>
        <time>2010-07-29T10:14:42Z</time>
      </trkpt>
      <trkpt lat="48.09688" lon="-1.37358">
        <ele>70</ele>
        <time>2010-07-29T10:14:44Z</time>
      </trkpt>
      <trkpt lat="48.09658" lon="-1.37349">
        <ele>69</ele>
        <time>2010-07-29T10:14:49Z</time>
      </trkpt>
      <trkpt lat="48.09652" lon="-1.37347">
        <ele>69</ele>
        <time>2010-07-29T10:14:50Z</time>
      </trkpt>
      <trkpt lat="48.09639" lon="-1.37344">
        <ele>68</ele>
        <time>2010-07-29T10:14:52Z</time>
      </trkpt>
      <trkpt lat="48.09632" lon="-1.37343">
        <ele>68</ele>
        <time>2010-07-29T10:14:53Z</time>
      </trkpt>
      <trkpt lat="48.09626" lon="-1.37341">
        <ele>68</ele>
        <time>2010-07-29T10:14:54Z</time>
      </trkpt>
      <trkpt lat="48.09622" lon="-1.37333">
        <ele>68</ele>
        <time>2010-07-29T10:14:55Z</time>
      </trkpt>
      <trkpt lat="48.09618" lon="-1.37326">
        <ele>67</ele>
        <time>2010-07-29T10:14:56Z</time>
      </trkpt>
      <trkpt lat="48.09617" lon="-1.37308">
        <ele>67</ele>
        <time>2010-07-29T10:14:58Z</time>
      </trkpt>
      <trkpt lat="48.09618" lon="-1.37297">
        <ele>66</ele>
        <time>2010-07-29T10:14:59Z</time>
      </trkpt>
      <trkpt lat="48.09619" lon="-1.37286">
        <ele>66</ele>
        <time>2010-07-29T10:15:00Z</time>
      </trkpt>
      <trkpt lat="48.09623" lon="-1.37277">
        <ele>66</ele>
        <time>2010-07-29T10:15:01Z</time>
      </trkpt>
      <trkpt lat="48.09627" lon="-1.3727">
        <ele>66</ele>
        <time>2010-07-29T10:15:02Z</time>
      </trkpt>
      <trkpt lat="48.09636" lon="-1.37257">
        <ele>66</ele>
        <time>2010-07-29T10:15:04Z</time>
      </trkpt>
      <trkpt lat="48.09646" lon="-1.37248">
        <ele>66</ele>
        <time>2010-07-29T10:15:06Z</time>
      </trkpt>
      <trkpt lat="48.09654" lon="-1.3724">
        <ele>66</ele>
        <time>2010-07-29T10:15:08Z</time>
      </trkpt>
      <trkpt lat="48.09657" lon="-1.37236">
        <ele>66</ele>
        <time>2010-07-29T10:15:09Z</time>
      </trkpt>
      <trkpt lat="48.09667" lon="-1.37229">
        <ele>66</ele>
        <time>2010-07-29T10:15:12Z</time>
      </trkpt>
      <trkpt lat="48.09675" lon="-1.37199">
        <ele>64</ele>
        <time>2010-07-29T10:15:19Z</time>
      </trkpt>
      <trkpt lat="48.09675" lon="-1.37194">
        <ele>64</ele>
        <time>2010-07-29T10:15:20Z</time>
      </trkpt>
      <trkpt lat="48.09672" lon="-1.37181">
        <ele>63</ele>
        <time>2010-07-29T10:15:23Z</time>
      </trkpt>
      <trkpt lat="48.09674" lon="-1.37179">
        <ele>63</ele>
        <time>2010-07-29T10:15:24Z</time>
      </trkpt>
      <trkpt lat="48.0968" lon="-1.37176">
        <ele>63</ele>
        <time>2010-07-29T10:15:26Z</time>
      </trkpt>
      <trkpt lat="48.09683" lon="-1.37176">
        <ele>63</ele>
        <time>2010-07-29T10:15:27Z</time>
      </trkpt>
      <trkpt lat="48.09691" lon="-1.37174">
        <ele>63</ele>
        <time>2010-07-29T10:15:29Z</time>
      </trkpt>
      <trkpt lat="48.09694" lon="-1.37171">
        <ele>63</ele>
        <time>2010-07-29T10:15:30Z</time>
      </trkpt>
      <trkpt lat="48.09697" lon="-1.3715">
        <ele>63</ele>
        <time>2010-07-29T10:15:33Z</time>
      </trkpt>
      <trkpt lat="48.09697" lon="-1.37142">
        <ele>63</ele>
        <time>2010-07-29T10:15:34Z</time>
      </trkpt>
      <trkpt lat="48.09703" lon="-1.3712">
        <ele>63</ele>
        <time>2010-07-29T10:15:39Z</time>
      </trkpt>
      <trkpt lat="48.09705" lon="-1.3711">
        <ele>63</ele>
        <time>2010-07-29T10:15:44Z</time>
      </trkpt>
      <trkpt lat="48.09708" lon="-1.37107">
        <ele>63</ele>
        <time>2010-07-29T10:15:46Z</time>
      </trkpt>
      <trkpt lat="48.09707" lon="-1.37101">
        <ele>64</ele>
        <time>2010-07-29T10:15:51Z</time>
      </trkpt>
      <trkpt lat="48.09706" lon="-1.37101">
        <ele>64</ele>
        <time>2010-07-29T10:15:52Z</time>
      </trkpt>
      <trkpt lat="48.09704" lon="-1.37102">
        <ele>64</ele>
        <time>2010-07-29T10:15:54Z</time>
      </trkpt>
      <trkpt lat="48.09703" lon="-1.37102">
        <ele>64</ele>
        <time>2010-07-29T10:15:56Z</time>
      </trkpt>
      <trkpt lat="48.09702" lon="-1.37103">
        <ele>64</ele>
        <time>2010-07-29T10:15:57Z</time>
      </trkpt>
      <trkpt lat="48.097" lon="-1.37102">
        <ele>64</ele>
        <time>2010-07-29T10:15:58Z</time>
      </trkpt>
      <trkpt lat="48.09698" lon="-1.37102">
        <ele>64</ele>
        <time>2010-07-29T10:16:00Z</time>
      </trkpt>
      <trkpt lat="48.09697" lon="-1.371">
        <ele>64</ele>
        <time>2010-07-29T10:16:01Z</time>
      </trkpt>
      <trkpt lat="48.09698" lon="-1.37093">
        <ele>65</ele>
        <time>2010-07-29T10:16:04Z</time>
      </trkpt>
      <trkpt lat="48.097" lon="-1.37088">
        <ele>66</ele>
        <time>2010-07-29T10:16:06Z</time>
      </trkpt>
      <trkpt lat="48.097" lon="-1.37086">
        <ele>66</ele>
        <time>2010-07-29T10:16:07Z</time>
      </trkpt>
      <trkpt lat="48.09699" lon="-1.37081">
        <ele>67</ele>
        <time>2010-07-29T10:16:09Z</time>
      </trkpt>
      <trkpt lat="48.09697" lon="-1.37078">
        <ele>67</ele>
        <time>2010-07-29T10:16:11Z</time>
      </trkpt>
      <trkpt lat="48.09696" lon="-1.37073">
        <ele>68</ele>
        <time>2010-07-29T10:16:13Z</time>
      </trkpt>
      <trkpt lat="48.09695" lon="-1.37068">
        <ele>69</ele>
        <time>2010-07-29T10:16:15Z</time>
      </trkpt>
      <trkpt lat="48.09695" lon="-1.37061">
        <ele>70</ele>
        <time>2010-07-29T10:16:18Z</time>
      </trkpt>
      <trkpt lat="48.09695" lon="-1.37057">
        <ele>70</ele>
        <time>2010-07-29T10:16:20Z</time>
      </trkpt>
      <trkpt lat="48.09695" lon="-1.37054">
        <ele>71</ele>
        <time>2010-07-29T10:16:21Z</time>
      </trkpt>
      <trkpt lat="48.09694" lon="-1.37049">
        <ele>71</ele>
        <time>2010-07-29T10:16:24Z</time>
      </trkpt>
      <trkpt lat="48.09694" lon="-1.37047">
        <ele>71</ele>
        <time>2010-07-29T10:16:25Z</time>
      </trkpt>
      <trkpt lat="48.09693" lon="-1.37029">
        <ele>73</ele>
        <time>2010-07-29T10:16:32Z</time>
      </trkpt>
      <trkpt lat="48.09692" lon="-1.3702">
        <ele>73</ele>
        <time>2010-07-29T10:16:35Z</time>
      </trkpt>
      <trkpt lat="48.09691" lon="-1.37017">
        <ele>74</ele>
        <time>2010-07-29T10:16:36Z</time>
      </trkpt>
      <trkpt lat="48.09689" lon="-1.3701">
        <ele>74</ele>
        <time>2010-07-29T10:16:39Z</time>
      </trkpt>
      <trkpt lat="48.09689" lon="-1.37009">
        <ele>74</ele>
        <time>2010-07-29T10:16:40Z</time>
      </trkpt>
      <trkpt lat="48.0969" lon="-1.37006">
        <ele>74</ele>
        <time>2010-07-29T10:16:43Z</time>
      </trkpt>
      <trkpt lat="48.0969" lon="-1.37004">
        <ele>74</ele>
        <time>2010-07-29T10:16:47Z</time>
      </trkpt>
      <trkpt lat="48.0969" lon="-1.37002">
        <ele>74</ele>
        <time>2010-07-29T10:16:48Z</time>
      </trkpt>
      <trkpt lat="48.0969" lon="-1.36998">
        <ele>75</ele>
        <time>2010-07-29T10:16:49Z</time>
      </trkpt>
      <trkpt lat="48.09689" lon="-1.36994">
        <ele>75</ele>
        <time>2010-07-29T10:16:50Z</time>
      </trkpt>
      <trkpt lat="48.09688" lon="-1.36985">
        <ele>75</ele>
        <time>2010-07-29T10:16:52Z</time>
      </trkpt>
      <trkpt lat="48.09686" lon="-1.36976">
        <ele>76</ele>
        <time>2010-07-29T10:16:54Z</time>
      </trkpt>
      <trkpt lat="48.09684" lon="-1.36968">
        <ele>76</ele>
        <time>2010-07-29T10:16:56Z</time>
      </trkpt>
      <trkpt lat="48.0968" lon="-1.36946">
        <ele>77</ele>
        <time>2010-07-29T10:17:02Z</time>
      </trkpt>
      <trkpt lat="48.0968" lon="-1.36943">
        <ele>77</ele>
        <time>2010-07-29T10:17:03Z</time>
      </trkpt>
      <trkpt lat="48.09677" lon="-1.36938">
        <ele>77</ele>
        <time>2010-07-29T10:17:06Z</time>
      </trkpt>
      <trkpt lat="48.09674" lon="-1.36939">
        <ele>77</ele>
        <time>2010-07-29T10:17:08Z</time>
      </trkpt>
      <trkpt lat="48.09672" lon="-1.3694">
        <ele>77</ele>
        <time>2010-07-29T10:17:10Z</time>
      </trkpt>
      <trkpt lat="48.09671" lon="-1.36941">
        <ele>77</ele>
        <time>2010-07-29T10:17:12Z</time>
      </trkpt>
      <trkpt lat="48.09669" lon="-1.36941">
        <ele>77</ele>
        <time>2010-07-29T10:17:14Z</time>
      </trkpt>
      <trkpt lat="48.09665" lon="-1.36948">
        <ele>77</ele>
        <time>2010-07-29T10:17:19Z</time>
      </trkpt>
      <trkpt lat="48.09659" lon="-1.36955">
        <ele>76</ele>
        <time>2010-07-29T10:17:23Z</time>
      </trkpt>
      <trkpt lat="48.09643" lon="-1.36971">
        <ele>75</ele>
        <time>2010-07-29T10:17:29Z</time>
      </trkpt>
      <trkpt lat="48.09617" lon="-1.36993">
        <ele>73</ele>
        <time>2010-07-29T10:17:35Z</time>
      </trkpt>
      <trkpt lat="48.09613" lon="-1.36998">
        <ele>73</ele>
        <time>2010-07-29T10:17:36Z</time>
      </trkpt>
      <trkpt lat="48.09608" lon="-1.37003">
        <ele>72</ele>
        <time>2010-07-29T10:17:37Z</time>
      </trkpt>
      <trkpt lat="48.09603" lon="-1.37008">
        <ele>72</ele>
        <time>2010-07-29T10:17:38Z</time>
      </trkpt>
      <trkpt lat="48.09593" lon="-1.37019">
        <ele>71</ele>
        <time>2010-07-29T10:17:40Z</time>
      </trkpt>
      <trkpt lat="48.09587" lon="-1.37024">
        <ele>70</ele>
        <time>2010-07-29T10:17:41Z</time>
      </trkpt>
      <trkpt lat="48.09569" lon="-1.3703">
        <ele>69</ele>
        <time>2010-07-29T10:17:44Z</time>
      </trkpt>
      <trkpt lat="48.09564" lon="-1.37036">
        <ele>68</ele>
        <time>2010-07-29T10:17:46Z</time>
      </trkpt>
      <trkpt lat="48.09565" lon="-1.37039">
        <ele>68</ele>
        <time>2010-07-29T10:17:47Z</time>
      </trkpt>
      <trkpt lat="48.09574" lon="-1.37052">
        <ele>68</ele>
        <time>2010-07-29T10:17:49Z</time>
      </trkpt>
      <trkpt lat="48.0958" lon="-1.37058">
        <ele>67</ele>
        <time>2010-07-29T10:17:50Z</time>
      </trkpt>
      <trkpt lat="48.0959" lon="-1.37069">
        <ele>67</ele>
        <time>2010-07-29T10:17:52Z</time>
      </trkpt>
      <trkpt lat="48.09591" lon="-1.37072">
        <ele>66</ele>
        <time>2010-07-29T10:17:53Z</time>
      </trkpt>
      <trkpt lat="48.0959" lon="-1.37076">
        <ele>66</ele>
        <time>2010-07-29T10:17:54Z</time>
      </trkpt>
      <trkpt lat="48.09587" lon="-1.37082">
        <ele>65</ele>
        <time>2010-07-29T10:17:56Z</time>
      </trkpt>
      <trkpt lat="48.09584" lon="-1.37083">
        <ele>65</ele>
        <time>2010-07-29T10:17:57Z</time>
      </trkpt>
      <trkpt lat="48.09582" lon="-1.37083">
        <ele>65</ele>
        <time>2010-07-29T10:17:58Z</time>
      </trkpt>
      <trkpt lat="48.0958" lon="-1.37086">
        <ele>65</ele>
        <time>2010-07-29T10:17:59Z</time>
      </trkpt>
      <trkpt lat="48.09579" lon="-1.37089">
        <ele>65</ele>
        <time>2010-07-29T10:18:01Z</time>
      </trkpt>
      <trkpt lat="48.09578" lon="-1.37096">
        <ele>64</ele>
        <time>2010-07-29T10:18:03Z</time>
      </trkpt>
      <trkpt lat="48.09575" lon="-1.37103">
        <ele>64</ele>
        <time>2010-07-29T10:18:05Z</time>
      </trkpt>
      <trkpt lat="48.09573" lon="-1.37111">
        <ele>64</ele>
        <time>2010-07-29T10:18:07Z</time>
      </trkpt>
      <trkpt lat="48.09572" lon="-1.37114">
        <ele>64</ele>
        <time>2010-07-29T10:18:08Z</time>
      </trkpt>
      <trkpt lat="48.09568" lon="-1.37118">
        <ele>65</ele>
        <time>2010-07-29T10:18:11Z</time>
      </trkpt>
      <trkpt lat="48.09567" lon="-1.37116">
        <ele>65</ele>
        <time>2010-07-29T10:18:17Z</time>
      </trkpt>
      <trkpt lat="48.09567" lon="-1.37115">
        <ele>65</ele>
        <time>2010-07-29T10:18:18Z</time>
      </trkpt>
      <trkpt lat="48.09565" lon="-1.37113">
        <ele>65</ele>
        <time>2010-07-29T10:18:19Z</time>
      </trkpt>
      <trkpt lat="48.09558" lon="-1.37107">
        <ele>65</ele>
        <time>2010-07-29T10:18:21Z</time>
      </trkpt>
      <trkpt lat="48.09544" lon="-1.37092">
        <ele>66</ele>
        <time>2010-07-29T10:18:25Z</time>
      </trkpt>
      <trkpt lat="48.09535" lon="-1.37084">
        <ele>66</ele>
        <time>2010-07-29T10:18:28Z</time>
      </trkpt>
      <trkpt lat="48.09524" lon="-1.37088">
        <ele>66</ele>
        <time>2010-07-29T10:18:33Z</time>
      </trkpt>
      <trkpt lat="48.09521" lon="-1.3709">
        <ele>66</ele>
        <time>2010-07-29T10:18:37Z</time>
      </trkpt>
    </trkseg>
  </trk>
</gpx>